Date StartTime U_cm/s V_cm/s W_cm/s Ustd_cm/s Vstd_cm/s Wstd_cm/s Uvar_(cm/s)^2 Vvar_(cm/s)^2 Wvar_(cm/s)^2 KE_(m/s)^2 TurbulentKE_(m/s)^2 HorizWindSpeed_cm/s FrictionSpeec_cm/s DragCoef SpeedOfSound_m/s SonicTemperature_C Pressure_mb 
07/20/2013  00:00:00     -138.602     -111.167        5.206       66.129       65.271       37.442     4373.042     4260.335     1401.918        2.081        0.502      177.675       30.879        0.030      348.297       27.889      860.426
07/20/2013  00:01:00     -120.570     -137.744       -6.594       60.716       43.863       28.094     3686.412     1923.926      789.293        1.998        0.320      183.059       21.185        0.013      348.317       27.923      860.405
07/20/2013  00:02:00     -100.701      -77.022        1.772       56.841       37.164       29.806     3230.858     1381.176      888.398        1.079        0.275      126.779       27.820        0.048      348.377       28.029      860.391
07/20/2013  00:03:00     -140.103      -72.070       -5.732       49.398       49.172       24.421     2440.189     2417.919      596.380        1.515        0.273      157.553       29.756        0.036      348.325       27.937      860.400
07/20/2013  00:04:00     -107.757      -13.089        4.987       62.507       48.078       31.050     3907.131     2311.480      964.105        0.949        0.359      108.549       34.971        0.104      348.307       27.906      860.423
07/20/2013  00:05:00     -153.223      -52.449       -0.182       49.371       37.397       26.597     2437.469     1398.561      707.412        1.538        0.227      161.951       25.464        0.025      348.275       27.852      860.437
07/20/2013  00:06:00     -141.391      -55.787        5.255       59.168       54.199       31.070     3500.888     2937.582      965.349        1.527        0.370      151.998       30.540        0.040      348.350       27.981      860.427
07/20/2013  00:07:00     -137.755      -39.470       -5.163       42.414       29.606       20.531     1798.985      876.540      421.516        1.183        0.155      143.298       20.824        0.021      348.382       28.038      860.403
07/20/2013  00:08:00      -83.285      -20.184        0.765       43.283       39.767       20.187     1873.395     1581.438      407.521        0.560        0.193       85.696       21.205        0.061      348.355       27.989      860.397
07/20/2013  00:09:00      -98.888      -10.910       -3.953       42.314       32.019       21.869     1790.504     1025.243      478.232        0.660        0.165       99.488       23.020        0.054      348.182       27.691      860.392
07/20/2013  00:10:00     -163.193       27.534      -15.455       27.825       30.129       16.936      774.258      907.766      286.840        1.480        0.098      165.500       10.556        0.004      348.144       27.625      860.388
07/20/2013  00:11:00     -202.426      -58.711      -20.154       67.177       64.676       34.803     4512.741     4182.930     1211.243        2.737        0.495      210.768       32.417        0.024      347.913       27.224      860.378
07/20/2013  00:12:00     -118.869      -64.931       -4.404       82.626       64.107       39.330     6827.052     4109.648     1546.872        1.542        0.624      135.447       45.439        0.113      347.803       27.036      860.352
07/20/2013  00:13:00     -133.903      -50.087       -3.524       43.725       45.757       26.789     1911.874     2093.659      717.676        1.259        0.236      142.965       20.155        0.020      347.849       27.116      860.315
07/20/2013  00:14:00     -197.537      -88.090       -3.256       72.093       59.226       39.072     5197.383     3507.747     1526.634        2.851        0.512      216.289       33.514        0.024      347.915       27.227      860.319
07/20/2013  00:15:00     -223.867      -45.751      -18.044       61.081       47.552       29.108     3730.922     2261.227      847.254        2.969        0.342      228.494       25.972        0.013      348.033       27.429      860.337
07/20/2013  00:16:00     -186.397      -35.356      -17.854       57.941       57.942       28.900     3357.105     3357.233      835.200        2.193        0.377      189.720       22.970        0.015      347.941       27.274      860.355
07/20/2013  00:17:00     -222.107      -75.500      -12.869       44.794       57.124       32.727     2006.483     3263.116     1071.045        3.077        0.317      234.588       23.317        0.010      347.805       27.035      860.348
07/20/2013  00:18:00     -202.057      -82.238       -3.496       67.380       59.971       33.995     4540.108     3596.512     1155.659        2.845        0.465      218.151       33.530        0.024      348.072       27.497      860.321
07/20/2013  00:19:00     -227.921      -75.401       -4.227       70.394       68.560       34.169     4955.335     4700.515     1167.513        3.424        0.541      240.069       35.706        0.022      348.229       27.766      860.303
07/20/2013  00:20:00     -196.362      -82.323        1.763       69.700       57.533       37.994     4858.118     3310.041     1443.553        2.747        0.481      212.920       36.029        0.029      348.128       27.595      860.301
07/20/2013  00:21:00     -275.609      -99.527      -11.593       54.262       46.114       30.895     2944.316     2126.463      954.512        4.601        0.301      293.029       26.178        0.008      348.224       27.757      860.300
07/20/2013  00:22:00     -168.615      -67.018       -2.452       91.337       52.989       40.379     8342.513     2807.785     1630.447        2.285        0.639      181.445       47.487        0.068      348.246       27.800      860.269
07/20/2013  00:23:00     -215.809      -43.850       -7.266       71.340       57.831       31.975     5089.409     3344.457     1022.384        2.900        0.473      220.219       38.015        0.030      348.148       27.628      860.262
07/20/2013  00:24:00     -269.377      -87.290       -8.667       88.693       84.028       45.683     7866.386     7060.718     2086.974        4.863        0.851      283.166       48.730        0.030      348.238       27.785      860.251
07/20/2013  00:25:00     -304.686      -91.698        0.731       95.929       69.465       46.828     9202.393     4825.376     2192.878        5.873        0.811      318.186       51.818        0.027      348.488       28.218      860.227
07/20/2013  00:26:00     -246.761      -83.122       -3.927       90.737       61.840       37.374     8233.154     3824.246     1396.798        4.063        0.673      260.385       46.779        0.032      348.340       27.960      860.226
07/20/2013  00:27:00     -208.793      -78.732       -1.361       97.989       71.528       42.819     9601.924     5116.298     1833.490        3.317        0.828      223.144       44.531        0.040      348.256       27.815      860.227
07/20/2013  00:28:00     -260.814      -88.216        0.787       89.915       96.479       51.280     8084.715     9308.103     2629.651        4.791        1.001      275.329       44.605        0.026      348.333       27.949      860.216
07/20/2013  00:29:00     -219.787      -99.967        1.987      151.097       93.971       61.681    22830.167     8830.554     3804.572        4.688        1.773      241.453       72.826        0.091      348.365       28.005      860.184
07/20/2013  00:30:00     -208.952     -122.341        4.766      143.215      115.873       66.523    20510.530    13426.614     4425.265        4.850        1.918      242.133       78.318        0.105      348.448       28.149      860.145
07/20/2013  00:31:00     -302.663     -103.491      -15.445      127.476       98.650       54.303    16250.176     9731.809     2948.836        6.574        1.447      319.867       51.487        0.026      348.530       28.290      860.147
07/20/2013  00:32:00     -360.756      -34.718      -14.034      132.165       79.600       60.480    17467.564     6336.108     3657.835        7.950        1.373      362.423       72.743        0.040      348.509       28.256      860.183
07/20/2013  00:33:00     -271.485      -85.472       -4.764      115.025       88.457       52.110    13230.691     7824.649     2715.472        5.240        1.189      284.622       57.037        0.040      348.476       28.197      860.188
07/20/2013  00:34:00     -292.413      -56.913        1.682      128.988       90.715       58.278    16637.935     8229.221     3396.326        5.850        1.413      297.900       59.407        0.040      348.523       28.278      860.178
07/20/2013  00:35:00     -243.986      -39.385      -18.918       95.372       89.222       49.981     9095.910     7960.513     2498.084        4.049        0.978      247.145       56.347        0.052      348.489       28.219      860.185
07/20/2013  00:36:00     -262.739      -76.378       -9.519      103.605       71.148       49.423    10733.914     5062.058     2442.621        4.659        0.912      273.616       53.638        0.038      348.495       28.229      860.195
07/20/2013  00:37:00     -312.334      -47.178      -22.859       79.376       83.941       46.572     6300.503     7046.010     2168.933        5.790        0.776      315.877       30.915        0.010      348.590       28.392      860.197
07/20/2013  00:38:00     -221.722      -34.300       -0.822      100.702       87.173       48.560    10140.898     7599.169     2358.032        3.521        1.005      224.359       47.402        0.045      348.501       28.239      860.212
07/20/2013  00:39:00     -205.109      -61.630       -4.299      116.622       83.766       50.332    13600.757     7016.724     2533.261        3.451        1.158      214.168       62.046        0.084      348.469       28.185      860.227
07/20/2013  00:40:00     -264.952      -80.790      -15.678      115.721      119.531       55.733    13391.339    14287.742     3106.203        5.387        1.539      276.995       58.297        0.044      348.568       28.355      860.208
07/20/2013  00:41:00     -279.300     -115.569       -5.752      170.006      113.187       59.300    28902.086    12811.269     3516.540        6.830        2.261      302.266       75.186        0.062      348.647       28.494      860.198
07/20/2013  00:42:00     -221.836     -105.347       -6.645      123.163       88.342       52.272    15169.199     7804.347     2732.369        4.302        1.285      245.579       48.916        0.040      348.764       28.696      860.175
07/20/2013  00:43:00     -190.325     -142.448       -6.555      146.169      112.364       71.519    21365.515    12625.646     5114.990        4.782        1.955      237.729       84.282        0.126      348.809       28.773      860.153
07/20/2013  00:44:00     -249.957        1.618      -20.122      109.381       69.853       42.952    11964.295     4879.372     1844.871        4.078        0.934      249.963       38.807        0.024      348.782       28.725      860.248
07/20/2013  00:45:00      -60.255      -12.254        7.494       82.756       55.141       34.036     6848.598     3040.512     1158.483        0.744        0.552       61.488       20.959        0.116      348.496       28.236      860.288
07/20/2013  00:46:00       15.484       15.387       11.738       53.533       49.967       23.749     2865.817     2496.692      564.031        0.327        0.296       21.829       26.662        1.492      348.363       28.005      860.290
07/20/2013  00:47:00       27.451       72.504      -14.903       58.902       41.874       28.645     3469.388     1753.400      820.509        0.614        0.302       77.526       14.582        0.035      348.597       28.410      860.338
07/20/2013  00:48:00       91.183       91.114       96.135       90.948       65.058       70.274     8271.584     4232.491     4938.486        2.165        0.872      128.904       70.206        0.297      348.246       27.799      860.320
07/20/2013  00:49:00       68.988      105.672       95.798       86.021       72.669       72.494     7399.630     5280.712     5255.383        2.152        0.897      126.198       65.806        0.272      348.315       27.920      860.328
07/20/2013  00:50:00      170.788      138.019       60.825       74.570       50.519       58.521     5560.729     2552.167     3424.728        3.173        0.577      219.586       48.504        0.049      348.263       27.827      860.385
07/20/2013  00:51:00      202.134      113.875        4.085       52.724       49.786       40.812     2779.795     2478.676     1665.605        3.038        0.346      232.003       17.555        0.006      348.195       27.709      860.446
07/20/2013  00:52:00      124.152       70.895       20.709       55.339       47.854       34.786     3062.431     2289.999     1210.090        1.371        0.328      142.968       28.184        0.039      348.075       27.506      860.460
07/20/2013  00:53:00      144.727      102.802       23.566       52.467       47.908       43.834     2752.825     2295.224     1921.377        1.952        0.348      177.522       25.451        0.021      348.022       27.412      860.468
07/20/2013  00:54:00      135.734       84.070       33.351       47.742       52.062       35.492     2279.335     2710.403     1259.648        1.643        0.312      159.660       18.069        0.013      348.044       27.451      860.468
07/20/2013  00:55:00      122.060       90.487       26.030       40.867       35.322       35.077     1670.138     1247.618     1230.426        1.396        0.207      151.942       22.180        0.021      348.080       27.514      860.482
07/20/2013  00:56:00      111.669       77.338       22.938       26.661       31.357       19.632      710.805      983.252      385.413        1.053        0.104      135.835       10.961        0.007      348.128       27.600      860.484
07/20/2013  00:57:00       61.188       42.684       13.030       20.169       18.669       17.714      406.801      348.515      313.802        0.340        0.053       74.605       11.916        0.026      348.027       27.424      860.476
07/20/2013  00:58:00       39.160       31.591        1.809       16.876       11.684       12.042      284.806      136.514      145.009        0.155        0.028       50.314        2.935        0.003      347.965       27.319      860.467
07/20/2013  00:59:00       47.958       57.608       -3.220       31.812       37.093       22.743     1012.016     1375.914      517.237        0.427        0.145       74.958       21.557        0.083      348.767       28.705      860.456
07/20/2013  01:00:00      -49.960        4.057       -4.142       33.325       21.544       11.966     1110.548      464.153      143.180        0.212        0.086       50.124        9.112        0.033      348.136       27.612      860.448
07/20/2013  01:01:00     -109.373       15.420      -11.906       11.710       13.552        9.663      137.120      183.664       93.377        0.638        0.021      110.454        3.738        0.001      347.900       27.204      860.442
07/20/2013  01:02:00     -105.280       20.910      -11.336       17.446       12.719        9.287      304.347      161.781       86.251        0.610        0.028      107.336        9.076        0.007      347.887       27.182      860.451
07/20/2013  01:03:00      -91.879       18.518       -8.721       17.037       18.022       16.753      290.261      324.800      280.650        0.488        0.045       93.727       10.143        0.012      348.163       27.660      860.462
07/20/2013  01:04:00      -63.945       46.418      -17.842       29.961       30.821       14.269      897.649      949.941      203.596        0.431        0.103       79.017       18.826        0.057      348.145       27.629      860.478
07/20/2013  01:05:00      -37.555       -4.710       -2.218       15.858       23.684       11.666      251.462      560.951      136.099        0.119        0.047       37.849        3.696        0.010      348.048       27.459      860.510
07/20/2013  01:06:00       16.904       16.728       -4.391       28.448       15.109       15.216      809.278      228.273      231.517        0.093        0.063       23.782       14.314        0.362      348.057       27.475      860.523
07/20/2013  01:07:00       47.574       19.478        8.260       19.624       11.238       13.616      385.093      126.293      185.400        0.170        0.035       51.407        8.758        0.029      347.871       27.155      860.529
07/20/2013  01:08:00        3.513       35.516       37.216       21.303       10.640       14.110      453.815      113.209      199.104        0.171        0.038       35.689       10.840        0.092      347.712       26.882      860.536
07/20/2013  01:09:00        4.640        1.587       13.593       14.071       28.593       13.486      197.984      817.548      181.870        0.070        0.060        4.904       17.493       12.726      347.743       26.935      860.545
07/20/2013  01:10:00       14.491      -38.090      -10.744       12.526       23.571       12.931      156.898      555.602      167.221        0.133        0.044       40.754       14.725        0.131      348.029       27.426      860.550
07/20/2013  01:11:00       11.357      -54.989      -11.281       16.280       31.748       11.490      265.023     1007.954      132.025        0.234        0.070       56.149       10.762        0.037      348.080       27.516      860.530
07/20/2013  01:12:00      -14.751      -54.178       -5.679       29.358       15.466       10.225      861.889      239.187      104.541        0.220        0.060       56.150        9.358        0.028      348.206       27.733      860.511
07/20/2013  01:13:00      -80.680      -25.220      -12.370       11.375       20.229        9.178      129.399      409.214       84.227        0.396        0.031       84.530        4.597        0.003      347.726       26.903      860.504
07/20/2013  01:14:00     -105.268      -73.072       -1.573       39.284       20.780       16.658     1543.217      431.800      277.502        0.934        0.113      128.144       15.225        0.014      347.968       27.322      860.494
07/20/2013  01:15:00      -52.747      -46.108        8.567       31.506       27.458       21.435      992.656      753.927      459.443        0.359        0.110       70.059       17.813        0.065      347.902       27.207      860.480
07/20/2013  01:16:00      -61.453      -56.210        1.975       35.659       36.160       22.611     1271.545     1307.579      511.244        0.501        0.155       83.283       16.733        0.040      347.861       27.137      860.471
07/20/2013  01:17:00      -83.964      -75.463        2.718       35.456       33.382       22.680     1257.132     1114.346      514.364        0.782        0.144      112.892       21.627        0.037      348.044       27.452      860.449
07/20/2013  01:18:00      -83.772      -63.002        2.532       44.071       27.577       18.631     1942.223      760.483      347.104        0.702        0.152      104.819       19.154        0.033      348.006       27.387      860.430
07/20/2013  01:19:00     -104.794      -44.819        9.208       55.722       36.864       22.490     3104.949     1358.977      505.795        0.902        0.248      113.976       24.699        0.047      347.974       27.332      860.419
07/20/2013  01:20:00     -139.272      -41.625       -4.285       51.162       31.804       19.291     2617.577     1011.517      372.159        1.257        0.200      145.360       19.733        0.018      348.084       27.522      860.407
07/20/2013  01:21:00     -101.654      -40.352       -3.384       38.233       24.408       18.382     1461.741      595.733      337.891        0.718        0.120      109.370       16.185        0.022      348.079       27.513      860.394
07/20/2013  01:22:00     -136.038       18.128       -5.377       42.185       37.266       18.850     1779.558     1388.725      355.338        1.119        0.176      137.240       18.525        0.018      347.956       27.300      860.419
07/20/2013  01:23:00     -127.987       30.425      -10.982       45.403       29.065       13.068     2061.457      844.751      170.784        1.025        0.154      131.554       11.444        0.008      347.877       27.164      860.439
07/20/2013  01:24:00      -72.047       47.400      -15.410       17.358       29.168       14.376      301.309      850.800      206.672        0.452        0.068       86.241        8.179        0.009      347.821       27.067      860.429
07/20/2013  01:25:00      -81.111      -41.507      -14.661       25.048       33.732       13.027      627.414     1137.845      169.714        0.523        0.097       91.114        9.658        0.011      347.646       26.763      860.408
07/20/2013  01:26:00      -77.527      -39.445       -6.565       39.531       31.030       21.143     1562.676      962.849      447.019        0.529        0.149       86.985       11.248        0.017      347.584       26.659      860.397
07/20/2013  01:27:00     -121.827      -16.063       -4.057       40.440       34.193       23.878     1635.394     1169.190      570.172        0.924        0.169      122.882       23.637        0.037      347.465       26.454      860.403
07/20/2013  01:28:00     -128.861       -2.748      -15.526       34.148       18.819       17.284     1166.073      354.144      298.738        0.934        0.091      128.891       19.637        0.023      347.417       26.370      860.391
07/20/2013  01:29:00     -157.666       14.677      -17.711       19.652       16.189       13.321      386.206      262.080      177.459        1.311        0.041      158.347       10.223        0.004      347.351       26.259      860.378
07/20/2013  01:30:00     -154.007       23.539      -12.234       33.314       21.706       13.120     1109.808      471.137      172.132        1.309        0.088      155.795       10.023        0.004      347.360       26.273      860.377
07/20/2013  01:31:00     -205.658       -2.975      -27.110       31.189       27.503       18.323      972.759      756.398      335.718        2.255        0.103      205.679       11.381        0.003      347.424       26.382      860.392
07/20/2013  01:32:00     -148.536       14.570      -16.935       43.347       42.643       31.117     1878.983     1818.411      968.273        1.361        0.233      149.249       28.332        0.036      347.290       26.152      860.387
07/20/2013  01:33:00      -68.244      -38.959        0.302       26.499       32.729       17.784      702.172     1071.212      316.276        0.413        0.104       78.582       10.317        0.017      347.268       26.113      860.372
07/20/2013  01:34:00      -85.712      -27.560       -3.963       23.613       31.347       16.984      557.570      982.638      288.441        0.497        0.091       90.034       17.429        0.037      347.448       26.425      860.361
07/20/2013  01:35:00     -133.835       20.279      -10.160       34.994       23.960       14.965     1224.597      574.074      223.946        1.022        0.101      135.363       15.746        0.014      347.343       26.243      860.386
07/20/2013  01:36:00     -133.092      -14.501       -5.961       33.555       32.501       18.290     1125.968     1056.290      334.525        1.024        0.126      133.880       19.844        0.022      347.189       25.977      860.406
07/20/2013  01:37:00      -53.122      -46.514        3.549       49.428       29.856       18.243     2443.175      891.391      332.804        0.433        0.183       70.608       15.788        0.050      347.140       25.893      860.405
07/20/2013  01:38:00      -25.655      -56.825        3.475       31.754       22.987       14.775     1008.322      528.401      218.289        0.283        0.088       62.348       13.651        0.048      347.315       26.195      860.391
07/20/2013  01:39:00      -34.118      -35.298        3.676       25.626       27.709       14.209      656.684      767.815      201.898        0.202        0.081       49.092       14.408        0.086      347.443       26.415      860.394
07/20/2013  01:40:00      -84.408       10.548       -7.321       30.703       20.432       13.521      942.656      417.461      182.821        0.442        0.077       85.065       16.371        0.037      347.236       26.059      860.419
07/20/2013  01:41:00      -39.182      -81.421       -2.065       24.034       34.995       16.262      577.618     1224.631      264.438        0.512        0.103       90.358       14.441        0.026      347.157       25.922      860.426
07/20/2013  01:42:00      -49.697     -188.148       -1.280       22.099       29.811       18.660      488.362      888.702      348.199        1.980        0.086      194.601       12.959        0.004      347.447       26.423      860.422
07/20/2013  01:43:00      -85.240      -83.528       -4.045       45.626       57.806       31.183     2081.727     3341.530      972.382        1.033        0.320      119.343       28.157        0.056      347.241       26.068      860.438
07/20/2013  01:44:00      -90.007      -64.447        4.353       59.623       34.970       30.482     3554.848     1222.900      929.175        0.899        0.285      110.701       34.374        0.096      347.339       26.237      860.453
07/20/2013  01:45:00        2.418      -27.116       11.542       25.785       28.688       22.141      664.883      822.976      490.229        0.143        0.099       27.224       20.395        0.561      347.299       26.168      860.460
07/20/2013  01:46:00       13.164      -15.982       16.962       25.083       23.804       17.361      629.165      566.650      301.393        0.111        0.075       20.706       11.716        0.320      347.328       26.218      860.473
07/20/2013  01:47:00      -41.154      -19.222        1.431       27.218       25.437       12.779      740.840      647.056      163.305        0.181        0.078       45.422       11.990        0.070      347.327       26.217      860.486
07/20/2013  01:48:00      -68.976      -45.623       -0.493       48.367       28.527       25.324     2339.362      813.818      641.316        0.532        0.190       82.699       28.206        0.116      347.312       26.189      860.497
07/20/2013  01:49:00      -50.237      -40.571        3.285       40.371       21.018       17.756     1629.809      441.758      315.288        0.328        0.119       64.574       16.314        0.064      347.016       25.680      860.507
07/20/2013  01:50:00      -42.103      -48.191       -0.400       26.689       21.363       14.773      712.280      456.370      218.247        0.274        0.069       63.992       11.364        0.032      347.151       25.913      860.490
07/20/2013  01:51:00      -81.798      -91.274        1.157       45.075       51.061       24.546     2031.788     2607.207      602.517        1.013        0.262      122.564       23.343        0.036      347.236       26.059      860.485
07/20/2013  01:52:00     -131.271      -55.601        1.504       38.669       35.841       22.619     1495.309     1284.560      511.628        1.181        0.165      142.561       18.732        0.017      347.047       25.733      860.489
07/20/2013  01:53:00      -61.130      -62.414        2.091       37.708       30.493       16.776     1421.862      929.802      281.429        0.513        0.132       87.364       18.609        0.045      347.220       26.031      860.486
07/20/2013  01:54:00      -36.643      -24.688        8.110       34.864       17.383       19.999     1215.503      302.184      399.968        0.197        0.096       44.184       15.940        0.130      347.128       25.873      860.466
07/20/2013  01:55:00     -107.814      -51.192      -16.379       29.466       21.358       13.201      868.258      456.183      174.255        0.801        0.075      119.350        9.239        0.006      347.242       26.068      860.464
07/20/2013  01:56:00      -56.378      -34.612        5.420       50.244       20.632       16.760     2524.429      425.665      280.909        0.382        0.162       66.154       20.777        0.099      346.982       25.623      860.453
07/20/2013  01:57:00      -63.431      -55.804        3.419       36.545       31.608       15.377     1335.564      999.064      236.454        0.486        0.129       84.484       17.339        0.042      346.990       25.637      860.427
07/20/2013  01:58:00     -112.764      -49.987        2.773       27.098       28.356       15.848      734.313      804.037      251.149        0.851        0.089      123.347       14.886        0.015      347.005       25.661      860.414
07/20/2013  01:59:00      -82.656      -21.746        0.267       36.983       19.950       12.940     1367.718      397.988      167.446        0.462        0.097       85.469        9.445        0.012      346.844       25.383      860.407
07/20/2013  02:00:00      -62.756        1.919        0.437       32.767       21.621       17.558     1073.691      467.471      308.290        0.290        0.092       62.785       15.319        0.060      346.673       25.089      860.399
07/20/2013  02:01:00      -44.474      -13.512        0.453       34.273       17.289       13.113     1174.655      298.918      171.944        0.190        0.082       46.481       10.937        0.055      346.813       25.331      860.401
07/20/2013  02:02:00      -76.606      -15.552       -5.452       24.258       17.959       10.800      588.435      322.539      116.631        0.358        0.051       78.169        9.765        0.016      346.777       25.269      860.408
07/20/2013  02:03:00      -95.687       -6.242       -5.945       20.487       22.641        9.553      419.703      512.624       91.266        0.513        0.051       95.891        9.158        0.009      346.744       25.212      860.418
07/20/2013  02:04:00      -91.131      -12.477        1.205       20.616       22.811       16.220      425.027      520.338      263.088        0.484        0.060       91.981       13.337        0.021      346.577       24.926      860.420
07/20/2013  02:05:00      -77.090       17.119       -2.691       30.646       22.913       18.313      939.165      524.992      335.376        0.402        0.090       78.968       11.678        0.022      346.411       24.638      860.419
07/20/2013  02:06:00      -81.721        9.954       -8.432       46.407       33.206       21.139     2153.630     1102.606      446.873        0.528        0.185       82.325       20.931        0.065      346.458       24.721      860.447
07/20/2013  02:07:00      -87.226      -21.733       -4.260       23.183       22.711       13.908      537.453      515.768      193.441        0.467        0.062       89.892       12.099        0.018      346.546       24.870      860.425
07/20/2013  02:08:00      -48.398      -14.407        0.988       20.179       20.454       15.673      407.178      418.348      245.647        0.181        0.054       50.497        9.046        0.032      346.434       24.678      860.418
07/20/2013  02:09:00      -43.920       20.014       -0.691       27.987       23.871       15.144      783.291      569.835      229.349        0.196        0.079       48.265        7.669        0.025      346.340       24.517      860.444
07/20/2013  02:10:00     -118.270       -9.602       -4.744       41.464       36.069       15.647     1719.286     1300.983      244.830        0.868        0.163      118.659       18.214        0.024      346.660       25.068      860.449
07/20/2013  02:11:00      -17.929      -93.444       -9.224       45.084       31.117       14.940     2032.575      968.262      223.194        0.618        0.161       95.148       14.560        0.023      346.620       25.000      860.411
07/20/2013  02:12:00      -37.868     -103.771       -6.852       23.534       34.348       17.455      553.827     1179.772      304.676        0.714        0.102      110.465       13.596        0.015      346.695       25.128      860.391
07/20/2013  02:13:00      -87.310       31.305       -5.674       65.440       62.381       27.211     4282.391     3891.377      740.428        0.877        0.446       92.752       36.681        0.156      346.574       24.919      860.427
07/20/2013  02:14:00     -100.921       93.291      -16.711       33.822       48.091       21.111     1143.913     2312.754      445.671        1.153        0.195      137.434       25.456        0.034      346.304       24.454      860.456
07/20/2013  02:15:00      -21.993      -27.045       -9.125       28.565       22.462       10.181      815.961      504.524      103.649        0.136        0.071       34.859        7.267        0.043      346.260       24.379      860.444
07/20/2013  02:16:00        0.937      -18.938       -2.396        8.843        8.622        5.271       78.200       74.347       27.783        0.027        0.009       18.961        2.269        0.014      346.464       24.730      860.438
07/20/2013  02:17:00       -2.876      -32.414        2.864       13.114        8.448        5.868      171.980       71.377       34.438        0.067        0.014       32.541        3.627        0.012      346.651       25.051      860.426
07/20/2013  02:18:00       -2.629      -38.038       -0.420       24.137       18.024       10.293      582.607      324.853      105.950        0.123        0.051       38.129       10.499        0.076      346.585       24.939      860.425
07/20/2013  02:19:00      -62.489      -38.449       -9.388       11.997       23.762       10.973      143.932      564.636      120.418        0.315        0.041       73.370        7.617        0.011      346.675       25.094      860.456
07/20/2013  02:20:00      -22.715        1.647       -0.971       19.235       16.061        7.545      369.979      257.947       56.922        0.060        0.034       22.775        4.893        0.046      346.511       24.811      860.461
07/20/2013  02:21:00       13.883        9.668       -0.102       11.739       12.175        7.917      137.794      148.221       62.684        0.032        0.017       16.918        4.696        0.077      346.359       24.548      860.453
07/20/2013  02:22:00       39.760       39.736        7.055       10.620        6.755        6.529      112.777       45.629       42.625        0.171        0.010       56.212        3.610        0.004      346.271       24.399      860.441
07/20/2013  02:23:00       32.236       28.426        5.570       17.765        9.259       10.650      315.588       85.729      113.425        0.120        0.026       42.979        8.865        0.043      346.298       24.445      860.431
07/20/2013  02:24:00       -2.884        8.098       -2.151        6.473        5.302        3.592       41.904       28.110       12.900        0.008        0.004        8.596        3.160        0.135      346.437       24.682      860.429
07/20/2013  02:25:00      -35.701        0.412       -1.996       31.803        5.555        7.215     1011.408       30.856       52.059        0.119        0.055       35.703       12.839        0.129      346.493       24.778      860.447
07/20/2013  02:26:00      -85.040      -17.610       -6.131       19.570       15.522       11.804      382.984      240.934      139.340        0.417        0.038       86.844       10.620        0.015      346.046       24.012      860.451
07/20/2013  02:27:00      -56.834      -30.146       -1.454       24.700       13.208       12.387      610.104      174.461      153.426        0.254        0.047       64.334        3.602        0.003      346.092       24.090      860.447
07/20/2013  02:28:00      -86.529      -29.218       -3.958       40.269       15.667        9.908     1621.595      245.449       98.159        0.516        0.098       91.329       13.998        0.023      346.079       24.069      860.438
07/20/2013  02:29:00      -77.571       -1.633       -6.508       32.888       12.260        9.272     1081.601      150.310       85.974        0.369        0.066       77.589       10.925        0.020      346.076       24.062      860.426
07/20/2013  02:30:00      -33.903       25.420       -3.731       12.590       10.422        5.097      158.504      108.610       25.975        0.105        0.015       42.374        4.921        0.013      346.410       24.638      860.408
07/20/2013  02:31:00      -65.295       47.654      -12.861        9.003       18.992        6.152       81.048      360.696       37.848        0.359        0.024       80.835        5.922        0.005      346.160       24.208      860.430
07/20/2013  02:32:00      -12.952       46.564       -7.819       24.814       13.612        7.706      615.727      185.296       59.385        0.163        0.043       48.332       12.733        0.069      346.392       24.608      860.429
07/20/2013  02:33:00       26.280       14.168       19.529       34.325       18.046       21.675     1178.230      325.664      469.816        0.162        0.099       29.856       23.792        0.635      346.166       24.218      860.406
07/20/2013  02:34:00      -43.876       -7.475        0.710       24.765       17.918       14.121      613.304      321.047      199.413        0.156        0.057       44.508        8.685        0.038      346.205       24.284      860.426
07/20/2013  02:35:00       56.984       55.280       19.319       33.389       30.374       23.413     1114.841      922.603      548.189        0.463        0.129       79.391       13.837        0.030      345.969       23.880      860.430
07/20/2013  02:36:00      -21.024       89.161      -13.568       25.429       14.248       11.204      646.614      203.009      125.539        0.478        0.049       91.606        9.076        0.010      346.109       24.120      860.448
07/20/2013  02:37:00      -11.204        9.199        2.563       16.819       35.967       14.059      282.866     1293.654      197.655        0.100        0.089       14.496       16.126        1.238      346.375       24.577      860.462
07/20/2013  02:38:00      -23.906      -65.518       -2.352       16.137       13.674       13.260      260.394      186.973      175.822        0.275        0.031       69.743        7.041        0.010      346.122       24.142      860.471
07/20/2013  02:39:00      -60.485      -35.790       -4.174       17.925       21.723       14.253      321.301      471.899      203.156        0.298        0.050       70.281        9.067        0.017      345.918       23.792      860.451
07/20/2013  02:40:00      -37.391      -23.750       -7.413       14.872        9.909        8.323      221.173       98.181       69.267        0.120        0.019       44.297        3.438        0.006      345.931       23.814      860.446
07/20/2013  02:41:00        2.174       -4.394        0.642       21.095       13.283       12.548      444.999      176.444      157.442        0.040        0.039        4.903       10.190        4.320      346.249       24.361      860.445
07/20/2013  02:42:00        4.766       -2.240       -0.385        7.003        5.302        4.415       49.039       28.106       19.491        0.006        0.005        5.267        2.777        0.278      346.387       24.600      860.437
07/20/2013  02:43:00        0.639        5.674        1.190        4.771        4.882        3.460       22.763       23.834       11.972        0.005        0.003        5.710        2.581        0.204      346.553       24.884      860.446
07/20/2013  02:44:00      -24.973       22.543       -3.506       27.801       17.438       10.147      772.891      304.094      102.970        0.116        0.059       33.643       15.303        0.207      346.633       25.020      860.453
07/20/2013  02:45:00      -64.613       19.532       -8.318       12.689       14.703        8.637      161.004      216.190       74.595        0.254        0.023       67.500        5.947        0.008      345.836       23.651      860.446
07/20/2013  02:46:00      -39.105       -3.390       -4.359       12.634       11.085        6.718      159.621      122.888       45.131        0.094        0.016       39.251        4.740        0.015      346.203       24.283      860.439
07/20/2013  02:47:00      -83.006      -59.821      -10.042       29.746       20.025       12.287      884.839      400.997      150.962        0.600        0.072      102.316        6.023        0.003      345.903       23.767      860.447
07/20/2013  02:48:00     -128.304      -46.766      -15.931       24.132       25.907       16.768      582.334      671.156      281.156        1.022        0.077      136.561        9.269        0.005      345.677       23.379      860.447
07/20/2013  02:49:00      -70.716      -20.868       -8.452       18.093       14.135       10.464      327.366      199.789      109.493        0.307        0.032       73.730        3.778        0.003      345.712       23.436      860.440
07/20/2013  02:50:00      -55.410      -14.156       -7.967       15.363       17.302        8.150      236.008      299.373       66.424        0.197        0.030       57.190        6.169        0.012      345.824       23.630      860.442
07/20/2013  02:51:00      -71.806       23.474      -19.411        6.756        7.364        6.297       45.640       54.225       39.649        0.311        0.007       75.545        4.245        0.003      346.000       23.933      860.434
07/20/2013  02:52:00      -58.362       16.046       -7.764        8.500        9.584        7.990       72.242       91.858       63.838        0.198        0.011       60.527        6.591        0.012      345.971       23.882      860.425
07/20/2013  02:53:00      -42.316       -5.730      -11.452        9.295       17.830        6.424       86.405      317.896       41.272        0.120        0.022       42.703        7.187        0.028      345.977       23.894      860.415
07/20/2013  02:54:00      -59.736      -19.190      -12.323       30.384       14.493       12.925      923.164      210.047      167.067        0.269        0.065       62.743        8.163        0.017      345.699       23.416      860.417
07/20/2013  02:55:00     -101.997       -8.028      -13.620       29.961       16.304       13.295      897.671      265.817      176.765        0.600        0.067      102.312       15.598        0.023      345.652       23.335      860.427
07/20/2013  02:56:00      -99.238      -32.996      -12.997       36.102       23.461       18.711     1303.328      550.402      350.110        0.665        0.110      104.580       17.678        0.029      345.581       23.213      860.441
07/20/2013  02:57:00      -73.312      -20.137       -2.677       32.328       40.877       23.458     1045.073     1670.951      550.283        0.453        0.163       76.027       18.076        0.057      345.480       23.039      860.446
07/20/2013  02:58:00      -45.810      -12.188       -0.150       48.534       26.750       20.287     2355.563      715.570      411.544        0.286        0.174       47.404       17.319        0.133      345.568       23.191      860.432
07/20/2013  02:59:00       -1.427      -31.030       -3.951       11.622       13.544       14.787      135.082      183.441      218.646        0.076        0.027       31.063        8.940        0.083      345.712       23.438      860.413
07/20/2013  03:00:00      -65.440      -10.184      -12.084       38.049       13.653       12.196     1447.721      186.400      148.748        0.316        0.089       66.228       19.662        0.088      345.901       23.763      860.397
07/20/2013  03:01:00     -125.850      -27.162      -17.907       26.456       14.373       13.239      699.941      206.581      175.282        0.899        0.054      128.748        9.022        0.005      345.627       23.293      860.415
07/20/2013  03:02:00     -141.433      -27.580       -8.290       44.180       40.877       26.499     1951.897     1670.953      702.203        1.258        0.216      144.097       21.588        0.022      345.426       22.947      860.419
07/20/2013  03:03:00     -139.479       -2.455      -13.448       49.090       39.925       26.486     2409.810     1593.989      701.524        1.217        0.235      139.500       25.094        0.032      345.471       23.024      860.413
07/20/2013  03:04:00        9.493      -47.594       -1.637       34.581       23.322       21.460     1195.872      543.902      460.551        0.228        0.110       48.531        7.209        0.022      345.667       23.361      860.388
07/20/2013  03:05:00      -37.221      -28.123      -13.355       19.658       13.644        7.521      386.423      186.164       56.572        0.149        0.031       46.651        7.376        0.025      345.707       23.429      860.373
07/20/2013  03:06:00      -82.300      -28.904       -9.924       19.728       18.355       12.235      389.199      336.918      149.694        0.429        0.044       87.228        8.874        0.010      345.710       23.435      860.375
07/20/2013  03:07:00      -97.236      -30.756      -10.936       18.918       13.732       14.467      357.876      188.566      209.285        0.564        0.038      101.984       10.002        0.010      345.673       23.372      860.390
07/20/2013  03:08:00      -95.150      -32.669      -10.084       24.416       23.799       14.917      596.143      566.412      222.528        0.580        0.069      100.602       15.853        0.025      345.491       23.060      860.399
07/20/2013  03:09:00      -52.837      -22.012        1.980       33.873       28.904       16.282     1147.356      835.433      265.091        0.276        0.112       57.238       13.180        0.053      345.458       23.002      860.413
07/20/2013  03:10:00       -4.158      -40.349        9.717       28.833       20.180       16.306      831.364      407.245      265.899        0.162        0.075       40.563        6.053        0.022      345.563       23.182      860.423
07/20/2013  03:11:00      -12.851      -35.750        6.755       33.354       16.030       15.353     1112.488      256.974      235.726        0.155        0.080       37.990       20.026        0.278      345.735       23.479      860.421
07/20/2013  03:12:00      -71.197      -51.620       -4.844       39.491       25.674       15.225     1559.518      659.132      231.798        0.510        0.123       87.941       19.585        0.050      345.587       23.224      860.420
07/20/2013  03:13:00      -88.419      -50.405       -6.782       12.542       19.770       13.230      157.297      390.847      175.023        0.556        0.036      101.777        8.890        0.008      345.637       23.307      860.410
07/20/2013  03:14:00      -70.438      -32.747       -7.921        9.279        7.016        5.444       86.107       49.226       29.637        0.313        0.008       77.678        1.096        0.000      345.708       23.433      860.405
07/20/2013  03:15:00      -75.575      -20.078       -9.910       11.060       11.117        6.862      122.326      123.592       47.093        0.325        0.015       78.197        3.459        0.002      345.719       23.452      860.419
07/20/2013  03:16:00     -105.175      -28.365      -10.070       11.217       15.229        9.218      125.830      231.908       84.964        0.621        0.022      108.932        4.516        0.002      345.602       23.250      860.420
07/20/2013  03:17:00      -99.340      -48.259       -8.611       10.952       13.621       10.016      119.948      185.530      100.319        0.634        0.020      110.442        7.352        0.004      345.608       23.261      860.423
07/20/2013  03:18:00     -102.822      -38.330      -12.072        9.989       13.531        8.021       99.771      183.096       64.336        0.627        0.017      109.734        4.279        0.002      345.602       23.251      860.436
07/20/2013  03:19:00     -122.712      -35.903      -14.149       16.083       10.032        8.870      258.675      100.633       78.674        0.849        0.022      127.856        6.275        0.002      345.583       23.218      860.433
07/20/2013  03:20:00     -122.819      -51.087      -11.168       15.588       17.122       13.248      242.992      293.167      175.520        0.927        0.036      133.020        5.251        0.002      345.497       23.070      860.436
07/20/2013  03:21:00     -115.383      -54.454       -8.048       18.332       17.811       14.821      336.073      317.214      219.660        0.861        0.044      127.587        7.907        0.004      345.421       22.937      860.445
07/20/2013  03:22:00      -80.715      -26.706       -4.890       15.653       18.230        9.425      245.026      332.329       88.833        0.396        0.033       85.018        5.826        0.005      345.363       22.841      860.429
07/20/2013  03:23:00      -79.460      -45.274       -7.002       16.335       11.695        9.124      266.823      136.764       83.245        0.445        0.024       91.453        7.353        0.006      345.480       23.040      860.416
07/20/2013  03:24:00      -89.936      -40.241       -8.086       10.841       11.156        9.512      117.535      124.461       90.473        0.505        0.017       98.529        5.050        0.003      345.467       23.015      860.409
07/20/2013  03:25:00      -76.521      -11.373       -5.866       19.283       17.816       12.491      371.848      317.397      156.018        0.343        0.042       77.362       11.926        0.024      345.459       23.004      860.409
07/20/2013  03:26:00      -71.725        5.108       -8.771       13.023        6.739        6.699      169.610       45.416       44.880        0.275        0.013       71.907        2.390        0.001      345.556       23.171      860.405
07/20/2013  03:27:00      -38.286      -16.524       -7.366        9.801       21.104        5.906       96.068      445.372       34.885        0.118        0.029       41.700        5.429        0.017      345.902       23.763      860.402
07/20/2013  03:28:00      -72.950      -43.555       -7.945       30.437       17.509       11.206      926.407      306.548      125.570        0.432        0.068       84.963        4.014        0.002      345.594       23.236      860.393
07/20/2013  03:29:00     -126.724      -38.492      -13.070       12.351       18.221        8.513      152.538      331.996       72.474        0.913        0.028      132.441        7.020        0.003      345.187       22.539      860.402
07/20/2013  03:30:00      -92.794      -11.934       -8.701       16.431       29.134        9.968      269.968      848.817       99.366        0.502        0.061       93.558        7.090        0.006      345.353       22.823      860.410
07/20/2013  03:31:00      -51.328      -34.902        1.912       18.906       16.587       10.430      357.425      275.129      108.788        0.230        0.037       62.070        9.434        0.023      345.543       23.147      860.393
07/20/2013  03:32:00      -95.875      -35.149      -13.904       18.107       11.353        7.651      327.880      128.879       58.539        0.557        0.026      102.114        5.897        0.003      345.259       22.661      860.386
07/20/2013  03:33:00     -113.527      -56.264      -14.573       22.005       14.010       14.709      484.240      196.289      216.354        0.858        0.045      126.705       10.598        0.007      345.326       22.776      860.381
07/20/2013  03:34:00     -101.849      -47.038       -8.258       23.768       19.422        9.225      564.927      377.220       85.100        0.684        0.051      112.187        3.060        0.001      345.165       22.501      860.367
07/20/2013  03:35:00      -82.999      -10.977      -10.353       24.645       12.115       13.383      607.397      146.778      179.115        0.402        0.047       83.722       12.905        0.024      345.229       22.609      860.354
07/20/2013  03:36:00      -81.596       -1.348      -12.908       21.094       19.846       10.944      444.945      393.856      119.767        0.389        0.048       81.607       11.436        0.020      345.280       22.696      860.352
07/20/2013  03:37:00      -75.355      -22.724      -14.020       24.306       20.208       10.310      590.764      408.353      106.301        0.375        0.055       78.707       10.979        0.019      345.386       22.878      860.340
07/20/2013  03:38:00      -75.818      -52.644       -1.516       33.445       25.563       13.338     1118.599      653.476      177.895        0.524        0.097       92.302        5.861        0.004      345.247       22.639      860.345
07/20/2013  03:39:00      -54.516      -13.734       -1.820       13.781       15.739        7.025      189.912      247.707       49.347        0.183        0.024       56.220        4.800        0.007      345.282       22.701      860.369
07/20/2013  03:40:00      -52.956        3.125       -7.947        6.792        9.412        5.341       46.125       88.591       28.526        0.152        0.008       53.048        4.148        0.006      345.622       23.285      860.376
07/20/2013  03:41:00      -46.006       -9.467       -1.175       11.950       19.868        7.559      142.814      394.749       57.131        0.140        0.030       46.970        5.192        0.012      345.649       23.330      860.375
07/20/2013  03:42:00      -36.214      -30.076       -8.065       15.569       12.362        9.804      242.382      152.814       96.119        0.139        0.025       47.075        5.158        0.012      345.554       23.165      860.367
07/20/2013  03:43:00      -45.812      -37.543       -1.534       26.233       19.498        9.139      688.147      380.179       83.529        0.233        0.058       59.230        6.321        0.011      345.323       22.771      860.377
07/20/2013  03:44:00      -97.240      -61.647       -2.140       41.031       31.688       21.346     1683.542     1004.155      455.638        0.820        0.157      115.134       13.203        0.013      345.072       22.340      860.369
07/20/2013  03:45:00      -70.065      -65.311        2.925       44.626       37.914       25.645     1991.439     1437.474      657.687        0.663        0.204       95.784       23.184        0.059      345.072       22.341      860.374
07/20/2013  03:46:00     -132.016      -63.503       -1.097       31.586       25.051       22.736      997.673      627.551      516.906        1.180        0.107      146.495       18.767        0.016      345.176       22.519      860.372
07/20/2013  03:47:00     -107.761      -46.148        0.445       29.650       28.442       19.076      879.148      808.927      363.911        0.790        0.103      117.226       15.934        0.018      345.232       22.615      860.379
07/20/2013  03:48:00      -63.014      -15.432        4.646       45.064       27.157       19.348     2030.773      737.504      374.327        0.369        0.157       64.876       20.909        0.104      345.135       22.450      860.369
07/20/2013  03:49:00      -72.521        9.406        3.895       29.761       32.466       17.670      885.726     1054.020      312.215        0.381        0.113       73.128       15.798        0.047      345.190       22.543      860.357
07/20/2013  03:50:00      -65.547      -23.325       -4.735       25.707       27.447       10.865      660.875      753.331      118.053        0.320        0.077       69.574        9.900        0.020      345.250       22.646      860.356
07/20/2013  03:51:00      -87.438      -47.991        2.679       31.750       22.533       19.979     1008.041      507.741      399.149        0.593        0.096       99.742       18.950        0.036      345.064       22.327      860.377
07/20/2013  03:52:00      -68.832      -36.892        4.378       43.958       30.010       19.444     1932.315      900.622      378.067        0.466        0.161       78.095       19.352        0.061      345.099       22.387      860.377
07/20/2013  03:53:00      -87.700      -36.456        1.605       27.499       20.660       14.545      756.204      426.856      211.549        0.521        0.070       94.976       16.007        0.028      345.142       22.460      860.374
07/20/2013  03:54:00     -106.553      -31.601       -6.792       17.948       16.230       11.336      322.143      263.423      128.510        0.656        0.036      111.140       10.998        0.010      345.222       22.597      860.393
07/20/2013  03:55:00     -103.183      -18.837       -0.055       39.658       23.820       19.187     1572.770      567.416      368.144        0.675        0.125      104.888       21.565        0.042      345.182       22.530      860.397
07/20/2013  03:56:00     -113.560      -25.764       -6.284       22.583       17.159       13.818      509.997      294.431      190.949        0.730        0.050      116.446       10.557        0.008      345.303       22.735      860.381
07/20/2013  03:57:00      -91.875      -19.159        0.359       34.285       22.612       16.707     1175.455      511.295      279.137        0.539        0.098       93.851       15.239        0.026      345.137       22.453      860.371
07/20/2013  03:58:00      -62.373      -25.097        2.705       31.449       26.769       15.733      989.060      716.587      247.527        0.324        0.098       67.233       17.594        0.068      345.075       22.348      860.365
07/20/2013  03:59:00      -32.096      -23.958        9.672       29.977       18.023       14.590      898.621      324.827      212.857        0.157        0.072       40.052       15.240        0.145      345.155       22.483      860.341
07/20/2013  04:00:00      -54.430      -38.904        4.049       37.892       27.075       18.170     1435.795      733.044      330.154        0.350        0.125       66.904       20.623        0.095      345.114       22.415      860.326
07/20/2013  04:01:00      -70.450      -23.175       -1.213       23.636       24.892       11.674      558.681      619.630      136.282        0.341        0.066       74.164        5.034        0.005      345.018       22.250      860.338
07/20/2013  04:02:00      -76.118      -37.200        1.382       21.314       25.210       15.183      454.300      635.522      230.514        0.425        0.066       84.722       11.921        0.020      344.945       22.124      860.350
07/20/2013  04:03:00      -41.167        4.309       -0.383       33.613       23.905       12.534     1129.827      571.465      157.097        0.179        0.093       41.392        9.411        0.052      344.835       21.934      860.347
07/20/2013  04:04:00      -60.103      -28.183       -1.715       31.801       19.149       12.302     1011.316      366.684      151.348        0.297        0.076       66.383       12.006        0.033      344.865       21.988      860.355
07/20/2013  04:05:00      -33.626      -52.481        4.488       31.710       18.477       14.916     1005.509      341.389      222.489        0.274        0.078       62.330        7.294        0.014      345.024       22.261      860.344
07/20/2013  04:06:00      -21.876      -26.551        9.794       28.136       18.322       17.568      791.644      335.699      308.633        0.136        0.072       34.402       17.983        0.273      345.023       22.259      860.338
07/20/2013  04:07:00      -68.381      -26.554       -0.201       21.412       16.590       12.029      458.458      275.221      144.691        0.313        0.044       73.356       11.234        0.023      345.071       22.340      860.355
07/20/2013  04:08:00      -65.387        5.368        0.978       11.073       15.991        9.612      122.602      255.699       92.393        0.239        0.024       65.607        7.925        0.015      344.932       22.103      860.361
07/20/2013  04:09:00      -69.063       -7.176       -4.553       19.045       10.331        7.932      362.717      106.730       62.913        0.269        0.027       69.435        6.335        0.008      344.932       22.102      860.353
07/20/2013  04:10:00      -51.019      -21.295       -5.129       10.002       12.973        8.147      100.047      168.305       66.381        0.171        0.017       55.285        3.978        0.005      344.866       21.988      860.360
07/20/2013  04:11:00      -59.021      -12.620       -2.908       10.828       12.179        8.127      117.246      148.335       66.056        0.199        0.017       60.355        4.610        0.006      344.845       21.954      860.363
07/20/2013  04:12:00      -70.198      -22.785        0.435       16.932       15.115        9.379      286.682      228.463       87.966        0.302        0.030       73.803        6.197        0.007      344.947       22.126      860.360
07/20/2013  04:13:00      -58.930      -31.884       -6.450       17.410       15.283       10.804      303.119      233.577      116.728        0.259        0.033       67.002       10.269        0.023      344.896       22.042      860.360
07/20/2013  04:14:00      -84.934      -15.106      -12.396       16.537       12.625       11.061      273.467      159.383      122.355        0.408        0.028       86.267        9.438        0.012      344.902       22.049      860.358
07/20/2013  04:15:00      -93.761       -8.200       -4.417       26.062       16.303       13.105      679.215      265.804      171.734        0.500        0.056       94.119       13.038        0.019      344.884       22.020      860.352
07/20/2013  04:16:00     -113.040      -45.233       -2.848       21.701       34.912       19.899      470.922     1218.830      395.955        0.846        0.104      121.754       11.690        0.009      344.773       21.829      860.351
07/20/2013  04:17:00     -111.460      -58.831       -3.949       18.973       22.425       14.881      359.993      502.867      221.453        0.849        0.054      126.033        8.118        0.004      344.532       21.417      860.343
07/20/2013  04:18:00     -103.312      -42.366       -3.643       25.776       31.881       19.592      664.422     1016.391      383.861        0.727        0.103      111.661       15.252        0.019      344.481       21.331      860.330
07/20/2013  04:19:00     -111.286      -20.752       -3.502       34.454       21.011       18.665     1187.045      441.481      348.391        0.740        0.099      113.204       18.421        0.026      344.448       21.273      860.310
07/20/2013  04:20:00      -92.366      -29.491       -5.670       25.583       19.164       14.948      654.493      367.264      223.450        0.534        0.062       96.959       12.153        0.016      344.601       21.536      860.293
07/20/2013  04:21:00      -79.148      -33.769        1.298       21.350       20.048        9.880      455.814      401.925       97.612        0.418        0.048       86.051        8.021        0.009      344.652       21.623      860.283
07/20/2013  04:22:00      -89.495       -7.937       -4.453       14.998       18.130       13.971      224.953      328.697      195.190        0.442        0.037       89.846        9.278        0.011      344.668       21.651      860.281
07/20/2013  04:23:00      -52.494      -13.872        0.356       22.940       17.312       12.536      526.223      299.697      157.148        0.197        0.049       54.296       12.656        0.054      344.662       21.640      860.283
07/20/2013  04:24:00      -79.378      -35.749       -5.448       15.430       15.980        9.375      238.100      255.358       87.883        0.409        0.029       87.057        6.742        0.006      344.610       21.551      860.275
07/20/2013  04:25:00      -62.961      -45.792       -1.683       19.828       13.587       14.013      393.133      184.612      196.378        0.342        0.039       77.852       10.595        0.019      344.655       21.629      860.264
07/20/2013  04:26:00      -98.152      -21.259       -4.206       15.769       18.744       12.182      248.672      351.354      148.398        0.543        0.037      100.428        7.085        0.005      344.621       21.569      860.258
07/20/2013  04:27:00      -76.254      -19.937       -4.860       33.934       22.732       13.500     1151.510      516.745      182.259        0.404        0.093       78.817       16.617        0.044      344.438       21.256      860.275
07/20/2013  04:28:00      -83.972       -9.773       -3.266       34.941       20.897       16.945     1220.867      436.682      287.140        0.455        0.097       84.539       18.178        0.046      344.379       21.155      860.289
07/20/2013  04:29:00     -110.707      -31.663      -13.467       23.878       31.261       13.684      570.161      977.276      187.249        0.759        0.087      115.146       11.827        0.011      344.435       21.250      860.296
07/20/2013  04:30:00      -39.875      -39.133        2.489       31.990       28.274       19.686     1023.384      799.396      387.529        0.267        0.111       55.870       17.136        0.094      344.351       21.107      860.320
07/20/2013  04:31:00       -2.226      -15.784        7.905       24.164       20.406       16.216      583.919      416.415      262.972        0.079        0.063       15.940        7.033        0.195      344.253       20.942      860.319
07/20/2013  04:32:00      -16.874      -13.220        0.364       19.247        9.697       10.844      370.462       94.022      117.600        0.052        0.029       21.436       11.032        0.265      344.384       21.166      860.329
07/20/2013  04:33:00      -48.425      -16.021        1.474       17.424       10.457        8.874      303.612      109.354       78.755        0.155        0.025       51.006        9.822        0.037      344.618       21.565      860.349
07/20/2013  04:34:00      -56.193      -15.217       -2.964       11.403       13.319        7.352      130.022      177.406       54.050        0.188        0.018       58.217        5.313        0.008      344.614       21.557      860.354
07/20/2013  04:35:00      -86.218      -18.486       -7.935        8.769       15.329        8.909       76.894      234.984       79.367        0.411        0.020       88.177        5.187        0.003      344.647       21.614      860.368
07/20/2013  04:36:00      -87.941      -13.946       -7.644       13.630       15.176       12.129      185.775      230.321      147.119        0.427        0.028       89.040        8.250        0.009      344.491       21.346      860.380
07/20/2013  04:37:00      -93.712      -23.196       -3.679       15.021       18.491       10.670      225.617      341.928      113.847        0.501        0.034       96.540        4.577        0.002      344.454       21.284      860.375
07/20/2013  04:38:00      -90.634      -16.881       -5.234       19.673       12.676       11.167      387.007      160.684      124.702        0.460        0.034       92.193        6.886        0.006      344.467       21.306      860.380
07/20/2013  04:39:00     -101.677      -22.470       -6.284       13.322       11.843       11.286      177.475      140.250      127.372        0.566        0.022      104.130        6.557        0.004      344.416       21.220      860.375
07/20/2013  04:40:00      -95.891      -25.488       -0.722       13.970       16.241        9.548      195.175      263.765       91.159        0.520        0.028       99.221        6.431        0.004      344.399       21.190      860.366
07/20/2013  04:41:00      -94.244      -47.940       -4.583       18.150       11.023        7.169      329.417      121.499       51.394        0.585        0.025      105.736        5.274        0.002      344.348       21.103      860.365
07/20/2013  04:42:00      -64.482      -36.523       -4.882       22.576       18.028       15.267      509.682      325.020      233.076        0.329        0.053       74.107        8.300        0.013      344.344       21.095      860.377
07/20/2013  04:43:00      -57.732      -39.076        5.710       35.176       17.807       16.248     1237.325      317.106      263.991        0.336        0.091       69.713       20.483        0.086      344.427       21.239      860.379
07/20/2013  04:44:00      -52.635      -35.234        1.573       26.265       15.134       17.318      689.869      229.048      299.925        0.262        0.061       63.339       16.698        0.069      344.433       21.247      860.388
07/20/2013  04:45:00     -114.164      -42.981      -11.201       22.328       16.252        8.392      498.534      264.139       70.427        0.792        0.042      121.987        4.907        0.002      344.380       21.159      860.416
07/20/2013  04:46:00     -113.277      -22.248       -5.768       33.259       28.443       20.812     1106.167      809.024      433.129        0.785        0.117      115.441       21.045        0.033      344.187       20.828      860.437
07/20/2013  04:47:00      -80.560      -13.106       -1.782       34.963       26.698       15.916     1222.446      712.786      253.317        0.443        0.109       81.619       15.438        0.036      344.153       20.769      860.466
07/20/2013  04:48:00      -69.992      -28.684        1.286       21.155       22.632       13.164      447.518      512.216      173.287        0.343        0.057       75.641       12.924        0.029      344.243       20.923      860.484
07/20/2013  04:49:00      -43.870      -51.367       -4.284       18.793       15.414       12.756      353.190      237.583      162.710        0.267        0.038       67.551       10.103        0.022      344.428       21.238      860.482
07/20/2013  04:50:00      -50.752      -36.744        0.322       38.290       22.451       16.675     1466.113      504.051      278.071        0.309        0.112       62.657       20.326        0.105      344.549       21.447      860.477
07/20/2013  04:51:00      -69.372        1.818       -2.902       23.773       24.069       13.174      565.145      579.317      173.562        0.307        0.066       69.395       10.947        0.025      344.438       21.258      860.499
07/20/2013  04:52:00      -84.594       25.323       -5.847       25.394       18.198       14.310      644.869      331.155      204.770        0.451        0.059       88.303       12.106        0.019      344.149       20.766      860.510
07/20/2013  04:53:00      -67.979      -30.493       -5.252       26.415       25.807       13.836      697.762      666.003      191.430        0.357        0.078       74.505       13.381        0.032      344.235       20.909      860.515
07/20/2013  04:54:00      -72.162      -34.908       -4.291       24.347       15.117       14.907      592.799      228.537      222.204        0.374        0.052       80.162       11.795        0.022      344.409       21.207      860.532
07/20/2013  04:55:00      -65.548      -32.209       -4.897       28.218       15.045       12.538      796.280      226.362      157.214        0.327        0.059       73.034        7.313        0.010      344.339       21.088      860.532
07/20/2013  04:56:00      -93.513      -36.498       -6.607       22.728       12.952       11.376      516.547      167.742      129.402        0.547        0.041      100.383        9.220        0.008      344.180       20.816      860.543
07/20/2013  04:57:00     -130.115      -21.631      -17.752       14.617       11.300       13.472      213.668      127.694      181.498        0.912        0.026      131.901       10.028        0.006      344.348       21.102      860.546
07/20/2013  04:58:00     -120.481      -22.913      -18.586       16.227       15.838       14.373      263.300      250.831      206.572        0.805        0.036      122.640        9.519        0.006      344.329       21.071      860.547
07/20/2013  04:59:00     -112.299      -23.516       -7.256       24.467       19.427       13.641      598.633      377.401      186.074        0.719        0.058      114.735       11.727        0.010      344.217       20.878      860.542
07/20/2013  05:00:00      -99.399      -27.699       -4.403       24.948       19.269       11.800      622.414      371.313      139.249        0.590        0.057      103.187        8.657        0.007      344.240       20.918      860.537
07/20/2013  05:01:00      -63.175       -5.060        2.814       35.418       20.175       14.631     1254.419      407.029      214.067        0.295        0.094       63.377       17.688        0.078      344.199       20.847      860.546
07/20/2013  05:02:00     -104.913      -20.695       -4.675       29.211       19.580       16.059      853.254      383.376      257.907        0.648        0.075      106.935       13.943        0.017      344.305       21.029      860.553
07/20/2013  05:03:00     -126.361      -29.773      -11.109       23.100       27.243       15.979      533.633      742.207      255.318        0.925        0.077      129.821       12.966        0.010      344.301       21.021      860.546
07/20/2013  05:04:00     -100.222      -42.446        2.907       36.544       35.617       20.994     1335.430     1268.543      440.738        0.745        0.152      108.839       20.218        0.035      344.169       20.797      860.536
07/20/2013  05:05:00     -100.699      -22.013        0.558       36.250       26.943       15.032     1314.081      725.941      225.973        0.645        0.113      103.077       14.540        0.020      344.225       20.893      860.536
07/20/2013  05:06:00     -108.825      -16.921        0.684       46.750       26.438       19.803     2185.575      698.982      392.166        0.770        0.164      110.133       18.701        0.029      344.200       20.849      860.544
07/20/2013  05:07:00     -114.475      -26.861       -3.513       36.085       32.142       17.617     1302.095     1033.138      310.365        0.824        0.132      117.584       17.124        0.021      344.176       20.808      860.545
07/20/2013  05:08:00     -121.973      -49.955       -6.231       29.734       33.538       18.244      884.085     1124.773      332.832        0.988        0.117      131.806       13.580        0.011      344.065       20.619      860.542
07/20/2013  05:09:00     -129.906      -70.036       -0.955       35.009       32.917       20.820     1225.656     1083.547      433.483        1.226        0.137      147.582       18.053        0.015      344.036       20.570      860.552
07/20/2013  05:10:00      -94.612      -40.872        0.479       42.767       34.693       24.369     1829.058     1203.573      593.862        0.712        0.181      103.063       18.066        0.031      344.113       20.701      860.571
07/20/2013  05:11:00     -100.439      -33.861        0.333       41.586       34.367       22.565     1729.409     1181.091      509.188        0.733        0.171      105.993       15.992        0.023      344.093       20.667      860.579
07/20/2013  05:12:00     -122.679      -45.213       -5.301       27.246       36.009       20.683      742.328     1296.637      427.781        0.979        0.123      130.745       19.321        0.022      344.137       20.742      860.601
07/20/2013  05:13:00     -118.930      -24.414       -7.283       41.252       35.100       22.956     1701.735     1232.036      526.975        0.913        0.173      121.410       15.810        0.017      344.020       20.543      860.618
07/20/2013  05:14:00     -106.713      -56.085       -2.039       40.289       25.769       17.938     1623.164      664.058      321.758        0.857        0.130      120.553       20.881        0.030      344.117       20.709      860.610
07/20/2013  05:15:00      -95.436       -7.807       -0.918       50.873       25.628       22.221     2588.019      656.771      493.768        0.645        0.187       95.755       26.745        0.078      344.009       20.523      860.616
07/20/2013  05:16:00      -81.353      -15.264       -0.888       41.643       28.360       20.378     1734.181      804.297      415.269        0.490        0.148       82.772       20.814        0.063      343.979       20.473      860.624
07/20/2013  05:17:00     -118.143      -27.776       -5.230       41.815       24.531       17.784     1748.458      601.751      316.280        0.871        0.133      121.364       19.868        0.027      344.015       20.535      860.630
07/20/2013  05:18:00     -114.880      -42.563       -9.848       29.150       27.569       20.354      849.716      760.030      414.298        0.856        0.101      122.512       13.816        0.013      344.052       20.598      860.638
07/20/2013  05:19:00     -114.774      -23.605       -1.530       41.288       27.384       21.729     1704.674      749.879      472.156        0.833        0.146      117.176       21.528        0.034      344.042       20.580      860.632
07/20/2013  05:20:00     -124.503      -54.122        0.097       25.120       22.415       13.245      631.036      502.419      175.439        0.987        0.065      135.758       11.848        0.008      344.139       20.746      860.621
07/20/2013  05:21:00     -126.022      -50.486       -5.638       17.103       13.550       11.878      292.510      183.602      141.093        0.954        0.031      135.759        5.379        0.002      344.115       20.703      860.624
07/20/2013  05:22:00     -100.723      -56.335        2.372       31.022       25.474       21.094      962.354      648.901      444.937        0.769        0.103      115.406       20.265        0.031      343.992       20.495      860.611
07/20/2013  05:23:00      -79.623      -51.258        9.242       46.743       36.777       24.234     2184.914     1352.513      587.270        0.659        0.206       94.695       27.646        0.085      343.939       20.405      860.598
07/20/2013  05:24:00      -73.188      -63.245        4.680       44.571       28.951       25.373     1986.608      838.160      643.814        0.642        0.173       96.729       16.930        0.031      344.073       20.631      860.606
07/20/2013  05:25:00     -102.586      -54.828        1.828       42.109       26.938       21.118     1773.134      725.644      445.964        0.824        0.147      116.318       22.628        0.038      343.994       20.498      860.616
07/20/2013  05:26:00     -139.297      -28.473       -6.424       23.498       30.612       18.831      552.175      937.066      354.609        1.105        0.092      142.177       15.492        0.012      343.906       20.348      860.618
07/20/2013  05:27:00     -106.826      -37.053        2.046       42.694       22.788       13.625     1822.791      519.278      185.633        0.766        0.126      113.069       13.518        0.014      343.821       20.202      860.615
07/20/2013  05:28:00     -127.501      -40.615       -0.709       48.225       30.634       19.210     2325.627      938.422      369.014        1.077        0.182      133.813       21.877        0.027      343.785       20.141      860.622
07/20/2013  05:29:00     -168.077      -38.311       -6.971       39.339       28.563       24.193     1547.534      815.818      585.282        1.636        0.147      172.388       25.274        0.021      343.620       19.860      860.612
07/20/2013  05:30:00     -176.675      -45.298       -7.489       33.583       25.458       22.284     1127.809      648.121      496.561        1.780        0.114      182.390       22.880        0.016      343.686       19.974      860.605
07/20/2013  05:31:00     -141.268      -34.694       -6.137       41.502       38.014       28.015     1722.397     1445.090      784.818        1.257        0.198      145.466       23.800        0.027      343.847       20.246      860.609
07/20/2013  05:32:00     -113.636      -26.676        0.887       39.778       31.668       25.401     1582.317     1002.833      645.216        0.843        0.162      116.725       23.572        0.041      344.022       20.545      860.613
07/20/2013  05:33:00     -157.461      -11.289       -6.753       42.570       34.137       23.870     1812.165     1165.355      569.798        1.426        0.177      157.865       24.142        0.023      344.139       20.747      860.614
07/20/2013  05:34:00     -166.065      -26.178      -19.109       42.481       26.353       18.298     1804.677      694.482      334.822        1.573        0.142      168.116       15.010        0.008      344.344       21.095      860.628
07/20/2013  05:35:00     -155.684      -28.831      -10.824       36.135       29.482       20.167     1305.763      869.174      406.696        1.388        0.129      158.331       17.171        0.012      344.645       21.611      860.622
07/20/2013  05:36:00     -153.344      -15.600      -15.457       39.019       24.573       22.789     1522.444      603.809      519.333        1.332        0.132      154.136       23.302        0.023      344.592       21.521      860.613
07/20/2013  05:37:00     -195.840       13.230      -18.307       22.871       26.920       17.808      523.066      724.696      317.140        2.021        0.078      196.287        8.449        0.002      344.921       22.083      860.623
07/20/2013  05:38:00     -154.160       12.788      -13.461       23.095       24.107       15.575      533.379      581.146      242.589        1.273        0.068      154.689       13.623        0.008      344.705       21.713      860.639
07/20/2013  05:39:00     -176.773      -35.865      -19.022       30.757       22.212       19.674      946.004      493.361      387.050        1.736        0.091      180.374       16.496        0.008      344.371       21.142      860.644
07/20/2013  05:40:00     -170.788       -3.693      -15.139       19.460       21.314       12.838      378.696      454.287      164.827        1.520        0.050      170.828        9.445        0.003      344.548       21.445      860.656
07/20/2013  05:41:00     -155.277        0.230      -12.123       14.401       15.490       10.786      207.382      239.928      116.337        1.241        0.028      155.277        7.966        0.003      344.816       21.904      860.678
07/20/2013  05:42:00     -118.232       -5.138      -10.532       29.453       32.513       16.506      867.499     1057.124      272.445        0.816        0.110      118.343       13.675        0.013      344.710       21.722      860.694
07/20/2013  05:43:00     -124.314       31.473       -6.076       28.363       18.009       13.833      804.474      324.315      191.354        0.890        0.066      128.236       11.997        0.009      344.634       21.593      860.702
07/20/2013  05:44:00     -126.783       43.840      -11.121       39.198       18.247       17.353     1536.499      332.954      301.112        1.014        0.109      134.149       15.315        0.013      344.535       21.423      860.704
07/20/2013  05:45:00      -65.376       27.924       -5.758       41.119       25.407       17.102     1690.739      645.498      292.479        0.386        0.131       71.090       10.173        0.020      344.623       21.574      860.712
07/20/2013  05:46:00      -69.844       14.125        1.014       38.974       19.837       16.609     1518.937      393.503      275.874        0.363        0.109       71.258       14.157        0.039      344.532       21.417      860.705
07/20/2013  05:47:00     -104.092       -5.559       -7.025       34.199       23.295       17.354     1169.557      542.643      301.152        0.646        0.101      104.240       18.993        0.033      344.333       21.077      860.702
07/20/2013  05:48:00     -108.603        4.118      -10.399       35.336       35.911       18.099     1248.615     1289.631      327.585        0.739        0.143      108.681       12.360        0.013      344.034       20.567      860.707
07/20/2013  05:49:00     -155.421       19.280      -17.409       29.988       26.378       17.965      899.259      695.805      322.752        1.337        0.096      156.612       12.143        0.006      344.080       20.647      860.716
07/20/2013  05:50:00     -107.985       -8.520      -13.404       34.939       29.086       16.745     1220.712      845.976      280.392        0.713        0.117      108.320       14.550        0.018      344.029       20.558      860.708
07/20/2013  05:51:00      -87.635       -8.267       -4.525       33.140       25.886       18.733     1098.244      670.094      350.915        0.494        0.106       88.024       19.104        0.047      344.044       20.583      860.687
07/20/2013  05:52:00      -86.879      -30.850      -10.402       33.388       22.459       16.676     1114.745      504.419      278.095        0.525        0.095       92.194       15.540        0.028      344.004       20.516      860.682
07/20/2013  05:53:00      -92.046       -3.279       -8.946       29.004       35.671       21.603      841.219     1272.414      466.683        0.557        0.129       92.104       19.104        0.043      343.989       20.488      860.687
07/20/2013  05:54:00     -108.163      -32.920      -12.893       27.736       38.140       18.040      769.279     1454.625      325.447        0.775        0.127      113.062       14.177        0.016      344.090       20.663      860.680
07/20/2013  05:55:00     -128.876      -35.340      -10.051       33.516       33.341       18.078     1123.315     1111.626      326.828        1.026        0.128      133.634       17.761        0.018      344.028       20.557      860.660
07/20/2013  05:56:00     -114.963      -30.227       -4.872       46.155       30.729       16.801     2130.239      944.255      282.258        0.875        0.168      118.870       18.210        0.023      344.267       20.964      860.636
07/20/2013  05:57:00     -103.916      -12.516      -10.345       34.049       25.754       15.562     1159.325      663.252      242.167        0.656        0.103      104.667       16.748        0.026      344.120       20.713      860.634
07/20/2013  05:58:00     -111.374      -27.985       -8.790       30.187       22.167       16.891      911.270      491.367      285.322        0.748        0.084      114.836       15.061        0.017      344.105       20.686      860.627
07/20/2013  05:59:00      -65.938      -25.606        1.276       16.808       19.886       11.630      282.512      395.459      135.258        0.291        0.041       70.735        9.510        0.018      344.170       20.799      860.622
07/20/2013  06:00:00      -46.566      -38.506        8.335       27.131       21.386       15.769      736.099      457.358      248.662        0.258        0.072       60.424       13.613        0.051      344.402       21.197      860.616
07/20/2013  06:01:00      -64.468      -27.450       -3.351       16.063       20.312       11.102      258.029      412.580      123.251        0.286        0.040       70.069        6.861        0.010      344.475       21.320      860.607
07/20/2013  06:02:00      -87.644      -14.489       -5.897       15.365       26.795        7.741      236.085      717.951       59.931        0.447        0.051       88.833        8.926        0.010      344.316       21.048      860.611
07/20/2013  06:03:00      -59.770      -32.648       -3.252       28.584       35.167       11.407      817.062     1236.691      130.128        0.342        0.109       68.105        7.032        0.011      344.261       20.954      860.614
07/20/2013  06:04:00      -16.880      -10.632       -1.836       16.213       13.293        7.485      262.851      176.693       56.026        0.045        0.025       19.949        9.108        0.208      344.240       20.921      860.599
07/20/2013  06:05:00      -56.413      -18.442       -8.865       15.392       12.734        6.473      236.910      162.167       41.896        0.202        0.022       59.351        3.491        0.003      344.295       21.011      860.590
07/20/2013  06:06:00      -73.051      -16.969       -7.787       19.311       18.999        9.126      372.903      360.961       83.288        0.325        0.041       74.996        5.134        0.005      344.258       20.949      860.593
07/20/2013  06:07:00      -78.924      -43.600       -0.133       34.707       17.929       14.522     1204.545      321.446      210.898        0.493        0.087       90.167       10.947        0.015      344.157       20.779      860.593
07/20/2013  06:08:00      -18.417      -23.672        4.658       30.204       27.658       11.913      912.279      764.972      141.922        0.137        0.091       29.992       10.396        0.120      344.158       20.778      860.586
07/20/2013  06:09:00      -77.484      -49.440       -1.245       34.692       26.875       17.718     1203.562      722.252      313.931        0.534        0.112       91.914       14.388        0.025      344.210       20.867      860.593
07/20/2013  06:10:00      -48.783      -45.201        0.020       26.109       26.802       15.595      681.700      718.351      243.207        0.303        0.082       66.505       10.966        0.027      344.146       20.758      860.602
07/20/2013  06:11:00      -85.651      -35.331       -1.128       16.772       16.345       11.248      281.284      267.167      126.511        0.463        0.034       92.652        8.286        0.008      344.217       20.879      860.604
07/20/2013  06:12:00     -117.423      -41.426      -10.368       30.257       21.373       15.574      915.491      456.802      242.556        0.861        0.081      124.516       17.805        0.020      344.277       20.982      860.613
07/20/2013  06:13:00     -101.705      -52.733       -7.501       20.349       18.336       14.433      414.090      336.194      208.314        0.707        0.048      114.563        9.878        0.007      344.257       20.947      860.612
07/20/2013  06:14:00      -82.855      -37.523       -5.462       24.779       20.724       16.815      613.990      429.483      282.755        0.481        0.066       90.956       16.034        0.031      344.225       20.894      860.613
07/20/2013  06:15:00      -53.193      -30.109        9.881       41.794       25.882       21.307     1746.780      669.885      453.977        0.335        0.144       61.123       22.296        0.133      344.178       20.811      860.614
07/20/2013  06:16:00      -58.432      -62.638        7.992       45.387       31.944       24.631     2060.002     1020.412      606.691        0.554        0.184       85.661       22.680        0.070      344.294       21.011      860.606
07/20/2013  06:17:00      -51.919      -67.541        3.469       41.978       32.650       28.350     1762.151     1066.042      803.734        0.545        0.182       85.190       28.008        0.108      344.387       21.170      860.600
07/20/2013  06:18:00      -66.090      -46.281       -2.020       35.051       41.404       15.713     1228.575     1714.329      246.887        0.485        0.159       80.684       17.138        0.045      344.495       21.356      860.599
07/20/2013  06:19:00      -89.887      -58.412       -5.576       41.132       38.597       23.820     1691.867     1489.720      567.407        0.764        0.187      107.199       20.362        0.036      344.514       21.387      860.602
07/20/2013  06:20:00     -112.797      -29.571       -9.815       28.198       20.287       16.619      795.104      411.549      276.190        0.759        0.074      116.608       12.872        0.012      344.349       21.106      860.605
07/20/2013  06:21:00      -54.286      -53.250       -1.053       37.922       21.421       14.618     1438.093      458.850      213.683        0.395        0.106       76.043       17.799        0.055      344.312       21.041      860.594
07/20/2013  06:22:00      -36.494      -62.260        7.899       53.338       42.995       30.695     2844.964     1848.559      942.154        0.545        0.282       72.167       33.979        0.222      344.312       21.041      860.589
07/20/2013  06:23:00      -71.590      -70.310        4.479       35.390       31.753       21.120     1252.429     1008.273      446.068        0.640        0.135      100.343       23.453        0.055      344.310       21.038      860.575
07/20/2013  06:24:00      -69.792      -47.486        3.695       29.579       25.876       17.688      874.922      669.586      312.849        0.450        0.093       84.415       16.008        0.036      344.347       21.102      860.580
07/20/2013  06:25:00      -27.039      -15.255       13.925       31.250       23.245       16.331      976.580      540.309      266.694        0.147        0.089       31.045       19.454        0.393      344.421       21.228      860.594
07/20/2013  06:26:00      -76.297      -59.660        2.155       45.476       30.860       18.712     2068.069      952.316      350.143        0.638        0.169       96.853       18.632        0.037      344.343       21.095      860.615
07/20/2013  06:27:00      -66.500      -40.639        2.324       47.023       28.891       22.987     2211.182      834.702      528.399        0.483        0.179       77.935       22.794        0.086      344.289       21.004      860.641
07/20/2013  06:28:00     -123.354     -103.652       -8.527       64.239       41.080       30.453     4126.652     1687.564      927.369        1.639        0.337      161.121       27.022        0.028      344.144       20.753      860.662
07/20/2013  06:29:00     -103.005      -82.192       -3.250       57.830       56.295       30.410     3344.277     3169.146      924.740        1.241        0.372      131.779       27.825        0.045      344.127       20.726      860.696
07/20/2013  06:30:00     -110.301      -96.115       -1.760       57.714       44.798       28.862     3330.959     2006.898      832.999        1.379        0.309      146.302       29.146        0.040      344.177       20.810      860.718
07/20/2013  06:31:00      -73.053      -72.182        7.015       50.017       34.270       23.604     2501.663     1174.420      557.166        0.741        0.212      102.698       24.496        0.057      344.219       20.882      860.726
07/20/2013  06:32:00      -63.755      -81.139       -7.944       41.724       51.409       24.912     1740.887     2642.914      620.583        0.786        0.250      103.190        7.050        0.005      344.136       20.741      860.726
07/20/2013  06:33:00      -90.004      -93.955      -13.114       38.688       31.302       20.703     1496.759      979.817      428.629        1.000        0.145      130.109       10.511        0.007      344.169       20.799      860.732
07/20/2013  06:34:00     -108.760      -86.801      -18.609       40.956       38.331       22.604     1677.375     1469.286      510.921        1.168        0.183      139.152       18.958        0.019      344.118       20.709      860.728
07/20/2013  06:35:00      -94.295      -69.610        0.034       21.041       17.829       19.895      442.739      317.875      395.795        0.745        0.058      117.205       15.912        0.018      344.203       20.854      860.710
07/20/2013  06:36:00      -78.060      -80.168       -7.684       20.929       22.868       14.079      438.009      522.928      198.211        0.687        0.058      111.894       11.278        0.010      344.175       20.807      860.705
07/20/2013  06:37:00      -73.542      -57.038        1.102       38.261       25.467       19.533     1463.904      648.554      381.542        0.558        0.125       93.069       18.935        0.041      344.232       20.905      860.707
07/20/2013  06:38:00       -8.245        1.677       13.329       13.802       20.700       11.030      190.499      428.478      121.657        0.049        0.037        8.414        6.713        0.637      344.447       21.274      860.698
07/20/2013  06:39:00        0.762       -5.833        7.736       10.072       14.351        9.680      101.449      205.959       93.708        0.025        0.020        5.883        6.946        1.394      344.408       21.204      860.696
07/20/2013  06:40:00      -11.383       -8.878        9.866       28.144       19.387       14.449      792.070      375.846      208.775        0.084        0.069       14.436       13.354        0.856      344.518       21.393      860.709
07/20/2013  06:41:00       -6.981      -28.602        6.392       18.162       20.715       14.858      329.867      429.120      220.771        0.094        0.049       29.442       11.977        0.165      344.617       21.562      860.720
07/20/2013  06:42:00      -15.557      -46.589        9.123        8.835       11.383        8.304       78.053      129.575       68.953        0.139        0.014       49.118        3.001        0.004      344.486       21.341      860.724
07/20/2013  06:43:00      -13.566      -27.629        3.242       15.311       19.127       15.397      234.432      365.844      237.067        0.090        0.042       30.780       13.075        0.180      344.565       21.473      860.744
07/20/2013  06:44:00      -19.975      -25.542        1.047       23.431       31.349       22.119      548.992      982.767      489.240        0.154        0.101       32.425       20.805        0.412      344.586       21.510      860.750
07/20/2013  06:45:00      -20.452       -5.734        8.460       25.233       17.245       13.983      636.716      297.400      195.525        0.083        0.056       21.241       11.408        0.288      344.559       21.463      860.769
07/20/2013  06:46:00       -8.503      -40.069        5.232       26.708       30.976       17.861      713.341      959.508      319.003        0.185        0.100       40.961       12.362        0.091      344.435       21.253      860.799
07/20/2013  06:47:00       -7.929      -30.386        6.813       22.232       31.431       20.364      494.254      987.913      414.685        0.146        0.095       31.404        6.700        0.046      344.488       21.341      860.803
07/20/2013  06:48:00        0.896       -3.471        7.551       12.957       16.068       11.983      167.877      258.169      143.597        0.032        0.028        3.585        8.504        5.627      344.589       21.515      860.824
07/20/2013  06:49:00       -0.382        3.701        6.541        9.033        9.088        9.326       81.593       82.595       86.968        0.015        0.013        3.721        8.095        4.734      344.748       21.786      860.838
07/20/2013  06:50:00      -21.924       -0.488        1.338       16.130       17.133       17.299      260.179      293.545      299.243        0.067        0.043       21.930       12.523        0.326      344.603       21.538      860.840
07/20/2013  06:51:00        1.083       -5.072       10.312       14.091       23.090       19.083      198.547      533.139      364.164        0.061        0.055        5.186       14.817        8.162      344.781       21.843      860.845
07/20/2013  06:52:00       11.318       -7.969        7.342       11.900        9.515       11.676      141.615       90.543      136.331        0.031        0.018       13.842        7.489        0.293      344.850       21.964      860.836
07/20/2013  06:53:00        1.481      -15.299        1.861       16.616       19.777       16.253      276.080      391.132      264.172        0.059        0.047       15.370       14.466        0.886      344.801       21.879      860.840
07/20/2013  06:54:00      -23.716      -25.550       -4.215       16.807       13.762       12.721      282.469      189.389      161.826        0.093        0.032       34.860        6.382        0.034      344.591       21.520      860.830
07/20/2013  06:55:00      -11.076       -9.063        7.142       17.416       26.161       13.394      303.326      684.418      179.408        0.071        0.058       14.311        9.407        0.432      344.730       21.757      860.837
07/20/2013  06:56:00      -37.612      -34.246       -2.948       16.482       22.021       12.524      271.658      484.906      156.841        0.175        0.046       50.867        9.765        0.037      344.517       21.391      860.840
07/20/2013  06:57:00      -42.764        1.326       -0.540       13.828       11.700        6.968      191.219      136.879       48.547        0.110        0.019       42.785        3.104        0.005      344.529       21.412      860.837
07/20/2013  06:58:00      -71.271        8.431       -4.101       17.276       10.846        9.382      298.444      117.629       88.019        0.284        0.025       71.768        7.069        0.010      344.517       21.391      860.844
07/20/2013  06:59:00      -84.997        6.289       -2.196       29.511       15.788       11.881      870.910      249.266      141.151        0.426        0.063       85.229        9.174        0.012      344.518       21.396      860.850
07/20/2013  07:00:00     -107.252      -25.383       -4.144       31.127       24.890       18.428      968.866      619.532      339.602        0.705        0.096      110.215       14.129        0.016      344.532       21.419      860.854
07/20/2013  07:01:00      -97.933      -29.025      -13.148       16.715       26.666       11.834      279.379      711.087      140.044        0.587        0.057      102.143        8.182        0.006      344.573       21.486      860.857
07/20/2013  07:02:00      -78.974      -29.969       -9.459       18.620       21.843       14.046      346.696      477.106      197.289        0.412        0.051       84.469       12.599        0.022      344.655       21.627      860.867
07/20/2013  07:03:00      -67.891      -36.116       -3.447       29.413       28.347       12.830      865.140      803.545      164.608        0.388        0.092       76.900        8.944        0.014      344.703       21.710      860.874
07/20/2013  07:04:00      -63.008       -7.612        1.568       26.150       30.364       16.897      683.813      921.965      285.500        0.296        0.095       63.467       13.366        0.044      344.672       21.658      860.872
07/20/2013  07:05:00      -89.095      -23.631       -9.572       24.486       22.027       13.834      599.561      485.176      191.370        0.493        0.064       92.175        8.823        0.009      344.678       21.669      860.877
07/20/2013  07:06:00      -30.404        4.886        5.005       11.670       12.778        7.821      136.197      163.286       61.165        0.067        0.018       30.794        3.789        0.015      344.780       21.842      860.881
07/20/2013  07:07:00       -9.825       13.713        1.837       11.729       15.798       12.906      137.580      249.576      166.575        0.042        0.028       16.869        4.132        0.060      344.972       22.170      860.882
07/20/2013  07:08:00       -6.366       16.261       10.097        8.781       15.130       13.809       77.099      228.929      190.693        0.045        0.025       17.462       10.956        0.394      345.157       22.487      860.890
07/20/2013  07:09:00        6.350       11.927       13.733       14.484       12.706       13.803      209.773      161.449      190.517        0.047        0.028       13.512       11.286        0.698      345.207       22.574      860.902
07/20/2013  07:10:00        0.464        3.918       18.656       12.076       10.109        7.997      145.835      102.187       63.948        0.034        0.016        3.945        6.337        2.580      345.424       22.944      860.912
07/20/2013  07:11:00      -14.506      -11.787       13.766        9.150       12.174        5.094       83.714      148.206       25.951        0.040        0.013       18.691        5.088        0.074      345.059       22.318      860.921
07/20/2013  07:12:00      -43.279      -31.995       -9.626       13.086       12.696       11.954      171.244      161.189      142.908        0.173        0.024       53.822        8.132        0.023      344.861       21.981      860.928
07/20/2013  07:13:00      -33.543      -42.882        0.820       34.355       21.977       17.974     1180.285      482.994      323.060        0.248        0.099       54.443       16.385        0.091      344.952       22.137      860.936
07/20/2013  07:14:00      -26.576      -79.852        6.667       24.214       31.364       17.985      586.338      983.712      323.468        0.451        0.095       84.158        9.215        0.012      344.828       21.922      860.944
07/20/2013  07:15:00      -71.469      -56.811       -0.090       34.501       40.786       24.455     1190.308     1663.512      598.052        0.589        0.173       91.298       19.671        0.046      344.813       21.897      860.945
07/20/2013  07:16:00      -90.521      -62.246        3.182       48.225       33.237       29.026     2325.613     1104.684      842.491        0.817        0.214      109.857       25.668        0.055      344.787       21.853      860.940
07/20/2013  07:17:00      -74.102      -72.026       -9.486       48.186       37.661       24.526     2321.900     1418.352      601.537        0.755        0.217      103.339       23.862        0.053      344.790       21.856      860.925
07/20/2013  07:18:00      -87.995      -79.450       -6.227       18.651       24.734       13.801      347.864      611.769      190.471        0.762        0.058      118.556        3.903        0.001      344.795       21.867      860.921
07/20/2013  07:19:00      -75.801      -45.942        4.157       47.040       29.305       25.324     2212.731      858.803      641.320        0.579        0.186       88.636       26.563        0.090      344.883       22.017      860.922
07/20/2013  07:20:00      -81.435      -82.374       -1.092       40.416       28.071       16.438     1633.435      787.969      270.218        0.805        0.135      115.832       17.269        0.022      344.858       21.974      860.919
07/20/2013  07:21:00      -27.697      -69.884       13.077       19.484       20.627       20.538      379.641      425.483      421.798        0.352        0.061       75.172       13.135        0.031      344.904       22.055      860.918
07/20/2013  07:22:00       -9.404      -79.426        7.203       17.409       17.635       14.053      303.081      310.987      197.491        0.363        0.041       79.980        9.402        0.014      344.950       22.132      860.935
07/20/2013  07:23:00      -33.694      -72.427       -2.647       15.100       15.320       12.655      228.020      234.688      160.154        0.351        0.031       79.881        4.130        0.003      344.975       22.177      860.939
07/20/2013  07:24:00      -16.436      -31.687        8.274       11.850       12.064       10.939      140.417      145.552      119.657        0.087        0.020       35.696        8.236        0.053      345.068       22.335      860.945
07/20/2013  07:25:00      -26.649      -44.075       12.192       13.068       11.310        9.291      170.762      127.908       86.322        0.159        0.019       51.505        4.004        0.006      345.068       22.334      860.957
07/20/2013  07:26:00      -25.298      -37.518       -1.244        6.499       10.020        9.478       42.238      100.409       89.826        0.114        0.012       45.250        4.671        0.011      345.006       22.229      860.954
07/20/2013  07:27:00      -28.598      -10.472       -3.588        6.015       13.801        6.409       36.183      190.462       41.079        0.060        0.013       30.455        3.687        0.015      345.083       22.363      860.947
07/20/2013  07:28:00      -19.046       -2.435        7.156       14.982       19.122       18.967      224.457      365.666      359.754        0.068        0.047       19.201        9.484        0.244      345.473       23.029      860.953
07/20/2013  07:29:00      -27.015      -50.555       -0.653       20.308       35.145       13.218      412.428     1235.145      174.718        0.255        0.091       57.320       13.266        0.054      345.163       22.497      860.951
07/20/2013  07:30:00       -9.737      -11.458       12.145       14.737       18.034       16.028      217.185      325.209      256.893        0.059        0.040       15.037       12.481        0.689      345.573       23.202      860.956
07/20/2013  07:31:00      -37.060      -11.465        7.039       20.160       25.660       16.546      406.412      658.422      273.775        0.145        0.067       38.793       13.438        0.120      345.251       22.650      860.965
07/20/2013  07:32:00      -21.401       -3.281       14.304       23.497       14.085       16.238      552.119      198.375      263.682        0.084        0.051       21.651       16.185        0.559      345.681       23.386      860.965
07/20/2013  07:33:00      -22.052      -17.384        8.672       22.029       21.040       18.033      485.256      442.677      325.181        0.106        0.063       28.081       13.593        0.234      345.420       22.938      860.971
07/20/2013  07:34:00      -33.732      -13.100       18.384       44.618       33.438       24.312     1990.765     1118.116      591.054        0.267        0.185       36.187       26.398        0.532      345.546       23.154      860.982
07/20/2013  07:35:00       -5.862       -1.491       15.657       19.288       25.091       24.275      372.023      629.559      589.254        0.094        0.080        6.049       10.677        3.116      345.871       23.712      860.996
07/20/2013  07:36:00      -58.145      -48.610       -4.005       27.355       17.909       13.509      748.310      320.744      182.496        0.351        0.063       75.788        5.464        0.005      345.198       22.555      861.012
07/20/2013  07:37:00      -63.778      -37.982        5.409       42.720       24.193       21.361     1825.038      585.292      456.277        0.420        0.143       74.231       23.804        0.103      345.392       22.891      861.029
07/20/2013  07:38:00      -74.521      -32.991        5.613       50.004       38.710       24.468     2500.374     1498.447      598.688        0.563        0.230       81.497       26.252        0.104      345.344       22.807      861.038
07/20/2013  07:39:00      -21.913      -11.859       11.680       29.222       30.417       29.540      853.909      925.213      872.586        0.170        0.133       24.916       19.386        0.605      345.575       23.204      861.035
07/20/2013  07:40:00      -29.660      -51.527        3.444       43.421       28.782       20.039     1885.387      828.402      401.568        0.333        0.156       59.454       15.934        0.072      345.367       22.845      861.043
07/20/2013  07:41:00      -55.188      -80.188        3.867       31.875       31.428       21.039     1016.018      987.720      442.632        0.597        0.122       97.344       14.798        0.023      345.372       22.856      861.046
07/20/2013  07:42:00      -38.526      -68.770        3.866       27.209       31.413       22.281      740.332      986.752      496.424        0.423        0.111       78.827       18.252        0.054      345.393       22.891      861.047
07/20/2013  07:43:00      -49.233      -69.581        3.230       14.300       35.771       11.547      204.488     1279.530      133.340        0.445        0.081       85.237        8.001        0.009      345.386       22.878      861.042
07/20/2013  07:44:00      -59.617      -64.423       -2.651       30.492       29.391       15.835      929.784      863.817      250.750        0.488        0.102       87.776       14.398        0.027      345.425       22.948      861.043
07/20/2013  07:45:00      -50.214      -81.710       -0.004       31.692       24.850       19.012     1004.412      617.514      361.437        0.559        0.099       95.906       16.546        0.030      345.477       23.034      861.048
07/20/2013  07:46:00       -5.410      -55.227       10.511       23.310       17.361       14.498      543.353      301.390      210.190        0.212        0.053       55.492        7.556        0.019      345.602       23.250      861.058
07/20/2013  07:47:00      -25.847      -67.048       11.731       27.615       34.326       19.643      762.611     1178.245      385.844        0.381        0.116       71.857       20.581        0.082      345.710       23.434      861.078
07/20/2013  07:48:00      -47.566     -130.021        2.751       25.319       42.771       17.343      641.066     1829.322      300.767        1.097        0.139      138.449       15.464        0.012      345.515       23.102      861.092
07/20/2013  07:49:00      -49.766     -105.326        0.165       38.631       37.265       23.457     1492.360     1388.650      550.234        0.850        0.172      116.492       25.441        0.048      345.601       23.249      861.097
07/20/2013  07:50:00      -32.183      -47.020       12.571       36.635       37.694       26.148     1342.106     1420.830      683.736        0.342        0.172       56.979       28.187        0.245      345.859       23.690      861.102
07/20/2013  07:51:00      -48.546      -16.590       13.477       40.940       37.667       20.161     1676.096     1418.820      406.452        0.316        0.175       51.302       18.144        0.125      345.934       23.820      861.105
07/20/2013  07:52:00      -59.924      -47.354       -7.723       30.157       32.914       19.035      909.463     1083.309      362.327        0.412        0.118       76.376       18.808        0.061      345.698       23.415      861.109
07/20/2013  07:53:00      -49.862      -55.678       -4.806       35.124       26.670       16.471     1233.712      711.271      271.307        0.391        0.111       74.742       15.031        0.040      345.620       23.280      861.111
07/20/2013  07:54:00      -36.949      -43.722        6.163       38.311       28.830       18.254     1467.740      831.177      333.191        0.297        0.132       57.244       14.121        0.061      345.711       23.438      861.109
07/20/2013  07:55:00      -80.134      -39.732       -9.147       39.572       31.474       16.556     1565.930      990.608      274.093        0.546        0.142       89.443       21.026        0.055      345.683       23.389      861.104
07/20/2013  07:56:00      -49.521      -62.741        2.040       41.655       39.277       23.453     1735.113     1542.680      550.059        0.511        0.191       79.930       24.851        0.097      345.749       23.501      861.102
07/20/2013  07:57:00      -64.754      -65.299        0.257       50.542       35.238       23.310     2554.459     1241.742      543.336        0.640        0.217       91.962       22.834        0.062      345.862       23.694      861.097
07/20/2013  07:58:00      -70.834     -101.856       -1.722       31.626       31.898       23.189     1000.207     1017.486      537.726        0.897        0.128      124.064       17.318        0.019      345.714       23.444      861.103
07/20/2013  07:59:00      -90.759      -78.835       -3.336       53.204       41.960       25.546     2830.658     1760.624      652.614        0.985        0.262      120.217       14.908        0.015      345.747       23.497      861.115
07/20/2013  08:00:00      -60.792      -70.486        8.352       63.466       39.710       33.330     4027.906     1576.865     1110.906        0.772        0.336       93.080       30.013        0.104      345.831       23.642      861.130
07/20/2013  08:01:00      -68.538     -144.506       -1.404       44.726       45.571       28.229     2000.404     2076.724      796.887        1.523        0.244      159.935       19.966        0.016      345.765       23.531      861.135
07/20/2013  08:02:00      -86.232     -187.661       -5.965       30.398       34.125       22.932      924.034     1164.498      525.880        2.265        0.131      206.525       18.042        0.008      345.703       23.422      861.136
07/20/2013  08:03:00      -66.229     -112.673        9.837       47.025       54.296       34.211     2211.386     2948.086     1170.395        1.175        0.316      130.696       31.839        0.059      345.853       23.682      861.139
07/20/2013  08:04:00      -65.261     -114.262        0.767       40.383       49.507       30.415     1630.826     2450.940      925.043        1.116        0.250      131.585       25.931        0.039      345.885       23.736      861.133
07/20/2013  08:05:00      -79.243      -74.988        9.097       51.179       41.491       30.259     2619.314     1721.511      915.588        0.862        0.263      109.099       28.081        0.066      345.872       23.713      861.119
07/20/2013  08:06:00      -65.694      -83.648        3.758       43.479       28.038       27.462     1890.432      786.124      754.166        0.738        0.172      106.361       23.200        0.048      345.906       23.771      861.123
07/20/2013  08:07:00      -40.509      -82.668        0.843       47.972       40.389       32.565     2301.297     1631.252     1060.451        0.673        0.250       92.060       33.327        0.131      345.997       23.928      861.122
07/20/2013  08:08:00      -21.611      -71.940       18.816       27.965       37.015       23.047      782.024     1370.108      531.176        0.434        0.134       75.116       21.938        0.085      346.033       23.991      861.123
07/20/2013  08:09:00      -39.051     -114.042       -0.007       30.287       31.047       21.777      917.303      963.904      474.252        0.844        0.118      120.543       20.015        0.028      345.977       23.894      861.115
07/20/2013  08:10:00      -38.599      -91.268       -7.536       14.935       28.270        8.295      223.064      799.217       68.807        0.548        0.055       99.095        7.579        0.006      345.993       23.921      861.107
07/20/2013  08:11:00      -47.391     -100.282       -0.966       25.127       21.184       12.684      631.379      448.742      160.882        0.677        0.062      110.916       11.525        0.011      346.057       24.030      861.095
07/20/2013  08:12:00      -59.947      -46.089       -4.431       24.977       24.267       12.728      623.855      588.876      161.990        0.356        0.069       75.617       13.466        0.032      346.125       24.148      861.087
07/20/2013  08:13:00      -62.838      -52.415       -5.908       18.763       25.778       11.439      352.041      664.495      130.850        0.394        0.057       81.829        7.751        0.009      346.155       24.198      861.077
07/20/2013  08:14:00      -27.514      -46.940        5.249       18.550       17.639       16.129      344.109      311.129      260.139        0.195        0.046       54.410       12.219        0.050      346.219       24.308      861.069
07/20/2013  08:15:00      -30.733      -73.176        6.067       32.842       26.230       15.858     1078.566      688.008      251.465        0.418        0.101       79.368       13.474        0.029      346.261       24.382      861.053
07/20/2013  08:16:00      -37.580      -16.968        6.267       19.405       22.922       21.226      376.541      525.416      450.528        0.155        0.068       41.234       20.013        0.236      346.720       25.173      861.050
07/20/2013  08:17:00      -38.752        0.773        2.032       17.223       18.498       14.371      296.621      342.173      206.520        0.118        0.042       38.759       10.527        0.074      346.453       24.712      861.050
07/20/2013  08:18:00      -23.025       -0.063        0.946       17.696       11.563       15.059      313.148      133.703      226.772        0.060        0.034       23.025        9.834        0.182      346.666       25.078      861.040
07/20/2013  08:19:00      -43.890       -6.474        0.461       19.844       20.960       16.777      393.787      439.333      281.469        0.154        0.056       44.365       13.474        0.092      346.590       24.948      861.031
07/20/2013  08:20:00      -12.321       -5.681       13.922       11.285       10.877       12.296      127.351      118.320      151.195        0.039        0.020       13.568        7.094        0.273      347.293       26.158      861.022
07/20/2013  08:21:00      -10.018      -19.006        3.658        9.868       14.547       10.579       97.387      211.602      111.921        0.045        0.021       21.485        8.533        0.158      346.721       25.173      861.008
07/20/2013  08:22:00       -4.787      -11.509        8.514       13.957       15.544       16.567      194.800      241.603      274.474        0.047        0.036       12.465        9.870        0.627      346.807       25.321      861.003
07/20/2013  08:23:00      -20.604      -19.803        1.861       10.144       11.023        9.645      102.900      121.510       93.017        0.057        0.016       28.578        8.485        0.088      346.569       24.912      861.005
07/20/2013  08:24:00       -6.144      -20.859       10.510       12.943       15.443       13.915      167.514      238.486      193.627        0.059        0.030       21.745        4.173        0.037      346.677       25.098      861.012
07/20/2013  08:25:00      -31.546      -18.070        7.976       15.071       12.754       10.695      227.139      162.658      114.393        0.094        0.025       36.355        6.957        0.037      346.596       24.957      861.015
07/20/2013  08:26:00      -13.903      -45.976       -5.691       15.838       28.013       15.216      250.848      784.733      231.531        0.180        0.063       48.032       11.781        0.060      346.489       24.774      861.020
07/20/2013  08:27:00      -23.031      -11.205       -4.252       16.614       12.167       13.178      276.025      148.027      173.671        0.064        0.030       25.613        9.085        0.126      346.716       25.166      861.029
07/20/2013  08:28:00        8.921      -30.575        0.025       23.968       27.715       21.567      574.446      768.097      465.150        0.141        0.090       31.850       21.053        0.437      346.868       25.424      861.036
07/20/2013  08:29:00      -28.389      -13.770       -2.614       20.644       12.595       11.970      426.167      158.640      143.289        0.087        0.036       31.552       11.370        0.130      346.682       25.105      861.043
07/20/2013  08:30:00      -14.438       -1.947        4.443       24.397       17.853       20.545      595.230      318.739      422.116        0.078        0.067       14.568        8.421        0.334      347.257       26.096      861.049
07/20/2013  08:31:00       22.086      -23.636        1.476       38.259       27.385       24.129     1463.769      749.948      582.204        0.192        0.140       32.349       21.255        0.432      346.506       24.802      861.054
07/20/2013  08:32:00      -28.548       -3.322       11.841       19.052       13.139       14.299      362.964      172.630      204.475        0.085        0.037       28.741        9.381        0.107      346.967       25.596      861.061
07/20/2013  08:33:00       -8.365      -15.796       13.304       20.503       22.138       20.440      420.361      490.094      417.793        0.091        0.066       17.874       17.676        0.978      347.185       25.973      861.060
07/20/2013  08:34:00      -33.388       -8.778       -2.500       14.397       13.455       12.610      207.280      181.041      159.021        0.087        0.027       34.523       10.623        0.095      346.923       25.521      861.068
07/20/2013  08:35:00        8.450        3.262       19.859       33.683       21.454       33.699     1134.568      460.290     1135.629        0.160        0.137        9.058       17.150        3.585      347.438       26.409      861.070
07/20/2013  08:36:00      -10.814        9.732       38.768       18.925       26.885       18.789      358.174      722.814      353.011        0.157        0.072       14.548        9.978        0.470      347.591       26.672      861.073
07/20/2013  08:37:00      -12.387        1.002       37.369       24.288       27.509       18.791      589.903      756.745      353.089        0.162        0.085       12.427       17.568        1.998      347.640       26.756      861.071
07/20/2013  08:38:00      -42.710       25.769       14.940       13.872       13.877       14.442      192.440      192.560      208.567        0.165        0.030       49.882        4.870        0.010      346.933       25.538      861.071
07/20/2013  08:39:00      -45.519        1.312       10.400       18.174       12.127       13.560      330.277      147.059      183.883        0.142        0.033       45.538        9.613        0.045      346.908       25.493      861.065
07/20/2013  08:40:00      -16.480       -5.843       13.646       18.208       20.744       19.503      331.521      430.322      380.354        0.082        0.057       17.485       16.526        0.893      347.679       26.825      861.066
07/20/2013  08:41:00      -25.047      -37.686        1.166       21.931       31.400       16.345      480.971      985.949      267.155        0.189        0.087       45.250       19.339        0.183      347.113       25.847      861.072
07/20/2013  08:42:00      -51.069      -19.591        8.683       14.783       17.274       11.302      218.546      298.386      127.730        0.186        0.032       54.697       10.616        0.038      346.956       25.577      861.078
07/20/2013  08:43:00      -19.911       21.314       28.364       30.627       33.236       30.485      938.026     1104.621      929.349        0.231        0.149       29.168       23.626        0.656      347.464       26.453      861.080
07/20/2013  08:44:00      -17.341        7.858       38.388       18.012       19.442       13.410      324.428      377.991      179.824        0.136        0.044       19.038       10.196        0.287      347.547       26.595      861.075
07/20/2013  08:45:00        2.494      -14.451       35.068       19.934       29.766       16.452      397.350      886.039      270.658        0.150        0.078       14.665       15.551        1.125      348.137       27.614      861.067
07/20/2013  08:46:00       -9.257       12.000       42.156       17.463       20.512       18.476      304.958      420.732      341.357        0.154        0.053       15.156       11.257        0.552      348.178       27.685      861.070
07/20/2013  08:47:00        6.319       43.652       50.601       26.970       26.455       20.703      727.369      699.841      428.616        0.318        0.093       44.107       12.871        0.085      347.427       26.388      861.060
07/20/2013  08:48:00       24.600       34.621       54.744       33.980       33.968       24.744     1154.625     1153.799      612.262        0.386        0.146       42.471       22.755        0.287      347.321       26.205      861.053
07/20/2013  08:49:00       43.237       13.394       38.171       38.421       21.504       21.450     1476.160      462.417      460.116        0.295        0.120       45.264       11.914        0.069      346.982       25.621      861.050
07/20/2013  08:50:00       25.637       14.666       40.772       28.506       18.739       16.114      812.585      351.151      259.666        0.198        0.071       29.535       12.062        0.167      347.339       26.237      861.038
07/20/2013  08:51:00       30.232       14.630       22.332       30.060       28.919       25.096      903.625      836.311      629.798        0.200        0.118       33.586       19.677        0.343      347.152       25.916      861.039
07/20/2013  08:52:00       18.419       17.386       23.083       30.150       25.284       27.917      908.993      639.293      779.358        0.175        0.116       25.328       23.454        0.858      347.564       26.625      861.029
07/20/2013  08:53:00       -1.002       11.266       43.948       15.700       23.348       11.099      246.484      545.110      123.188        0.149        0.046       11.311        9.390        0.689      347.896       27.199      861.029
07/20/2013  08:54:00       10.860      -17.110       14.651       17.537       19.012       23.131      307.553      361.439      535.057        0.091        0.060       20.266       11.639        0.330      347.555       26.609      861.022
07/20/2013  08:55:00        1.715      -24.517        8.454       22.797       27.536       20.030      519.687      758.222      401.194        0.118        0.084       24.577       13.540        0.304      347.240       26.066      861.022
07/20/2013  08:56:00       43.198      -11.309        9.562       29.764       33.268       18.876      885.881     1106.737      356.319        0.222        0.117       44.654       12.330        0.076      347.177       25.958      861.012
07/20/2013  08:57:00       56.069      -24.686        6.331       19.304       18.462       23.123      372.652      340.834      534.655        0.252        0.062       61.262       10.796        0.031      346.997       25.647      861.017
07/20/2013  08:58:00       29.846      -11.824        0.615       24.895       21.682       28.444      619.776      470.090      809.036        0.146        0.095       32.103       18.076        0.317      347.363       26.279      861.022
07/20/2013  08:59:00       48.334       38.238       17.538       19.182       17.606       23.866      367.956      309.968      569.604        0.268        0.062       61.630       10.716        0.030      347.681       26.826      861.027
07/20/2013  09:00:00       79.776       59.859       22.299       43.456       25.886       30.458     1888.393      670.091      927.706        0.696        0.174       99.736       20.290        0.041      347.228       26.045      861.033
07/20/2013  09:01:00       46.903       22.806       25.728       46.605       30.679       30.564     2171.998      941.171      934.133        0.371        0.202       52.154       28.891        0.307      348.051       27.467      861.041
07/20/2013  09:02:00       51.514       68.412       58.426       48.205       35.903       28.895     2323.685     1289.000      834.929        0.760        0.222       85.639       19.149        0.050      347.642       26.759      861.045
07/20/2013  09:03:00       36.275        9.986       31.725       34.767       61.992       34.776     1208.719     3843.027     1209.404        0.434        0.313       37.625       31.768        0.713      347.495       26.506      861.048
07/20/2013  09:04:00       24.715       35.073       46.999       36.609       36.778       24.084     1340.232     1352.611      580.062        0.366        0.164       42.906       13.211        0.095      347.995       27.370      861.054
07/20/2013  09:05:00       80.404       74.081       65.558       53.627       41.932       39.669     2875.842     1758.265     1573.597        1.123        0.310      109.329       19.381        0.031      347.681       26.826      861.054
07/20/2013  09:06:00       76.995      101.475       77.625       60.375       45.148       30.611     3645.156     2038.351      937.023        1.443        0.331      127.379       26.129        0.042      347.764       26.969      861.055
07/20/2013  09:07:00       60.180       83.082       68.437       52.185       44.330       37.261     2723.249     1965.165     1388.358        1.064        0.304      102.588       16.253        0.025      347.750       26.945      861.061
07/20/2013  09:08:00       74.752       51.891       36.002       47.202       37.587       35.034     2227.992     1412.811     1227.367        0.722        0.243       90.998       21.510        0.056      347.815       27.058      861.065
07/20/2013  09:09:00       97.860       69.156       21.275       72.668       39.330       32.472     5280.654     1546.873     1054.408        1.135        0.394      119.830       20.868        0.030      347.592       26.674      861.062
07/20/2013  09:10:00       46.157       32.221       25.423       46.802       51.308       29.014     2190.423     2632.490      841.797        0.474        0.283       56.291       10.841        0.037      347.574       26.642      861.068
07/20/2013  09:11:00       -3.819        2.163       27.369       15.139       31.308       18.143      229.176      980.166      329.180        0.115        0.077        4.389       15.375       12.272      348.009       27.394      861.073
07/20/2013  09:12:00       74.269       31.873       21.656       40.645       30.021       32.061     1651.992      901.276     1027.901        0.529        0.179       80.820       25.977        0.103      347.783       27.002      861.080
07/20/2013  09:13:00       57.151       23.272        9.154       45.304       34.135       30.264     2052.474     1165.207      915.910        0.401        0.207       61.707       28.358        0.211      348.268       27.841      861.092
07/20/2013  09:14:00       40.089      -17.605       25.937       48.395       47.535       36.984     2342.118     2259.593     1367.833        0.428        0.298       43.784       30.446        0.484      347.988       27.357      861.097
07/20/2013  09:15:00       63.097      -38.934       21.572       62.638       67.562       53.420     3923.472     4564.642     2853.703        0.865        0.567       74.142       58.383        0.620      348.099       27.548      861.105
07/20/2013  09:16:00       84.451      -76.658        0.923       60.106       62.920       47.572     3612.681     3958.865     2263.114        1.142        0.492      114.055       38.333        0.113      348.197       27.718      861.109
07/20/2013  09:17:00      103.387      -38.251       31.649       70.095       75.690       49.228     4913.308     5728.920     2423.432        1.311        0.653      110.236       40.418        0.134      348.001       27.381      861.096
07/20/2013  09:18:00      105.675       28.844       38.392       72.127       75.158       36.454     5202.277     5648.738     1328.861        1.282        0.609      109.541       33.624        0.094      347.710       26.876      861.100
07/20/2013  09:19:00       86.387       18.251       18.396       62.813       67.131       34.942     3945.478     4506.512     1220.944        0.890        0.484       88.294       36.344        0.169      347.972       27.329      861.105
07/20/2013  09:20:00       32.033      -63.256       12.282       50.653       67.522       44.410     2565.740     4559.277     1972.246        0.714        0.455       70.905       38.018        0.287      348.101       27.553      861.097
07/20/2013  09:21:00       15.527        5.298       59.146       36.405       68.774       36.412     1325.355     4729.830     1325.820        0.557        0.369       16.406       32.527        3.931      348.472       28.194      861.092
07/20/2013  09:22:00       -5.613       49.916       46.043       37.843       30.110       33.528     1432.103      906.584     1124.103        0.405        0.173       50.230       12.929        0.066      348.177       27.683      861.068
07/20/2013  09:23:00       54.753       41.692       38.507       38.833       39.143       28.397     1508.015     1532.185      806.395        0.503        0.192       68.820       20.228        0.086      348.274       27.851      861.065
07/20/2013  09:24:00       26.336       24.888       34.858       37.178       38.511       21.590     1382.213     1483.082      466.149        0.293        0.167       36.235       16.349        0.204      348.280       27.861      861.036
07/20/2013  09:25:00       -1.205        5.348       19.423       15.621       19.819       17.406      244.010      392.792      302.952        0.067        0.047        5.482        8.796        2.575      348.715       28.614      861.017
07/20/2013  09:26:00       47.774       53.787       13.883       34.317       40.321       37.268     1177.681     1625.775     1388.925        0.478        0.210       71.941       32.469        0.204      348.119       27.583      860.986
07/20/2013  09:27:00       28.433       -0.096       17.048       36.705       41.934       30.739     1347.260     1758.466      944.897        0.257        0.203       28.434       10.331        0.132      348.601       28.416      860.981
07/20/2013  09:28:00       31.662      -27.127       37.648       44.633       41.583       37.210     1992.084     1729.105     1384.588        0.413        0.255       41.694       23.127        0.308      348.856       28.857      860.961
07/20/2013  09:29:00        4.277        7.054       54.927       26.634       34.031       27.769      709.385     1158.137      771.126        0.286        0.132        8.249        2.224        0.073      348.897       28.929      860.965
07/20/2013  09:30:00       -3.558       33.333       64.017       29.441       51.091       28.202      866.795     2610.331      795.332        0.475        0.214       33.522       22.985        0.470      348.589       28.396      860.963
07/20/2013  09:31:00       12.487      -16.766       33.229       31.190       56.517       35.176      972.806     3194.129     1237.375        0.347        0.270       20.905       41.820        4.002      348.680       28.554      860.960
07/20/2013  09:32:00       23.438        0.053       23.826       34.349       28.846       24.015     1179.852      832.084      576.718        0.185        0.129       23.438       16.817        0.515      348.378       28.031      860.954
07/20/2013  09:33:00      -36.430        0.434        5.171       25.436       21.663       19.085      646.982      469.303      364.255        0.142        0.074       36.433       17.509        0.231      348.490       28.223      860.948
07/20/2013  09:34:00      -29.339      -20.391       17.541       20.429       19.222       14.011      417.361      369.491      196.322        0.128        0.049       35.729        9.786        0.075      348.592       28.402      860.950
07/20/2013  09:35:00      -30.750        3.855        8.722       27.113       16.784       13.515      735.108      281.719      182.646        0.112        0.060       30.991        7.895        0.065      348.439       28.137      860.949
07/20/2013  09:36:00      -36.675       -7.700       -9.860       20.400       17.566       13.469      416.167      308.548      181.421        0.120        0.045       37.475        1.682        0.002      348.168       27.668      860.940
07/20/2013  09:37:00      -39.585        9.255       -4.605       16.798       10.467        8.463      282.164      109.559       71.616        0.107        0.023       40.653        4.264        0.011      348.203       27.727      860.935
07/20/2013  09:38:00       -1.069       -4.638       28.037       17.683       17.985       21.635      312.674      323.445      468.067        0.096        0.055        4.759       13.785        8.390      349.743       30.397      860.935
07/20/2013  09:39:00       31.010      -10.662       16.658       29.654       15.794       22.565      879.340      249.445      509.192        0.150        0.082       32.792       21.661        0.436      348.498       28.239      860.919
07/20/2013  09:40:00       -1.089      -17.304       15.936       13.807       22.711       14.333      190.642      515.795      205.434        0.073        0.046       17.339        7.875        0.206      348.733       28.646      860.919
07/20/2013  09:41:00      -24.589      -44.648       24.615       28.743       32.808       25.430      826.171     1076.335      646.669        0.288        0.127       50.971       15.148        0.088      348.661       28.519      860.895
07/20/2013  09:42:00       23.023      -49.502       21.483       41.639       63.152       44.391     1733.820     3988.220     1970.544        0.557        0.385       54.594       41.828        0.587      349.022       29.146      860.884
07/20/2013  09:43:00       53.038      -53.534       16.223       44.706       49.585       38.067     1998.624     2458.690     1449.109        0.592        0.295       75.359       32.042        0.181      348.760       28.693      860.879
07/20/2013  09:44:00       32.376      -43.166        4.364       47.350       63.381       45.145     2242.060     4017.104     2038.052        0.561        0.415       53.958       42.953        0.634      348.869       28.880      860.865
07/20/2013  09:45:00       58.213      -91.002       -8.590       64.580       80.111       48.734     4170.547     6417.756     2375.045        1.235        0.648      108.028       47.832        0.196      348.749       28.671      860.851
07/20/2013  09:46:00       29.247      -40.689       14.306       48.853       68.145       39.374     2386.611     4643.769     1550.329        0.565        0.429       50.110       42.552        0.721      348.875       28.891      860.848
07/20/2013  09:47:00       46.247      -23.530       18.577       35.231       53.661       33.181     1241.200     2879.502     1100.997        0.413        0.261       51.889       34.295        0.437      348.429       28.119      860.842
07/20/2013  09:48:00      -43.141      -10.650       26.792       40.956       29.448       27.418     1677.374      867.160      751.742        0.299        0.165       44.436       19.870        0.200      348.939       29.001      860.824
07/20/2013  09:49:00      -49.405      -39.838       12.556       56.529       44.265       33.590     3195.538     1959.417     1128.299        0.523        0.314       63.466       39.359        0.385      348.917       28.963      860.806
07/20/2013  09:50:00       -5.358       -8.805       25.605       28.038       49.870       31.213      786.134     2487.056      974.259        0.250        0.212       10.307       30.226        8.600      349.324       29.669      860.799
07/20/2013  09:51:00       -7.032      -35.190       23.068       31.308       36.843       30.753      980.175     1357.407      945.743        0.255        0.164       35.885       22.814        0.404      349.274       29.582      860.794
07/20/2013  09:52:00        0.868      -18.277       23.555       44.075       49.956       36.414     1942.601     2495.643     1325.991        0.333        0.288       18.297       37.995        4.312      349.130       29.335      860.800
07/20/2013  09:53:00       22.383      -64.146       11.766       39.141       69.300       41.549     1531.986     4802.440     1726.326        0.641        0.403       67.939       38.450        0.320      348.888       28.913      860.798
07/20/2013  09:54:00       26.984      -76.332        8.857       48.784       70.763       47.622     2379.837     5007.470     2267.813        0.814        0.483       80.961       48.095        0.353      348.814       28.783      860.799
07/20/2013  09:55:00       -1.252      -27.715       47.101       39.039       62.961       37.641     1524.035     3964.144     1416.817        0.495        0.345       27.743       26.493        0.912      349.182       29.423      860.803
07/20/2013  09:56:00        3.484       48.222       67.544       38.374       45.502       27.526     1472.526     2070.431      757.691        0.560        0.215       48.347       26.004        0.289      348.861       28.866      860.811
07/20/2013  09:57:00       -4.408       25.408       25.820       32.771       30.137       23.565     1073.920      908.239      555.298        0.193        0.127       25.788       19.787        0.589      348.894       28.925      860.814
07/20/2013  09:58:00      -19.655       -0.144       24.042       19.074       20.055       19.720      363.833      402.207      388.875        0.106        0.058       19.655       13.321        0.459      349.414       29.825      860.811
07/20/2013  09:59:00      -10.603        4.524       17.704       18.307       15.480       19.269      335.143      239.624      371.292        0.070        0.047       11.528        8.424        0.534      349.504       29.982      860.803
07/20/2013  10:00:00       -1.260      -10.712       24.288       33.779       35.142       23.735     1141.013     1234.975      563.364        0.182        0.147       10.785       20.717        3.690      349.152       29.370      860.786
07/20/2013  10:01:00      -22.586       20.966       31.765       19.438       20.475       20.576      377.836      419.232      423.384        0.159        0.061       30.817       12.258        0.158      349.395       29.793      860.772
07/20/2013  10:02:00        5.273       16.089        5.625       18.179       15.659       23.631      330.491      245.201      558.432        0.073        0.057       16.931       15.642        0.854      349.091       29.265      860.767
07/20/2013  10:03:00       26.212      -17.283       -8.078       25.709       32.244       21.983      660.974     1039.666      483.240        0.162        0.109       31.398       15.394        0.240      348.442       28.141      860.762
07/20/2013  10:04:00        4.784       23.242       31.374       47.969       45.542       50.842     2301.066     2074.073     2584.919        0.425        0.348       23.729       35.880        2.286      348.883       28.904      860.755
07/20/2013  10:05:00       21.985       32.913       69.291       40.982       50.074       26.361     1679.488     2507.395      694.911        0.562        0.244       39.581       11.177        0.080      349.015       29.133      860.749
07/20/2013  10:06:00       66.471       53.712       46.969       47.393       45.618       31.662     2246.143     2081.030     1002.467        0.742        0.266       85.460       20.728        0.059      348.650       28.502      860.743
07/20/2013  10:07:00       26.229       58.070       42.477       43.740       29.787       38.922     1913.163      887.287     1514.914        0.509        0.216       63.719       32.953        0.267      348.699       28.587      860.742
07/20/2013  10:08:00       14.950       43.702       27.677       33.461       30.093       38.534     1119.608      905.605     1484.856        0.320        0.176       46.188       15.907        0.119      349.272       29.579      860.744
07/20/2013  10:09:00       30.549       30.648       30.261       50.583       36.214       42.515     2558.673     1311.487     1807.503        0.423        0.284       43.273       23.168        0.287      349.164       29.391      860.746
07/20/2013  10:10:00       61.268       79.448       43.013       59.097       42.933       39.051     3492.403     1843.206     1525.004        0.939        0.343      100.328       25.830        0.066      348.997       29.101      860.741
07/20/2013  10:11:00       58.512       26.836       17.549       36.186       27.287       33.927     1309.398      744.573     1151.025        0.383        0.160       64.372       24.013        0.139      349.173       29.409      860.739
07/20/2013  10:12:00       29.101       13.661       10.937       19.417       30.490       27.950      377.033      929.624      781.205        0.162        0.104       32.148       15.812        0.242      348.741       28.660      860.742
07/20/2013  10:13:00       -2.872       -6.787       -9.500       45.110       20.629       27.569     2034.909      425.548      760.071        0.168        0.161        7.370       16.497        5.011      348.806       28.772      860.746
07/20/2013  10:14:00      -32.796      -11.445       -5.847       10.982       13.324       11.547      120.607      177.518      133.338        0.084        0.022       34.735        7.754        0.050      348.816       28.789      860.742
07/20/2013  10:15:00       10.706       -1.200        8.925       27.380       21.148       19.822      749.680      447.235      392.898        0.089        0.079       10.773       18.883        3.072      349.186       29.430      860.743
07/20/2013  10:16:00       27.979       20.718       28.445       26.729       17.340       22.100      714.441      300.662      488.395        0.176        0.075       34.814       10.823        0.097      349.520       30.008      860.741
07/20/2013  10:17:00        1.111       22.437       37.427       19.638       21.699       16.561      385.640      470.831      274.262        0.152        0.057       22.464       13.470        0.360      350.272       31.315      860.748
07/20/2013  10:18:00       21.133       34.416       35.648       26.913       23.749       18.168      724.320      564.038      330.093        0.226        0.081       40.386        8.622        0.046      349.603       30.151      860.751
07/20/2013  10:19:00       29.933       29.410       38.916       40.549       32.362       18.625     1644.195     1047.306      346.906        0.316        0.152       41.963       11.037        0.069      349.785       30.470      860.762
07/20/2013  10:20:00        4.661       25.236       22.066       23.193       32.689       20.221      537.909     1068.591      408.876        0.158        0.101       25.663       17.798        0.481      349.908       30.683      860.759
07/20/2013  10:21:00       -7.657       65.384       11.275       29.189       42.633       30.405      851.986     1817.615      924.465        0.403        0.180       65.831       21.799        0.110      349.783       30.467      860.746
07/20/2013  10:22:00        0.717       27.831       35.160       22.502       24.391       19.106      506.348      594.930      365.041        0.174        0.073       27.841       12.772        0.210      350.498       31.707      860.745
07/20/2013  10:23:00       14.009       -4.420       26.036       35.950       33.745       30.186     1292.386     1138.748      911.166        0.212        0.167       14.689       18.301        1.552      349.911       30.689      860.736
07/20/2013  10:24:00        6.898       36.317       55.968       30.455       33.208       26.319      927.488     1102.754      692.691        0.361        0.136       36.967       21.540        0.340      349.686       30.297      860.736
07/20/2013  10:25:00       33.251      -11.833       20.236       49.804       47.476       32.977     2480.413     2253.954     1087.511        0.374        0.291       35.293       29.574        0.702      349.063       29.218      860.728
07/20/2013  10:26:00        7.940       -0.119       18.518       36.812       34.164       30.850     1355.118     1167.193      951.744        0.194        0.174        7.941       29.644       13.935      349.815       30.520      860.708
07/20/2013  10:27:00       32.277       48.799       66.848       70.460       72.486       52.882     4964.656     5254.275     2796.498        1.045        0.651       58.508       35.275        0.364      349.674       30.277      860.692
07/20/2013  10:28:00       25.264       45.661       58.377       39.205       55.508       38.754     1537.029     3081.172     1501.846        0.612        0.306       52.184       36.707        0.495      349.408       29.813      860.672
07/20/2013  10:29:00       36.922       19.744       45.281       44.442       37.405       29.016     1975.059     1399.140      841.923        0.401        0.211       41.869       17.570        0.176      349.510       29.991      860.656
07/20/2013  10:30:00       40.709        8.959       34.369       41.960       25.333       33.939     1760.602      641.736     1151.832        0.324        0.178       41.683       20.629        0.245      349.137       29.345      860.650
07/20/2013  10:31:00       29.725        7.905       22.571       25.475       26.399       26.439      648.993      696.924      699.017        0.175        0.102       30.758       16.306        0.281      349.166       29.394      860.642
07/20/2013  10:32:00      -11.628        7.389       11.183       27.179       27.395       20.186      738.686      750.504      407.467        0.111        0.095       13.777       14.918        1.173      349.500       29.974      860.632
07/20/2013  10:33:00       36.730      -39.680       14.520       48.538       38.324       37.473     2355.902     1468.705     1404.219        0.418        0.261       54.070       18.778        0.121      349.175       29.411      860.626
07/20/2013  10:34:00       12.823        0.012       28.417       37.753       44.168       35.587     1425.258     1950.795     1266.439        0.281        0.232       12.823       15.801        1.518      349.611       30.167      860.615
07/20/2013  10:35:00       -0.583       20.862       48.358       22.606       44.923       24.213      511.053     2018.110      586.290        0.294        0.156       20.870       13.158        0.398      350.190       31.173      860.599
07/20/2013  10:36:00       26.260      -81.215       -1.348       42.132       67.476       44.004     1775.074     4552.977     1936.314        0.777        0.413       85.355       30.735        0.130      349.634       30.209      860.595
07/20/2013  10:37:00       15.649      -14.382       20.392       48.814       39.813       37.824     2382.760     1585.056     1430.673        0.313        0.270       21.254       24.549        1.334      349.908       30.682      860.583
07/20/2013  10:38:00       21.102      -40.621       31.774       38.633       53.176       49.665     1492.501     2827.665     2466.626        0.494        0.339       45.776       42.047        0.844      349.971       30.792      860.577
07/20/2013  10:39:00        0.294      -71.400       18.675       41.740       58.250       46.354     1742.229     3393.084     2148.734        0.636        0.364       71.401       38.444        0.290      349.665       30.261      860.563
07/20/2013  10:40:00       -5.856      -21.789       14.242       28.593       28.551       26.778      817.580      815.187      717.044        0.153        0.117       22.562       23.768        1.110      350.140       31.087      860.545
07/20/2013  10:41:00      -11.652        8.468       15.223       20.417       19.600       25.914      416.857      384.148      671.557        0.096        0.074       14.404       13.531        0.882      350.252       31.281      860.540
07/20/2013  10:42:00        5.585        0.159       15.069       30.030       20.091       21.817      901.785      403.650      475.960        0.102        0.089        5.588        9.672        2.996      349.966       30.785      860.523
07/20/2013  10:43:00       24.426       12.397       29.634       31.764       34.241       30.757     1008.921     1172.459      945.972        0.238        0.156       27.392       26.962        0.969      349.540       30.044      860.518
07/20/2013  10:44:00       34.894       25.646       40.775       71.975       38.062       24.712     5180.396     1448.729      610.672        0.539        0.362       43.305       15.702        0.131      350.164       31.127      860.499
07/20/2013  10:45:00      121.162       40.300       26.378       74.803       50.766       50.678     5595.494     2577.216     2568.267        1.387        0.537      127.688       43.312        0.115      349.515       29.999      860.497
07/20/2013  10:46:00      161.049      103.350       12.804       48.085       38.669       32.374     2312.144     1495.330     1048.092        2.082        0.243      191.358       19.532        0.010      349.523       30.013      860.481
07/20/2013  10:47:00      117.978       74.222       24.461       31.184       35.474       36.387      972.448     1258.437     1324.046        1.179        0.178      139.383       17.337        0.015      349.549       30.058      860.489
07/20/2013  10:48:00       23.460        9.372       15.549       31.680       53.333       33.618     1003.634     2844.369     1130.201        0.293        0.249       25.263       25.145        0.991      349.831       30.548      860.484
07/20/2013  10:49:00       53.511       28.682       27.143       37.812       49.605       42.059     1429.727     2460.664     1768.975        0.504        0.283       60.713       26.657        0.193      349.943       30.744      860.479
07/20/2013  10:50:00       -7.279      111.484        6.517       33.358       54.476       34.876     1112.731     2967.678     1216.362        0.891        0.265      111.722       37.028        0.110      349.842       30.568      860.470
07/20/2013  10:51:00       -4.263       60.267        5.343       30.838       49.741       34.114      950.983     2474.135     1163.798        0.413        0.229       60.417       32.353        0.287      350.400       31.537      860.469
07/20/2013  10:52:00       25.493       33.433       23.387       37.122       30.846       32.626     1378.031      951.455     1064.486        0.285        0.170       42.043       23.571        0.314      350.574       31.840      860.465
07/20/2013  10:53:00        1.383       31.638       15.349       27.405       31.140       26.884      751.023      969.686      722.729        0.184        0.122       31.668       14.593        0.212      350.588       31.864      860.459
07/20/2013  10:54:00       49.943        9.651       16.742       33.534       23.968       24.356     1124.543      574.488      593.216        0.258        0.115       50.867       16.649        0.107      349.860       30.599      860.453
07/20/2013  10:55:00       59.523       68.540       57.999       49.305       46.828       36.903     2431.031     2192.892     1361.851        0.879        0.299       90.778       23.327        0.066      349.929       30.719      860.441
07/20/2013  10:56:00       33.733      -12.744       30.622       43.080       61.957       45.592     1855.916     3838.628     2078.610        0.500        0.389       36.060       26.479        0.539      349.752       30.411      860.430
07/20/2013  10:57:00       86.629       73.020       41.977       43.054       42.889       46.787     1853.608     1839.466     2189.008        1.024        0.294      113.298       32.805        0.084      349.697       30.315      860.423
07/20/2013  10:58:00       58.228       48.190       43.144       72.930       58.065       39.003     5318.768     3371.518     1521.255        0.889        0.511       75.583       36.122        0.228      349.873       30.621      860.408
07/20/2013  10:59:00       58.414       -6.754       16.791       69.726       67.780       29.012     4861.777     4594.061      841.693        0.702        0.515       58.803       17.267        0.086      349.603       30.153      860.392
07/20/2013  11:00:00       90.497       49.014       36.559       68.433       38.750       34.897     4683.109     1501.527     1217.805        0.966        0.370      102.918       30.378        0.087      349.964       30.781      860.381
07/20/2013  11:01:00      102.375       83.501       21.572       32.728       24.076       30.394     1071.101      579.631      923.786        1.025        0.129      132.110       16.232        0.015      349.705       30.329      860.361
07/20/2013  11:02:00       73.967       43.494       16.220       71.524       44.587       35.544     5115.712     1988.039     1263.382        0.799        0.418       85.807       30.759        0.128      350.058       30.942      860.360
07/20/2013  11:03:00        1.218      -30.175       21.556       53.026       51.645       41.418     2811.761     2667.175     1715.476        0.428        0.360       30.200       22.545        0.557      350.248       31.272      860.344
07/20/2013  11:04:00       36.761      -43.088       16.760       60.747       75.377       54.284     3690.172     5681.759     2946.732        0.790        0.616       56.639       45.177        0.636      350.293       31.352      860.345
07/20/2013  11:05:00       58.444      -32.413       10.613       57.377       79.355       53.893     3292.149     6297.172     2904.430        0.853        0.625       66.830       54.182        0.657      350.091       30.998      860.337
07/20/2013  11:06:00       48.344       26.307       37.276       36.355       34.257       37.890     1321.654     1173.534     1435.640        0.417        0.197       55.038       27.264        0.245      349.925       30.711      860.340
07/20/2013  11:07:00       -6.468       11.093       41.676       13.185       18.586       12.765      173.846      345.433      162.938        0.129        0.034       12.841       10.237        0.636      351.076       32.714      860.332
07/20/2013  11:08:00      -53.487      -11.702       13.967       22.895       15.264       17.178      524.191      232.995      295.076        0.212        0.053       54.752       12.424        0.051      350.236       31.252      860.324
07/20/2013  11:09:00      -14.088       18.977       31.919       24.105       23.728       21.826      581.031      563.000      476.365        0.160        0.081       23.634       12.667        0.287      350.514       31.733      860.323
07/20/2013  11:10:00       16.440       26.007       18.612       20.741       18.580       15.795      430.185      345.219      249.469        0.116        0.051       30.768       11.959        0.151      350.319       31.396      860.306
07/20/2013  11:11:00       18.409       16.965        9.332       28.831       18.811       29.840      831.209      353.845      890.418        0.139        0.104       25.034       12.027        0.231      349.994       30.832      860.305
07/20/2013  11:12:00        3.056       17.608       31.001       20.094       29.810       19.414      403.759      888.615      376.922        0.147        0.083       17.871       11.988        0.450      350.688       32.038      860.297
07/20/2013  11:13:00       11.828       10.587       24.647       28.875       25.762       26.237      833.783      663.666      688.393        0.152        0.109       15.874       17.289        1.186      350.712       32.080      860.296
07/20/2013  11:14:00       49.006       35.362       26.841       31.395       21.306       27.342      985.615      453.936      747.571        0.328        0.109       60.432       20.975        0.120      350.639       31.953      860.291
07/20/2013  11:15:00       53.052       21.358        6.530       26.553       32.456       32.100      705.053     1053.378     1030.427        0.305        0.139       57.190       21.501        0.141      350.153       31.107      860.279
07/20/2013  11:16:00       27.028       31.078       16.791       37.546       38.201       30.927     1409.680     1459.299      956.479        0.290        0.191       41.187       21.556        0.274      350.495       31.702      860.273
07/20/2013  11:17:00       29.948       39.346       -1.238       22.676       39.778       28.547      514.184     1582.258      814.910        0.268        0.146       49.447       21.640        0.192      350.321       31.399      860.259
07/20/2013  11:18:00        0.221        7.014       21.186       26.781       16.714       26.516      717.201      279.349      703.113        0.110        0.085        7.017       12.272        3.058      351.088       32.734      860.242
07/20/2013  11:19:00       12.954       34.394        8.557       30.377       45.019       21.999      922.748     2026.689      483.943        0.243        0.172       36.753       22.303        0.368      351.018       32.612      860.232
07/20/2013  11:20:00      -22.319       15.584       14.485       17.552       28.593       24.500      308.064      817.572      600.257        0.134        0.086       27.222       22.210        0.666      351.059       32.685      860.226
07/20/2013  11:21:00      -21.412        3.732        9.931       23.606       16.249       18.354      557.223      264.020      336.870        0.086        0.058       21.734       16.781        0.596      350.998       32.579      860.206
07/20/2013  11:22:00        4.153       19.202       26.039       38.176       22.386       20.936     1457.433      501.112      438.334        0.173        0.120       19.646       19.931        1.029      350.967       32.524      860.194
07/20/2013  11:23:00       54.335       48.359       18.604       24.956       24.477       28.602      622.822      599.127      818.046        0.384        0.102       72.739       17.612        0.059      350.576       31.843      860.193
07/20/2013  11:24:00       30.242       12.060       12.388       17.488       27.293       25.376      305.844      744.892      643.964        0.145        0.085       32.558       19.396        0.355      350.297       31.358      860.186
07/20/2013  11:25:00       23.606       18.481       36.132       26.973       21.823       26.247      727.542      476.242      688.919        0.205        0.095       29.980       19.154        0.408      350.554       31.806      860.178
07/20/2013  11:26:00       46.518       37.266        0.721       23.814       27.540       28.101      567.109      758.442      789.659        0.283        0.106       59.604        3.994        0.004      350.226       31.234      860.173
07/20/2013  11:27:00       14.986       25.609       35.423       32.257       30.466       19.468     1040.513      928.155      378.984        0.224        0.117       29.671       13.445        0.205      350.876       32.365      860.166
07/20/2013  11:28:00       -6.577      -42.342        4.361       41.062       25.414       19.375     1686.095      645.875      375.381        0.228        0.135       42.850       18.883        0.194      350.635       31.945      860.154
07/20/2013  11:29:00      -21.858        0.622       23.563       34.099       20.556       29.459     1162.765      422.530      867.815        0.174        0.123       21.866       14.190        0.421      351.468       33.399      860.149
07/20/2013  11:30:00      -47.876       -3.854       -5.306       18.845       25.118       15.446      355.123      630.906      238.575        0.178        0.061       48.030        6.684        0.019      350.761       32.163      860.140
07/20/2013  11:31:00      -16.052        5.498       19.945       38.273       29.191       18.307     1464.844      852.118      335.162        0.167        0.133       16.968       14.558        0.736      351.234       32.990      860.140
07/20/2013  11:32:00       26.651        8.204       28.747       41.424       16.854       23.831     1715.925      284.052      567.897        0.209        0.128       27.885       10.373        0.138      350.869       32.355      860.135
07/20/2013  11:33:00       42.880       16.348       16.984       23.794       25.390       22.399      566.148      644.653      501.719        0.205        0.086       45.891       15.687        0.117      350.174       31.144      860.128
07/20/2013  11:34:00       29.074       -5.134       18.717       25.111       21.744       25.880      630.583      472.821      669.777        0.150        0.089       29.523       17.082        0.335      350.589       31.866      860.125
07/20/2013  11:35:00       20.443       19.659       19.135       32.045       28.397       28.018     1026.864      806.404      785.031        0.189        0.131       28.362       23.512        0.687      350.608       31.898      860.120
07/20/2013  11:36:00       32.912      -62.045       18.397       30.204       70.261       25.283      912.270     4936.584      639.225        0.588        0.324       70.233       27.114        0.149      351.003       32.587      860.107
07/20/2013  11:37:00       19.720      -79.699       37.863       40.030       92.926       49.000     1602.433     8635.154     2401.031        1.040        0.632       82.102       52.906        0.415      351.340       33.174      860.088
07/20/2013  11:38:00       58.136     -105.906       18.680       51.901       66.948       40.264     2693.719     4482.043     1621.153        1.187        0.440      120.813       39.686        0.108      350.903       32.412      860.081
07/20/2013  11:39:00       21.035       37.184       46.185       45.968       56.960       35.456     2113.027     3244.444     1257.152        0.529        0.331       42.721       12.473        0.085      351.064       32.694      860.082
07/20/2013  11:40:00       -0.254       55.327       17.644       30.712       56.015       34.894      943.225     3137.628     1217.571        0.433        0.265       55.327       34.131        0.381      351.635       33.689      860.064
07/20/2013  11:41:00       56.311       19.331       24.650       47.083       35.453       32.765     2216.833     1256.883     1073.536        0.435        0.227       59.537       18.513        0.097      351.407       33.292      860.057
07/20/2013  11:42:00       10.105        4.502       41.847       31.230       39.198       21.070      975.301     1536.459      443.934        0.241        0.148       11.063       13.859        1.569      351.272       33.055      860.038
07/20/2013  11:43:00       57.678       87.570       77.316       68.430       61.469       42.185     4682.661     3778.493     1779.568        1.360        0.512      104.858       20.743        0.039      351.079       32.718      860.016
07/20/2013  11:44:00       11.676      -33.157       28.222       44.790       42.246       42.710     2006.175     1784.754     1824.112        0.382        0.281       35.152       28.162        0.642      351.226       32.975      860.011
07/20/2013  11:45:00       85.189       83.125       37.393       83.661       48.101       55.724     6999.100     2313.740     3105.152        1.399        0.621      119.025       39.499        0.110      351.028       32.628      860.005
07/20/2013  11:46:00        1.817        5.188       26.176       20.311       22.709       25.215      412.546      515.679      635.817        0.114        0.078        5.497       12.426        5.110      351.914       34.176      860.008
07/20/2013  11:47:00       61.617       64.648        1.052       58.793       69.802       41.221     3456.575     4872.322     1699.185        0.900        0.501       89.308       27.155        0.092      351.320       33.139      860.000
07/20/2013  11:48:00       99.216      101.392       28.350       85.257       76.410       59.564     7268.749     5838.429     3547.915        1.879        0.833      141.860       48.475        0.117      351.179       32.891      859.990
07/20/2013  11:49:00       16.236      126.239       -2.667       33.019       52.997       37.996     1090.222     2808.694     1443.668        1.077        0.267      127.278       32.956        0.067      351.432       33.333      859.981
07/20/2013  11:50:00       12.873       46.218        9.301       29.152       44.209       35.531      849.866     1954.446     1262.430        0.323        0.203       47.977       35.486        0.547      351.875       34.109      859.973
07/20/2013  11:51:00      -87.948       50.783        2.499       49.643       39.263       31.331     2464.440     1541.581      981.620        0.765        0.249      101.557       26.057        0.066      351.310       33.121      859.945
07/20/2013  11:52:00     -129.838       33.022      -16.511       26.784       29.845       20.245      717.362      890.706      409.875        1.012        0.101      133.971        9.456        0.005      350.862       32.342      859.940
07/20/2013  11:53:00     -130.048      -25.920       -0.254       28.976       38.686       26.714      839.611     1496.629      713.661        1.032        0.152      132.605       19.907        0.023      350.853       32.325      859.936
07/20/2013  11:54:00       -8.310      -11.316       15.944       58.580       33.539       35.088     3431.610     1124.880     1231.135        0.312        0.289       14.039       23.456        2.792      351.204       32.937      859.938
07/20/2013  11:55:00       58.888      -62.785        6.544       32.911       60.670       31.874     1083.125     3680.841     1015.975        0.662        0.289       86.080       36.600        0.181      351.002       32.585      859.940
07/20/2013  11:56:00       -8.786      -83.902       -2.689       49.516       27.561       25.566     2451.843      759.599      653.642        0.549        0.193       84.361       23.803        0.080      350.977       32.543      859.933
07/20/2013  11:57:00       45.088        0.795       26.379       65.084       53.778       51.699     4235.884     2892.046     2672.759        0.626        0.490       45.095       44.792        0.987      351.390       33.261      859.930
07/20/2013  11:58:00      -10.991      -14.939       16.456       34.073       24.928       23.324     1160.998      621.388      544.013        0.147        0.116       18.547       20.202        1.187      351.564       33.564      859.930
07/20/2013  11:59:00      -16.513      -47.528        8.749       26.645       25.076       21.915      709.967      628.819      480.282        0.221        0.091       50.314       12.394        0.061      351.335       33.166      859.928
07/20/2013  12:00:00        8.089       15.261       39.961       27.019       34.353       20.710      730.037     1180.119      428.898        0.212        0.117       17.272       17.662        1.046      351.491       33.438      859.920
07/20/2013  12:01:00     -103.040      -18.813        3.240       75.929       54.851       35.833     5765.184     3008.641     1284.022        1.052        0.503      104.744       38.328        0.134      351.412       33.300      859.894
07/20/2013  12:02:00     -162.489      -75.172       -2.749       34.273       43.964       26.142     1174.645     1932.855      683.427        1.793        0.190      179.035       12.967        0.005      351.110       32.771      859.884
07/20/2013  12:03:00     -107.185      -14.317        9.989       68.388       43.726       26.151     4676.948     1911.957      683.869        0.953        0.364      108.137       30.134        0.078      351.492       33.440      859.883
07/20/2013  12:04:00      -92.642      -77.905      -16.405       63.195       48.444       32.894     3993.651     2346.809     1082.048        1.117        0.371      121.044       23.641        0.038      351.260       33.034      859.868
07/20/2013  12:05:00      -55.665     -101.253       -3.298       72.307       38.022       35.447     5228.317     1445.656     1256.518        1.064        0.397      115.545       21.205        0.034      351.243       33.005      859.858
07/20/2013  12:06:00       38.693      -15.968       17.428       37.049       32.036       34.138     1372.597     1026.321     1165.406        0.281        0.178       41.858       22.406        0.287      350.983       32.551      859.849
07/20/2013  12:07:00       11.768       -7.913       21.828       23.833       28.861       34.062      568.014      832.949     1160.246        0.162        0.128       14.181       24.925        3.089      351.207       32.943      859.847
07/20/2013  12:08:00       68.087      -22.898       12.429       46.187       32.813       38.797     2133.256     1076.707     1505.175        0.501        0.236       71.834       33.465        0.217      350.888       32.388      859.830
07/20/2013  12:09:00       37.695        2.002       38.344       31.205       36.988       31.917      973.725     1368.116     1018.690        0.313        0.168       37.749       31.144        0.681      351.320       33.139      859.823
07/20/2013  12:10:00       45.969       63.664       73.969       45.101       42.442       26.075     2034.131     1801.348      679.891        0.808        0.226       78.526       13.556        0.030      351.050       32.668      859.794
07/20/2013  12:11:00       87.592       77.892       60.335       67.699       73.141       50.480     4583.222     5349.638     2548.213        1.493        0.624      117.215       50.006        0.182      351.114       32.779      859.782
07/20/2013  12:12:00       50.517      -76.973        4.553       44.142       68.761       41.399     1948.520     4728.048     1713.911        0.844        0.420       92.070       43.291        0.221      351.643       33.704      859.782
07/20/2013  12:13:00       39.583       15.953       22.764       38.965       57.716       26.490     1518.293     3331.166      701.726        0.394        0.278       42.677        7.996        0.035      351.720       33.836      859.780
07/20/2013  12:14:00      105.180       67.016       11.006       43.663       33.443       28.489     1906.429     1118.431      811.639        0.976        0.192      124.715       16.979        0.019      351.360       33.208      859.777
07/20/2013  12:15:00      143.576       73.572       11.595       47.372       45.258       46.080     2244.093     2048.275     2123.411        1.629        0.321      161.329       21.069        0.017      351.490       33.434      859.765
07/20/2013  12:16:00      149.915       76.403       10.418       88.698       64.741       35.442     7867.270     4191.436     1256.121        2.086        0.666      168.261       21.688        0.017      351.352       33.191      859.744
07/20/2013  12:17:00      201.964      121.285       15.054       78.349       60.238       46.787     6138.561     3628.643     2189.016        3.384        0.598      235.583       12.464        0.003      351.453       33.368      859.738
07/20/2013  12:18:00      125.868       87.623        8.428       68.323       53.169       32.188     4668.062     2826.971     1036.055        1.606        0.427      153.364       10.539        0.005      351.372       33.228      859.741
07/20/2013  12:19:00       35.176       -7.748       33.292       34.354       82.597       38.912     1180.227     6822.303     1514.150        0.596        0.476       36.019       44.614        1.534      351.009       32.596      859.729
07/20/2013  12:20:00       30.814        7.667       42.576       59.503       43.433       22.715     3540.561     1886.399      515.964        0.438        0.297       31.754       21.812        0.472      351.410       33.296      859.724
07/20/2013  12:21:00      118.497       64.975       12.274       64.279       51.004       39.930     4131.814     2601.433     1594.442        1.337        0.416      135.142       30.620        0.051      351.550       33.540      859.710
07/20/2013  12:22:00      129.089       88.101       66.600      127.241       74.627       70.491    16190.376     5569.228     4969.041        2.779        1.336      156.287       44.470        0.081      351.857       34.075      859.703
07/20/2013  12:23:00      228.768      124.620       37.770       77.391       63.306       55.573     5989.296     4007.703     3088.380        4.119        0.654      260.509       48.498        0.035      351.539       33.517      859.689
07/20/2013  12:24:00      160.140      103.833       36.501       66.527       41.460       47.442     4425.800     1718.972     2250.736        2.308        0.420      190.856       43.386        0.052      351.538       33.517      859.700
07/20/2013  12:25:00      112.368       59.612       28.961       68.990       53.346       49.794     4759.624     2845.814     2479.410        1.355        0.504      127.201       29.155        0.053      351.626       33.671      859.692
07/20/2013  12:26:00      123.947       68.475       12.182       55.468       39.760       39.243     3076.693     1580.845     1539.983        1.320        0.310      141.604       20.659        0.021      351.713       33.825      859.684
07/20/2013  12:27:00       99.172       90.578        5.996       62.431       60.838       51.853     3897.682     3701.255     2688.703        1.418        0.514      134.311       41.206        0.094      351.771       33.925      859.673
07/20/2013  12:28:00      172.035      138.079        2.543       62.014       37.693       41.214     3845.698     1420.753     1698.618        2.782        0.348      220.594       25.894        0.014      351.459       33.377      859.658
07/20/2013  12:29:00      110.974       94.623       16.578       35.563       30.553       33.358     1264.692      933.488     1112.732        1.243        0.166      145.838       21.485        0.022      351.492       33.440      859.652
07/20/2013  12:30:00       58.645       65.200        9.453       66.369       44.430       38.823     4404.783     1974.021     1507.213        0.783        0.394       87.694       21.767        0.062      351.536       33.516      859.634
07/20/2013  12:31:00       93.391       72.134       22.904       33.839       46.131       33.697     1145.103     2128.087     1135.483        0.943        0.220      118.005       22.388        0.036      351.255       33.025      859.623
07/20/2013  12:32:00       29.359      -53.688        0.133       40.821       30.377       20.578     1666.347      922.770      423.450        0.338        0.151       61.191       18.508        0.091      350.884       32.382      859.618
07/20/2013  12:33:00      -39.059      -61.255       -7.210       40.649       25.441       23.162     1652.332      647.260      536.496        0.408        0.142       72.648       17.371        0.057      351.483       33.423      859.586
07/20/2013  12:34:00      -49.435       -7.288       10.936       13.247       16.088       15.698      175.483      258.831      246.433        0.165        0.034       49.969        8.640        0.030      351.683       33.773      859.567
07/20/2013  12:35:00       30.270       22.072       14.736       53.685       20.137       30.785     2882.048      405.490      947.747        0.293        0.212       37.463       16.670        0.198      350.781       32.200      859.568
07/20/2013  12:36:00       46.448       36.780       43.245       61.249       40.434       44.635     3751.458     1634.948     1992.277        0.638        0.369       59.247       19.947        0.113      351.503       33.458      859.544
07/20/2013  12:37:00      147.055       90.459       33.618       72.903       54.490       44.998     5314.920     2969.171     2024.836        2.062        0.515      172.650       35.139        0.041      351.890       34.132      859.528
07/20/2013  12:38:00       62.646       17.111       50.675       51.944       97.201       35.308     2698.191     9448.062     1246.659        1.009        0.670       64.941       25.282        0.152      351.869       34.096      859.533
07/20/2013  12:39:00       11.892      -43.818       19.164       33.332       69.370       41.290     1111.014     4812.147     1704.830        0.503        0.381       45.403       48.643        1.148      352.010       34.344      859.510
07/20/2013  12:40:00      162.541      126.736       67.606      111.915       61.947       67.919    12524.904     3837.370     4613.055        3.401        1.049      206.111       60.736        0.087      351.408       33.288      859.503
07/20/2013  12:41:00       83.013       70.451       -6.561       86.435       67.696       33.214     7470.948     4582.775     1103.176        1.252        0.658      108.878       35.782        0.108      351.736       33.863      859.512
07/20/2013  12:42:00       12.436        7.653       26.822       29.403       46.110       27.013      864.512     2126.170      729.709        0.233        0.186       14.602       29.495        4.080      351.978       34.289      859.494
07/20/2013  12:43:00      157.741      126.619       14.721       75.107       67.702       56.112     5640.993     4583.515     3148.580        2.725        0.669      202.273       35.053        0.030      351.776       33.932      859.472
07/20/2013  12:44:00       85.409       50.619       44.942       70.408       44.829       50.408     4957.322     2009.659     2540.965        1.069        0.475       99.282       28.495        0.082      352.058       34.427      859.449
07/20/2013  12:45:00       89.807       93.660       29.518       72.727       47.947       59.361     5289.207     2298.886     3523.726        1.441        0.556      129.759       46.578        0.129      351.768       33.919      859.449
07/20/2013  12:46:00       54.689       48.749       11.362       47.118       43.602       33.678     2220.136     1901.142     1134.208        0.537        0.263       73.263       19.122        0.068      352.114       34.526      859.452
07/20/2013  12:47:00       92.097        9.640       27.343       65.824       66.117       47.386     4332.809     4371.472     2245.433        1.013        0.547       92.600       36.867        0.159      351.566       33.567      859.438
07/20/2013  12:48:00      115.573       76.027       12.567       38.886       46.344       42.560     1512.158     2147.729     1811.389        1.238        0.274      138.337        9.251        0.004      351.612       33.649      859.441
07/20/2013  12:49:00      101.259       60.931       20.083       70.124       46.273       27.121     4917.315     2141.156      735.568        1.108        0.390      118.177       24.883        0.044      351.740       33.871      859.427
07/20/2013  12:50:00       -6.317       30.699       -1.181       51.227       27.242       27.813     2624.251      742.111      773.562        0.256        0.207       31.342        9.990        0.102      352.049       34.412      859.420
07/20/2013  12:51:00      -12.280       39.881       13.346       24.095       33.318       22.811      580.551     1110.101      520.352        0.206        0.111       41.729       19.365        0.215      352.471       35.150      859.403
07/20/2013  12:52:00       18.708       29.512       25.954       20.302       18.045       15.815      412.188      325.606      250.116        0.144        0.049       34.942       11.577        0.110      352.069       34.446      859.387
07/20/2013  12:53:00       25.436       30.071        9.934       43.455       29.719       32.410     1888.374      883.195     1050.388        0.274        0.191       39.386       20.260        0.265      352.215       34.701      859.383
07/20/2013  12:54:00        6.358       -0.934       24.041       28.051       32.835       17.717      786.855     1078.116      313.901        0.140        0.109        6.426        4.263        0.440      352.149       34.587      859.369
07/20/2013  12:55:00       19.167       10.773       31.597       23.587       36.188       24.090      556.347     1309.583      580.326        0.196        0.122       21.987       11.957        0.296      352.348       34.935      859.355
07/20/2013  12:56:00       59.347       13.591       31.878       58.608       30.767       28.120     3434.953      946.592      790.717        0.495        0.259       60.883       16.592        0.074      351.925       34.196      859.341
07/20/2013  12:57:00       70.482       92.049       69.201       62.734       52.448       51.292     3935.609     2750.787     2630.889        1.377        0.466      115.934       43.906        0.143      351.220       32.963      859.332
07/20/2013  12:58:00       73.027      -25.212       15.148       56.538       60.874       47.261     3196.569     3705.598     2233.562        0.767        0.457       77.257       57.006        0.544      351.632       33.683      859.335
07/20/2013  12:59:00       73.548      -28.916       23.393       48.954       40.564       34.191     2396.526     1645.458     1168.999        0.600        0.261       79.028       35.721        0.204      351.667       33.745      859.329
07/20/2013  13:00:00       17.358      -45.561       17.913       20.007       38.695       19.673      400.280     1497.338      387.038        0.249        0.114       48.756       21.219        0.189      352.354       34.943      859.319
07/20/2013  13:01:00       60.121       46.946       27.341       29.753       27.481       35.244      885.224      755.193     1242.161        0.472        0.144       76.278       13.552        0.032      351.591       33.613      859.303
07/20/2013  13:02:00       36.477      -25.572       -1.510       34.652       24.471       25.207     1200.790      598.822      635.395        0.221        0.122       44.548       15.393        0.119      351.203       32.935      859.300
07/20/2013  13:03:00       25.848      -14.390       18.254       32.052       36.048       32.729     1027.362     1299.461     1071.203        0.230        0.170       29.583       24.095        0.663      351.697       33.797      859.287
07/20/2013  13:04:00       25.479       14.425       18.599       26.035       24.834       28.264      677.843      616.732      798.869        0.165        0.105       29.279       14.868        0.258      351.792       33.964      859.288
07/20/2013  13:05:00       27.175      -25.851       23.371       29.198       26.041       27.085      852.519      678.109      733.613        0.211        0.113       37.506       17.967        0.229      351.792       33.963      859.276
07/20/2013  13:06:00       43.084      -72.148      -10.194       24.941       34.446       22.533      622.069     1186.553      507.733        0.474        0.116       84.033       15.847        0.036      351.247       33.012      859.271
07/20/2013  13:07:00       37.427      -22.249       19.152       46.055       53.414       39.105     2121.046     2853.020     1529.239        0.438        0.325       43.541       29.137        0.448      352.117       34.530      859.256
07/20/2013  13:08:00       42.575      -53.917        3.577       62.444       53.165       42.588     3899.291     2826.525     1813.698        0.663        0.427       68.700       41.451        0.364      351.927       34.199      859.251
07/20/2013  13:09:00       20.962      -46.508       13.042       21.719       53.607       23.162      471.732     2873.729      536.466        0.333        0.194       51.013       24.689        0.234      352.028       34.374      859.239
07/20/2013  13:10:00       37.690       -3.485       23.681       34.929       29.487       27.359     1220.054      869.502      748.533        0.242        0.142       37.850       24.760        0.428      351.943       34.226      859.230
07/20/2013  13:11:00       29.264       26.916       31.676       46.579       36.559       46.810     2169.615     1336.536     2191.197        0.414        0.285       39.760       33.686        0.718      352.328       34.899      859.214
07/20/2013  13:12:00       49.164       52.068       11.835       46.664       28.816       30.403     2177.511      830.366      924.350        0.460        0.197       71.611       20.113        0.079      352.214       34.700      859.206
07/20/2013  13:13:00      -35.299      -15.213       -2.241       29.070       25.130       26.668      845.050      631.524      711.182        0.183        0.109       38.437       23.639        0.378      352.604       35.381      859.188
07/20/2013  13:14:00       -0.696        3.035       22.665       23.548       17.558       15.213      554.503      308.300      231.443        0.081        0.055        3.114       12.121       15.150      352.844       35.802      859.171
07/20/2013  13:15:00      -35.094       28.264       27.678       55.639       30.999       26.578     3095.648      960.966      706.374        0.378        0.238       45.060       32.785        0.529      352.426       35.071      859.152
07/20/2013  13:16:00      -88.984       41.733       -9.016       26.872       25.591       17.997      722.114      654.913      323.880        0.572        0.085       98.284        9.744        0.010      352.222       34.716      859.135
07/20/2013  13:17:00     -101.805       51.019      -13.331       19.938       26.348       21.029      397.531      694.215      442.226        0.734        0.077      113.874       13.495        0.014      352.224       34.716      859.116
07/20/2013  13:18:00      -49.496       -9.185       -9.901       37.475       47.963       21.542     1404.352     2300.422      464.062        0.340        0.208       50.341        9.892        0.039      352.335       34.912      859.110
07/20/2013  13:19:00       29.552        2.434       14.018       34.231       33.883       26.805     1171.757     1148.027      718.504        0.206        0.152       29.653       20.420        0.474      352.442       35.100      859.085
07/20/2013  13:20:00      -14.296      -12.814        0.383       41.989       27.403       30.508     1763.112      750.900      930.765        0.191        0.172       19.198       19.688        1.052      351.997       34.322      859.065
07/20/2013  13:21:00      -75.081      -73.152       -5.892       51.471       33.698       24.489     2649.262     1135.557      599.721        0.770        0.219      104.825       18.365        0.031      352.331       34.905      859.056
07/20/2013  13:22:00      -15.970      -17.641       32.835       34.871       59.392       37.862     1215.999     3527.433     1433.520        0.391        0.309       23.796       41.065        2.978      352.440       35.095      859.040
07/20/2013  13:23:00        0.542     -100.028       -9.294       27.547       33.576       25.511      758.858     1127.323      650.804        0.631        0.127      100.030        8.690        0.008      352.456       35.124      859.032
07/20/2013  13:24:00      -18.153      -33.811       16.914       72.280       40.329       26.150     5224.426     1626.427      683.822        0.465        0.377       38.376       19.574        0.260      352.705       35.560      859.030
07/20/2013  13:25:00      -23.687      -28.037       12.454       46.396       46.960       25.643     2152.547     2205.288      657.578        0.326        0.251       36.703       25.698        0.490      352.819       35.758      859.020
07/20/2013  13:26:00       30.051      -30.779       31.789       32.596       58.389       35.213     1062.507     3409.279     1239.990        0.429        0.286       43.017       39.897        0.860      352.608       35.388      859.013
07/20/2013  13:27:00       30.661       12.247       29.896       41.693       37.085       35.186     1738.284     1375.285     1238.064        0.317        0.218       33.016       18.153        0.302      352.236       34.739      858.994
07/20/2013  13:28:00      -39.941      -15.983       14.700       41.088       42.833       29.617     1688.246     1834.693      877.165        0.323        0.220       43.020       24.063        0.313      352.720       35.585      858.973
07/20/2013  13:29:00      -41.061      -75.598        3.161       25.959       59.793       27.880      673.888     3575.173      777.293        0.622        0.251       86.030       25.449        0.088      352.328       34.898      858.965
07/20/2013  13:30:00      -31.914      -43.149        7.547       27.929       35.963       19.792      780.038     1293.354      391.729        0.270        0.123       53.669       19.755        0.135      352.629       35.427      858.945
07/20/2013  13:31:00        2.566       -0.146       23.076       33.312       32.209       24.150     1109.678     1037.428      583.205        0.163        0.137        2.571       22.019       73.368      352.558       35.300      858.938
07/20/2013  13:32:00       -0.333      -33.650        3.002       22.619       53.726       22.339      511.621     2886.507      499.017        0.252        0.195       33.652       20.367        0.366      352.531       35.255      858.927
07/20/2013  13:33:00      -20.359      -46.997       -5.860       48.711       52.728       26.706     2372.800     2780.214      713.198        0.426        0.293       51.217       26.605        0.270      352.372       34.974      858.920
07/20/2013  13:34:00       23.615      -22.450       -7.460       53.852       42.506       40.511     2899.996     1806.772     1641.179        0.373        0.317       32.583       40.930        1.578      352.533       35.256      858.921
07/20/2013  13:35:00       21.177      -17.276       25.023       20.230       24.356       25.036      409.250      593.198      626.817        0.150        0.081       27.330       12.925        0.224      352.593       35.363      858.899
07/20/2013  13:36:00       19.732      -19.190       30.426       25.542       37.770       22.603      652.383     1426.564      510.876        0.214        0.129       27.525       22.687        0.679      352.109       34.516      858.888
07/20/2013  13:37:00       -8.526      -61.313        8.342       32.798       38.187       27.048     1075.716     1458.277      731.617        0.358        0.163       61.903       23.832        0.148      352.514       35.226      858.884
07/20/2013  13:38:00        2.553       12.986       50.177       22.172       33.617       19.860      491.603     1130.132      394.412        0.235        0.101       13.234       20.668        2.439      352.560       35.305      858.869
07/20/2013  13:39:00        2.314       16.044       47.334       20.768       31.095       17.627      431.315      966.894      310.720        0.211        0.085       16.210       12.296        0.575      352.690       35.533      858.854
07/20/2013  13:40:00       60.668        3.367        8.556       45.750       45.057       29.668     2093.059     2030.172      880.205        0.438        0.250       60.761       16.462        0.073      351.302       33.109      858.841
07/20/2013  13:41:00       44.660      -20.088       12.472       37.560       45.991       38.600     1410.786     2115.172     1489.942        0.378        0.251       48.969       36.001        0.540      351.677       33.763      858.836
07/20/2013  13:42:00       11.407      -15.984       18.611       16.388       41.034       26.762      268.569     1683.825      716.215        0.170        0.133       19.637       30.438        2.403      352.462       35.134      858.817
07/20/2013  13:43:00       22.335      -10.901       21.490       41.543       35.684       26.640     1725.787     1273.346      709.714        0.239        0.185       24.853       24.930        1.006      352.357       34.950      858.806
07/20/2013  13:44:00       65.445        8.175       36.204       49.980       77.524       52.935     2498.028     6010.044     2802.072        0.848        0.566       65.953       50.004        0.575      352.331       34.904      858.771
07/20/2013  13:45:00       34.813       25.745       33.869       54.260       65.410       58.003     2944.151     4278.522     3364.368        0.680        0.529       43.298       46.935        1.175      352.656       35.475      858.765
07/20/2013  13:46:00      205.620      130.276       30.629       81.425       90.029       66.021     6630.109     8105.143     4358.752        3.964        0.955      243.416       33.898        0.019      352.644       35.448      858.741
07/20/2013  13:47:00       55.946       47.456       70.386       70.957       70.192       47.090     5034.904     4926.934     2217.482        1.126        0.609       73.363       38.637        0.277      352.587       35.351      858.728
07/20/2013  13:48:00       41.308       33.686       46.580       58.858       75.743       43.619     3464.273     5736.969     1902.594        0.806        0.555       53.301       39.853        0.559      352.475       35.157      858.714
07/20/2013  13:49:00      118.430      -66.050       28.366       75.543       69.821       53.721     5706.764     4875.010     2885.923        1.633        0.673      135.604       47.717        0.124      352.425       35.068      858.697
07/20/2013  13:50:00       85.835      -97.536       18.789       77.042       82.276       58.960     5935.436     6769.275     3476.242        1.670        0.809      129.927       51.557        0.157      352.840       35.794      858.681
07/20/2013  13:51:00      117.892      -57.825       40.967       84.377       80.794       63.759     7119.402     6527.701     4065.218        1.831        0.886      131.310       58.498        0.198      352.374       34.979      858.673
07/20/2013  13:52:00       72.153       -0.855       62.633       72.545       69.598       52.585     5262.723     4843.945     2765.209        1.100        0.644       72.158       50.572        0.491      352.290       34.833      858.673
07/20/2013  13:53:00       17.576        0.363       47.510       49.977       66.305       50.583     2497.665     4396.329     2558.621        0.601        0.473       17.579       25.645        2.128      352.407       35.039      858.656
07/20/2013  13:54:00       94.982       45.014       64.497       79.589       89.309       67.060     6334.380     7976.147     4497.089        1.700        0.940      105.108       68.764        0.428      352.240       34.745      858.644
07/20/2013  13:55:00       53.600      -96.078        5.583       65.486       91.851       56.278     4288.411     8436.609     3167.242        1.401        0.795      110.018       53.289        0.235      352.976       36.032      858.638
07/20/2013  13:56:00       24.848      -21.571       22.882       39.015       92.649       42.601     1522.168     8583.767     1814.844        0.676        0.596       32.905       48.926        2.211      353.002       36.078      858.626
07/20/2013  13:57:00       75.335       -6.723       19.999       43.198       48.600       39.706     1866.060     2361.924     1576.553        0.596        0.290       75.635       29.539        0.153      352.007       34.338      858.636
07/20/2013  13:58:00       30.384       29.230       32.959       34.591       29.547       29.426     1196.509      873.037      865.895        0.290        0.147       42.161       20.582        0.238      352.406       35.036      858.639
07/20/2013  13:59:00      -46.952        3.109       -1.156       30.276       20.827       14.517      916.606      433.774      210.741        0.189        0.078       47.055        8.973        0.036      352.858       35.828      858.621
07/20/2013  14:00:00        2.234       19.771       23.538       46.587       24.089       19.952     2170.388      580.269      398.094        0.205        0.157       19.897       15.909        0.639      352.487       35.177      858.613
07/20/2013  14:01:00       14.535       -1.847       12.847       27.798       15.296       20.154      772.704      233.980      406.184        0.090        0.071       14.651       16.045        1.199      352.186       34.652      858.604
07/20/2013  14:02:00       22.661       13.116       13.424       21.711       20.458       22.168      471.356      418.549      491.433        0.112        0.069       26.183       10.462        0.160      352.307       34.864      858.587
07/20/2013  14:03:00       17.081       28.310       12.215       28.211       37.462       17.309      795.840     1403.396      299.599        0.187        0.125       33.064       13.659        0.171      352.714       35.574      858.566
07/20/2013  14:04:00       19.680       21.838       16.221       29.069       42.703       21.693      845.033     1823.517      470.599        0.213        0.157       29.397       15.098        0.264      352.640       35.445      858.561
07/20/2013  14:05:00       19.970       97.905      -16.035       36.794       63.468       43.972     1353.793     4028.197     1933.511        0.878        0.366       99.921       37.753        0.143      352.869       35.847      858.548
07/20/2013  14:06:00       -9.912      213.896      -30.020       45.574       60.667       25.075     2076.968     3680.448      628.779        2.657        0.319      214.125       18.755        0.008      352.647       35.454      858.533
07/20/2013  14:07:00      -37.596      168.747      -24.555       32.390       44.867       26.719     1049.084     2013.066      713.890        1.713        0.189      172.885       14.816        0.007      352.734       35.608      858.510
07/20/2013  14:08:00      -79.123       84.185      -23.673       33.916       91.090       27.641     1150.307     8297.354      764.028        1.206        0.511      115.532       13.348        0.013      352.849       35.809      858.490
07/20/2013  14:09:00       42.906       13.615       12.059       41.391       19.013       26.424     1713.208      361.504      698.242        0.247        0.139       45.014       23.264        0.267      353.188       36.405      858.483
07/20/2013  14:10:00        0.795      -21.789       33.360       51.821       50.167       31.714     2685.454     2516.727     1005.788        0.390        0.310       21.803       30.077        1.903      352.990       36.059      858.466
07/20/2013  14:11:00       -2.769     -107.985        0.550       50.363       52.863       33.073     2536.387     2794.464     1093.824        0.905        0.321      108.021       18.474        0.029      352.909       35.916      858.442
07/20/2013  14:12:00       21.318      -92.237      -10.265       37.539       44.048       24.841     1409.188     1940.234      617.074        0.652        0.198       94.669        7.014        0.005      352.750       35.635      858.445
07/20/2013  14:13:00       -5.271      -43.950        8.749       34.796       35.767       23.954     1210.753     1279.263      573.771        0.255        0.153       44.264       19.282        0.190      353.205       36.434      858.436
07/20/2013  14:14:00      -27.998      -54.515       13.204       30.784       41.199       27.068      947.683     1697.396      732.660        0.365        0.169       61.285       26.605        0.188      353.104       36.258      858.424
07/20/2013  14:15:00       -0.109       27.882       26.732       30.438       37.104       24.008      926.496     1376.734      576.386        0.219        0.144       27.883       14.896        0.285      353.064       36.187      858.397
07/20/2013  14:16:00       -3.904       56.986        0.565       18.287       22.215       20.358      334.417      493.499      414.447        0.225        0.062       57.119        9.085        0.025      352.841       35.797      858.387
07/20/2013  14:17:00       -0.025       36.039       16.701       26.493       32.163       27.855      701.887     1034.464      775.914        0.204        0.126       36.039       21.727        0.363      353.586       37.103      858.363
07/20/2013  14:18:00      -53.374      -17.818        4.917       23.941       32.430       24.625      573.177     1051.684      606.387        0.271        0.112       56.269       12.188        0.047      353.402       36.781      858.333
07/20/2013  14:19:00       -6.624       -1.523        9.739       27.402       31.555       27.284      750.872      995.716      744.437        0.132        0.125        6.797       21.689       10.183      353.226       36.472      858.323
07/20/2013  14:20:00      -24.475      -65.008       28.631       27.780       53.646       39.963      771.726     2877.898     1597.005        0.544        0.262       69.463       19.584        0.079      353.552       37.043      858.301
07/20/2013  14:21:00       28.589      -76.816       26.929       45.903       65.368       42.188     2107.109     4272.952     1779.855        0.780        0.408       81.964       35.020        0.183      353.038       36.142      858.288
07/20/2013  14:22:00       87.220       40.720       59.817       74.157       84.921       75.741     5499.317     7211.499     5736.634        1.564        0.922       96.257       68.988        0.514      352.480       35.165      858.278
07/20/2013  14:23:00       48.309      -17.970       47.693       60.226       94.569       56.920     3627.169     8943.388     3239.892        1.037        0.791       51.543       52.017        1.018      352.721       35.586      858.258
07/20/2013  14:24:00       31.669        0.693       56.968       56.390       70.506       49.918     3179.784     4971.033     2491.836        0.744        0.532       31.677       46.431        2.148      353.012       36.096      858.244
07/20/2013  14:25:00       52.307       63.005       76.655       66.155       53.589       48.422     4376.489     2871.747     2344.658        1.109        0.480       81.888       41.251        0.254      352.844       35.803      858.245
07/20/2013  14:26:00       88.177       33.886       54.826       72.596       52.084       43.384     5270.138     2712.691     1882.209        1.090        0.493       94.464       39.553        0.175      352.578       35.338      858.225
07/20/2013  14:27:00       34.674      -79.038        6.964       81.862       87.748       60.143     6701.439     7699.680     3617.170        1.275        0.901       86.309       61.655        0.510      352.980       36.039      858.231
07/20/2013  14:28:00      -16.022     -141.564        8.687       78.786       78.630       52.846     6207.247     6182.669     2792.717        1.777        0.759      142.468       29.058        0.042      353.007       36.085      858.217
07/20/2013  14:29:00      -71.556     -146.899       -9.925       86.310       84.269       44.590     7449.396     7101.198     1988.239        2.167        0.827      163.400       40.280        0.061      353.006       36.083      858.202
07/20/2013  14:30:00      -38.848      -37.313       16.476       48.624       73.097       33.981     2364.335     5343.116     1154.724        0.602        0.443       53.865       39.828        0.547      353.169       36.371      858.214
07/20/2013  14:31:00       89.248     -159.686      -21.275       73.041      108.595       42.124     5335.019    11792.875     1774.457        2.641        0.945      182.934       54.685        0.089      352.737       35.612      858.179
07/20/2013  14:32:00       66.634      -30.725       32.801       45.564       53.394       53.646     2076.113     2850.939     2877.845        0.713        0.390       73.376       42.058        0.329      352.869       35.846      858.166
07/20/2013  14:33:00       19.568      -17.426       29.664       40.497       64.587       41.119     1640.043     4171.461     1690.735        0.453        0.375       26.202       39.963        2.326      352.465       35.139      858.153
07/20/2013  14:34:00       84.575     -169.392      -29.955       50.317       57.805       31.052     2531.764     3341.373      964.227        2.179        0.342      189.332       14.094        0.006      352.852       35.814      858.139
07/20/2013  14:35:00       42.279      -46.597       11.940       44.524       67.927       38.021     1982.392     4614.084     1445.627        0.607        0.402       62.919       47.303        0.565      352.866       35.841      858.117
07/20/2013  14:36:00       29.486      -51.548       16.415       25.281       38.217       20.878      639.113     1460.519      435.881        0.317        0.127       59.385        7.832        0.017      353.045       36.153      858.100
07/20/2013  14:37:00       -3.089      -35.251       34.356       23.818       39.069       27.415      567.314     1526.387      751.567        0.264        0.142       35.386       23.455        0.439      353.131       36.306      858.085
07/20/2013  14:38:00        5.731      -37.137       19.028       40.201       52.253       29.958     1616.086     2730.403      897.507        0.351        0.262       37.577       17.450        0.216      353.113       36.275      858.071
07/20/2013  14:39:00       13.328      -42.138       21.897       37.128       46.568       23.368     1378.496     2168.544      546.070        0.326        0.205       44.195       26.524        0.360      353.162       36.358      858.062
07/20/2013  14:40:00       19.587      -10.984       25.102       31.869       37.876       25.994     1015.640     1434.566      675.674        0.213        0.156       22.457       19.303        0.739      352.897       35.895      858.035
07/20/2013  14:41:00      -25.601      -21.059       15.983       49.865       39.352       23.970     2486.522     1548.598      574.540        0.298        0.230       33.149       26.188        0.624      353.330       36.653      858.017
07/20/2013  14:42:00      -12.211      -69.299       -5.661       42.849       59.684       19.812     1836.023     3562.147      392.504        0.539        0.290       70.367       18.289        0.068      353.138       36.315      858.014
07/20/2013  14:43:00        4.165        3.087       35.582       38.693       32.409       23.921     1497.159     1050.351      572.199        0.221        0.156        5.184       17.728       11.695      352.956       35.999      857.999
07/20/2013  14:44:00       50.802     -115.975        1.168       49.027       58.367       32.782     2403.654     3406.718     1074.659        1.146        0.344      126.613       19.350        0.023      353.076       36.209      857.981
07/20/2013  14:45:00       67.075     -107.747      -11.144       60.989       84.263       52.867     3719.673     7100.287     2794.924        1.492        0.681      126.919       48.189        0.144      353.372       36.727      857.960
07/20/2013  14:46:00       58.392      -89.598        6.410       61.402       76.640       57.717     3770.216     5873.668     3331.279        1.222        0.649      106.946       57.068        0.285      353.361       36.708      857.965
07/20/2013  14:47:00        1.373      -91.774       19.692       45.318       53.845       53.459     2053.678     2899.321     2857.875        0.831        0.391       91.784       29.458        0.103      353.471       36.900      857.968
07/20/2013  14:48:00       18.689      -75.536       15.022       44.057       47.600       42.294     1941.061     2265.774     1788.822        0.614        0.300       77.814       32.344        0.173      353.496       36.944      857.953
07/20/2013  14:49:00       -8.881      -43.269       15.877       55.538       58.195       41.144     3084.448     3386.706     1692.813        0.518        0.408       44.171       28.700        0.422      353.605       37.136      857.940
07/20/2013  14:50:00      -56.630      -47.885      -16.782       40.491       42.361       28.513     1639.539     1794.461      812.980        0.501        0.212       74.162       24.070        0.105      353.070       36.197      857.937
07/20/2013  14:51:00      -61.481      -30.459       -5.613       38.325       41.012       21.440     1468.814     1681.950      459.665        0.417        0.181       68.612       11.970        0.030      353.092       36.237      857.931
07/20/2013  14:52:00       -1.225      -26.239       23.852       36.843       32.312       25.943     1357.410     1044.088      673.046        0.217        0.154       26.267       19.595        0.557      353.498       36.949      857.925
07/20/2013  14:53:00      -65.315       25.685       14.030       22.152       21.687       25.669      490.727      470.329      658.891        0.337        0.081       70.184       18.920        0.073      353.394       36.766      857.914
07/20/2013  14:54:00      -27.751      -19.841       18.188       40.196       46.211       27.635     1615.703     2135.491      763.690        0.300        0.226       34.114       17.920        0.276      353.627       37.175      857.896
07/20/2013  14:55:00       50.836     -140.476      -15.399       28.770       67.455       36.439      827.725     4550.216     1327.794        1.463        0.335      149.392       37.435        0.063      353.146       36.331      857.886
07/20/2013  14:56:00       17.439      -11.371       21.025       29.795       31.032       32.889      887.720      962.983     1081.704        0.190        0.147       20.818       27.744        1.776      353.446       36.857      857.879
07/20/2013  14:57:00      -36.092      -44.030       11.188       61.233       39.491       32.227     3749.488     1559.565     1038.590        0.486        0.317       56.933       26.240        0.212      353.623       37.168      857.867
07/20/2013  14:58:00      -55.906       13.194       16.370       29.058       30.630       23.934      844.346      938.193      572.823        0.296        0.118       57.442       21.418        0.139      353.486       36.926      857.846
07/20/2013  14:59:00     -113.846       -9.637       -9.992       42.960       35.199       30.579     1845.586     1238.940      935.079        0.859        0.201      114.254       26.114        0.052      353.231       36.479      857.821
07/20/2013  15:00:00      -36.661       29.780       21.153       66.333       22.117       21.596     4400.062      489.155      466.394        0.402        0.268       47.232       30.312        0.412      353.375       36.731      857.811
07/20/2013  15:01:00       50.559       27.619       22.139       42.293       41.680       35.099     1788.702     1737.238     1231.918        0.428        0.238       57.611       30.277        0.276      352.708       35.564      857.803
07/20/2013  15:02:00      208.073      157.310       40.464      116.503       74.903       61.007    13573.020     5610.502     3721.843        4.629        1.145      260.847       46.950        0.032      353.296       36.590      857.773
07/20/2013  15:03:00      305.704      171.444       42.532      112.493      103.390       65.022    12654.582    10689.446     4227.864        7.611        1.379      350.496       40.239        0.013      353.471       36.897      857.740
07/20/2013  15:04:00      127.643       85.603       48.854       80.845       52.132       53.565     6535.952     2717.782     2869.181        1.906        0.606      153.690       31.666        0.042      353.238       36.491      857.749
07/20/2013  15:05:00      140.564      113.588       77.497       88.861       74.027       62.979     7896.325     5479.969     3966.369        2.800        0.867      180.722       48.639        0.072      353.345       36.678      857.736
07/20/2013  15:06:00      159.960      123.258      101.746      102.255       76.874       60.492    10456.029     5909.605     3659.231        3.557        1.001      201.940       42.645        0.045      353.302       36.601      857.722
07/20/2013  15:07:00      120.830      103.463       64.670      127.616       65.926       62.623    16285.877     4346.294     3921.667        2.702        1.228      159.074       50.298        0.100      353.012       36.094      857.685
07/20/2013  15:08:00      224.127      154.356       38.478      122.021       76.914       71.128    14889.087     5915.747     5059.168        5.070        1.293      272.137       48.443        0.032      353.384       36.744      857.670
07/20/2013  15:09:00      221.449      161.386       39.928       88.337       55.579       55.246     7803.471     3089.033     3052.092        4.531        0.697      274.017       47.225        0.030      353.233       36.478      857.666
07/20/2013  15:10:00      232.886      164.331       39.210       73.065       49.485       51.609     5338.543     2448.803     2663.466        4.661        0.523      285.027       25.215        0.008      353.283       36.565      857.637
07/20/2013  15:11:00      131.485       76.209       34.853       98.799       57.585       57.356     9761.194     3316.060     3289.708        2.034        0.818      151.974       33.478        0.049      353.384       36.746      857.599
07/20/2013  15:12:00      -17.036      -18.612      -12.020       52.682       98.054       33.321     2775.425     9614.640     1110.262        0.714        0.675       25.232       22.168        0.772      353.612       37.148      857.598
07/20/2013  15:13:00       34.387        3.417       22.033       42.406       42.144       28.729     1798.243     1776.114      825.338        0.304        0.220       34.557       22.290        0.416      353.329       36.654      857.589
07/20/2013  15:14:00       62.070       -8.461        4.172       35.772       27.246       23.905     1279.608      742.360      571.455        0.327        0.130       62.644       15.573        0.062      352.910       35.918      857.593
07/20/2013  15:15:00       86.579       28.367       22.704       71.559       56.972       46.690     5120.707     3245.759     2179.997        0.968        0.527       91.108       23.189        0.065      353.279       36.564      857.575
07/20/2013  15:16:00       13.753        9.734       17.495       68.946       51.692       38.763     4753.582     2672.060     1502.540        0.476        0.446       16.849       22.056        1.714      353.654       37.220      857.556
07/20/2013  15:17:00      142.267       66.981       28.386       74.370       59.316       47.102     5530.948     3518.331     2218.552        1.840        0.563      157.247       12.630        0.006      352.988       36.054      857.561
07/20/2013  15:18:00      190.346      143.002       30.476       76.882       51.895       50.330     5910.819     2693.054     2533.087        3.437        0.557      238.078       20.593        0.007      353.290       36.579      857.546
07/20/2013  15:19:00       86.604       94.864        6.878       62.235       51.226       48.379     3873.228     2624.083     2340.538        1.269        0.442      128.450       30.764        0.057      353.579       37.090      857.543
07/20/2013  15:20:00      122.195      105.238       31.222      107.536       91.059       72.712    11563.885     8291.726     5286.977        2.606        1.257      161.266       53.576        0.110      353.649       37.210      857.515
07/20/2013  15:21:00       73.397       -2.063       44.899       81.604       77.537       60.860     6659.257     6011.991     3703.900        1.189        0.819       73.426       45.081        0.377      352.844       35.801      857.521
07/20/2013  15:22:00       85.358       -1.421       41.255       78.607       73.267       48.489     6179.130     5368.074     2351.155        1.144        0.695       85.370       57.017        0.446      352.423       35.064      857.508
07/20/2013  15:23:00       60.133      -46.481       23.675       47.307       49.452       45.126     2237.987     2445.480     2036.372        0.653        0.336       76.003       37.546        0.244      352.426       35.071      857.509
07/20/2013  15:24:00       38.826       -0.662       44.935       63.726       53.589       34.196     4061.002     2871.832     1169.337        0.581        0.405       38.831       26.992        0.483      352.753       35.643      857.493
07/20/2013  15:25:00        3.205       29.249       27.087       19.689       25.918       15.331      387.667      671.721      235.038        0.145        0.065       29.424        3.235        0.012      353.058       36.178      857.480
07/20/2013  15:26:00       42.818       48.801        0.239       52.510       40.141       31.979     2757.345     1611.274     1022.673        0.480        0.270       64.923       25.693        0.157      352.190       34.659      857.472
07/20/2013  15:27:00       70.464      111.978        5.132       65.051       80.100       50.881     4231.627     6416.001     2588.913        1.538        0.662      132.303       52.322        0.156      353.743       37.376      857.451
07/20/2013  15:28:00       39.768       29.232       10.571       49.201       65.522       37.362     2420.702     4293.116     1395.905        0.533        0.405       49.356       16.896        0.117      353.906       37.664      857.453
07/20/2013  15:29:00       64.230       51.862       19.320       72.996       52.288       40.433     5328.390     2734.076     1634.799        0.844        0.485       82.554       14.306        0.030      353.879       37.616      857.452
07/20/2013  15:30:00       -1.122       86.451      -11.111       38.304       41.424       27.465     1467.207     1715.970      754.308        0.577        0.197       86.458       21.148        0.060      353.619       37.160      857.437
07/20/2013  15:31:00       18.844       -5.641        8.987       38.221       35.414       29.145     1460.839     1254.139      849.415        0.202        0.178       19.671       17.516        0.793      353.650       37.216      857.420
07/20/2013  15:32:00       46.379      -44.030       14.764       39.720       53.330       24.809     1577.701     2844.093      615.490        0.467        0.252       63.950       18.873        0.087      353.406       36.786      857.406
07/20/2013  15:33:00       32.882       31.861       16.792       28.726       21.125       28.350      825.194      446.255      803.751        0.223        0.104       45.786       17.177        0.141      352.948       35.985      857.401
07/20/2013  15:34:00       72.804       39.895       26.757       33.808       36.781       31.020     1142.948     1352.816      962.266        0.553        0.173       83.018       14.137        0.029      352.776       35.684      857.386
07/20/2013  15:35:00      -78.085       12.683        1.112      104.392       50.257       36.357    10897.776     2525.721     1321.806        1.050        0.737       79.109       44.346        0.314      353.468       36.894      857.348
07/20/2013  15:36:00     -166.133      -26.450        7.823       80.971       83.911       47.144     6556.355     7041.084     2222.589        2.209        0.791      168.225       35.344        0.044      353.845       37.554      857.327
07/20/2013  15:37:00     -108.376      -15.407        5.581       57.379       56.663       28.065     3292.317     3210.749      787.620        0.965        0.365      109.465        8.177        0.006      353.720       37.338      857.350
07/20/2013  15:38:00      -58.431      -37.421        6.793       63.133       41.986       23.235     3985.828     1762.823      539.866        0.557        0.314       69.387       32.384        0.218      353.606       37.137      857.352
07/20/2013  15:39:00      -73.808      -37.449        3.706       64.030       38.410       28.435     4099.831     1475.360      808.565        0.662        0.319       82.765       30.301        0.134      353.536       37.014      857.339
07/20/2013  15:40:00      -28.920      -61.734       16.668       47.070       56.339       21.428     2215.630     3174.091      459.143        0.539        0.292       68.172       14.753        0.047      353.477       36.912      857.325
07/20/2013  15:41:00      -11.754      -41.858       18.969       25.836       39.017       25.323      667.496     1522.352      641.258        0.254        0.142       43.477       18.731        0.186      353.341       36.673      857.315
07/20/2013  15:42:00      -55.413      -13.746        7.730       43.593       33.665       24.213     1900.388     1133.324      586.269        0.347        0.181       57.093       26.260        0.212      353.475       36.906      857.303
07/20/2013  15:43:00      -31.918      -43.273        6.675       37.873       30.577       24.042     1434.360      934.951      578.000        0.294        0.147       53.771       19.783        0.135      353.357       36.700      857.297
07/20/2013  15:44:00      -83.377      -68.870        5.525       41.049       44.176       27.924     1685.061     1951.494      779.775        0.807        0.221      108.143       30.220        0.078      353.337       36.666      857.293
07/20/2013  15:45:00      -40.957     -107.596       -1.210       38.484       48.073       17.901     1481.035     2311.054      320.450        0.868        0.206      115.127       19.743        0.029      353.337       36.665      857.287
07/20/2013  15:46:00       34.030      -89.479       23.371       29.006       43.889       24.228      841.368     1926.217      587.018        0.653        0.168       95.732       17.923        0.035      353.014       36.099      857.265
07/20/2013  15:47:00       -8.121      -82.153       -5.849       29.721       40.830       34.206      883.338     1667.080     1170.053        0.528        0.186       82.553       23.043        0.078      353.039       36.143      857.249
07/20/2013  15:48:00       51.117        9.641       43.123       44.078       38.180       33.166     1942.858     1457.721     1100.006        0.453        0.225       52.018       27.393        0.277      352.512       35.221      857.244
07/20/2013  15:49:00       33.930       21.391       35.340       34.144       29.281       22.182     1165.782      857.405      492.032        0.269        0.126       40.110       10.755        0.072      351.901       34.152      857.232
07/20/2013  15:50:00       81.401       86.876        8.279       59.377       46.044       37.802     3525.611     2120.067     1428.960        1.066        0.354      119.053       29.220        0.060      353.024       36.118      857.224
07/20/2013  15:51:00      111.858       84.833       14.372       53.161       45.653       38.637     2826.128     2084.203     1492.842        1.316        0.320      140.388       25.093        0.032      353.272       36.551      857.215
07/20/2013  15:52:00      125.099       93.103       16.817       57.473       42.160       32.123     3303.187     1777.439     1031.864        1.536        0.306      155.942       15.479        0.010      353.117       36.278      857.218
07/20/2013  15:53:00       31.536      195.127      -21.847       47.275       75.444       44.055     2234.894     5691.768     1940.854        2.470        0.493      197.659       47.721        0.058      353.259       36.524      857.233
07/20/2013  15:54:00        9.484      159.391      -13.830       38.056       66.516       33.344     1448.280     4424.334     1111.817        1.633        0.349      159.673       37.674        0.056      353.265       36.537      857.231
07/20/2013  15:55:00       23.295       99.952      -15.802       36.588       41.428       30.127     1338.698     1716.291      907.621        0.737        0.198      102.631       28.813        0.079      353.290       36.581      857.234
07/20/2013  15:56:00        1.066       78.889       -6.048       24.169       46.764       25.321      584.163     2186.842      641.151        0.484        0.171       78.897       29.272        0.138      353.281       36.566      857.236
07/20/2013  15:57:00       -8.507       90.379      -14.292       18.936       25.455       16.525      358.557      647.975      273.090        0.486        0.064       90.779       16.473        0.033      353.245       36.504      857.233
07/20/2013  15:58:00      -32.142       31.058        2.024       19.490       37.093       14.551      379.847     1375.858      211.731        0.198        0.098       44.696       12.050        0.073      353.181       36.391      857.250
07/20/2013  15:59:00      -51.381       -5.103        3.712       26.707       38.843       20.009      713.238     1508.795      400.348        0.265        0.131       51.633       17.984        0.121      353.163       36.362      857.253
07/20/2013  16:00:00      -42.787       33.784       -3.626       32.017       34.926       17.684     1025.097     1219.808      312.722        0.277        0.128       54.517       12.939        0.056      353.282       36.568      857.261
07/20/2013  16:01:00      -19.140       42.485        6.693       20.362       28.681       19.598      414.630      822.589      384.093        0.192        0.081       46.598       18.499        0.158      353.011       36.095      857.262
07/20/2013  16:02:00      -42.104       10.478       12.787       36.588       28.014       19.171     1338.711      784.778      367.539        0.227        0.125       43.388       10.085        0.054      352.712       35.572      857.262
07/20/2013  16:03:00      -18.794       19.581       19.017       70.970       66.046       32.424     5036.683     4362.109     1051.340        0.577        0.523       27.140       35.082        1.671      352.688       35.529      857.252
07/20/2013  16:04:00     -165.645       32.385        7.997      118.637       85.101       44.772    14074.653     7242.217     2004.490        2.593        1.166      168.781       51.211        0.092      353.196       36.415      857.246
07/20/2013  16:05:00      -84.174       75.643       -0.598       62.915       59.252       34.269     3958.243     3510.825     1174.355        1.072        0.432      113.168       35.527        0.099      353.205       36.434      857.263
07/20/2013  16:06:00     -134.499      104.380      -24.127       55.443       59.022       31.835     3073.882     3483.649     1013.453        1.857        0.379      170.250       34.036        0.040      353.284       36.571      857.270
07/20/2013  16:07:00     -139.189       -5.084        5.712       70.872       92.709       45.058     5022.891     8594.954     2030.237        1.754        0.782      139.281       44.993        0.104      353.303       36.603      857.261
07/20/2013  16:08:00     -146.181      -20.791      -15.406       97.162       65.340       38.425     9440.543     4269.282     1476.464        1.861        0.759      147.653       41.898        0.081      353.274       36.554      857.258
07/20/2013  16:09:00     -158.887       54.745      -15.507       62.583       72.647       31.687     3916.616     5277.519     1004.084        1.934        0.510      168.054       22.861        0.019      353.215       36.446      857.259
07/20/2013  16:10:00     -145.430       79.746      -10.771       69.624       40.019       44.409     4847.525     1601.511     1972.189        1.802        0.421      165.860       25.133        0.023      353.191       36.407      857.251
07/20/2013  16:11:00      -55.295       79.994        9.024       54.247       83.254       44.831     2942.683     6931.263     2009.782        1.071        0.594       97.245       39.543        0.165      353.192       36.410      857.251
07/20/2013  16:12:00     -170.214      -36.048      -23.263       68.124       59.528       42.115     4640.921     3543.576     1773.714        2.038        0.498      173.989       37.445        0.046      353.220       36.456      857.237
07/20/2013  16:13:00     -265.792      -65.655      -25.321       80.084       57.086       35.061     6413.392     3258.849     1229.303        4.325        0.545      273.781       27.171        0.010      353.202       36.423      857.231
07/20/2013  16:14:00     -276.268       25.348      -28.570       60.799       51.685       32.798     3696.563     2671.327     1075.697        4.261        0.372      277.428       30.995        0.012      353.204       36.427      857.234
07/20/2013  16:15:00     -240.543      -36.857      -11.981       92.755       52.238       35.952     8603.530     2728.796     1292.534        3.599        0.631      243.351       37.495        0.024      353.272       36.547      857.219
07/20/2013  16:16:00     -240.151      -91.870       -3.458       58.408       38.163       24.664     3411.502     1456.435      608.298        3.580        0.274      257.123       25.103        0.010      353.224       36.463      857.218
07/20/2013  16:17:00     -175.828      -57.212       -2.924       62.502       41.859       26.120     3906.560     1752.148      682.270        2.027        0.317      184.902       29.007        0.025      353.247       36.506      857.222
07/20/2013  16:18:00     -130.248      -54.839        0.453       63.666       37.959       25.882     4053.383     1440.869      669.861        1.307        0.308      141.322       26.384        0.035      353.272       36.552      857.212
07/20/2013  16:19:00      -58.178      -63.232        7.363       27.675       34.805       19.542      765.912     1211.416      381.889        0.490        0.118       85.924       16.563        0.037      353.217       36.454      857.201
07/20/2013  16:20:00      -75.122      -20.337        2.727       39.488       31.935       17.715     1559.299     1019.849      313.828        0.448        0.145       77.826       20.218        0.067      353.039       36.144      857.186
07/20/2013  16:21:00      -73.341      -34.909        6.712       59.884       42.361       26.092     3586.111     1794.454      680.789        0.635        0.303       81.225       35.167        0.187      352.957       36.001      857.181
07/20/2013  16:22:00      -96.936      -37.440       -0.963       48.748       39.877       19.945     2376.385     1590.189      397.818        0.758        0.218      103.915       19.955        0.037      353.048       36.159      857.178
07/20/2013  16:23:00      -32.288       24.054       10.630       48.605       51.986       34.922     2362.468     2702.509     1219.526        0.401        0.314       40.263       27.351        0.461      352.673       35.504      857.174
07/20/2013  16:24:00      -41.743       69.880       -1.765       58.949       49.157       28.855     3475.040     2416.425      832.625        0.668        0.336       81.398       32.445        0.159      353.083       36.221      857.180
07/20/2013  16:25:00       38.590       14.611       15.094       37.600       49.674       27.224     1413.755     2467.489      741.162        0.328        0.231       41.264       23.945        0.337      352.417       35.057      857.170
07/20/2013  16:26:00      -60.703       18.548       11.074       65.749       27.220       27.448     4322.924      740.909      753.403        0.498        0.291       63.473       28.585        0.203      352.643       35.450      857.180
07/20/2013  16:27:00     -233.772       -0.992      -14.304       67.975       50.913       35.508     4620.653     2592.115     1260.787        3.166        0.424      233.774       33.613        0.021      353.279       36.559      857.186
07/20/2013  16:28:00     -291.784       21.141      -35.843       58.400       57.060       31.972     3410.562     3255.868     1022.219        4.728        0.384      292.549       20.602        0.005      353.283       36.563      857.201
07/20/2013  16:29:00     -144.619       43.547      -16.042       43.743       38.248       24.979     1913.455     1462.878      623.931        1.353        0.200      151.033       21.342        0.020      353.222       36.464      857.210
07/20/2013  16:30:00     -180.228      -24.748      -13.808       75.332       70.675       42.013     5674.873     4994.976     1765.067        2.286        0.622      181.919       33.164        0.033      353.195       36.412      857.219
07/20/2013  16:31:00     -141.966       -8.345       -5.324       76.369       94.577       50.130     5832.256     8944.900     2513.065        1.877        0.865      142.211       37.359        0.069      353.236       36.486      857.239
07/20/2013  16:32:00     -176.827       25.322      -15.478       94.676       87.580       54.675     8963.519     7670.271     2989.397        2.588        0.981      178.631       51.250        0.082      353.130       36.300      857.256
07/20/2013  16:33:00     -239.003       44.252      -47.564       69.542      132.757       51.419     4836.149    17624.541     2643.913        4.322        1.255      243.065       38.052        0.025      353.072       36.196      857.266
07/20/2013  16:34:00     -220.850       48.768      -15.748       86.907      102.373       52.737     7552.838    10480.146     2781.173        3.610        1.041      226.170       42.804        0.036      353.052       36.162      857.262
07/20/2013  16:35:00     -162.055      -24.948        3.845       90.202       99.678       47.496     8136.344     9935.721     2255.896        2.361        1.016      163.964       41.860        0.065      353.043       36.149      857.251
07/20/2013  16:36:00     -240.074      -53.033       -8.776      141.620      100.836       61.865    20056.339    10167.849     3827.271        4.728        1.703      245.861       66.689        0.074      353.070       36.194      857.262
07/20/2013  16:37:00     -301.309       78.136      -28.748      149.300      149.658       77.132    22290.636    22397.569     5949.365        7.417        2.532      311.276       63.662        0.042      353.027       36.118      857.240
07/20/2013  16:38:00     -316.966      -82.919      -19.693      122.236       94.692       46.855    14941.643     8966.616     2195.416        6.691        1.305      327.633       39.910        0.015      353.091       36.231      857.243
07/20/2013  16:39:00     -345.034      -80.586      -10.304      162.352      118.439       73.112    26358.294    14027.805     5345.407        8.568        2.287      354.320       76.811        0.047      353.111       36.264      857.241
07/20/2013  16:40:00     -424.323      -34.422      -35.032      171.361      131.692       61.194    29364.463    17342.795     3744.717       11.645        2.523      425.717       70.045        0.027      353.109       36.261      857.246
07/20/2013  16:41:00     -342.120     -133.327       -8.769      171.995      133.839       69.263    29582.437    17913.004     4797.390        9.359        2.615      367.181       75.885        0.043      353.114       36.269      857.255
07/20/2013  16:42:00     -376.595     -136.151       -9.522      160.331      134.024       80.632    25706.107    17962.431     6501.508       10.530        2.509      400.451       76.156        0.036      353.113       36.269      857.250
07/20/2013  16:43:00     -439.451      -94.151      -27.722      149.150      166.574       71.871    22245.717    27746.895     5165.455       12.894        2.758      449.423       65.391        0.021      353.121       36.281      857.283
07/20/2013  16:44:00     -290.640      -98.104       15.873      179.402      134.172       84.550    32185.066    18002.112     7148.731        7.583        2.867      306.751       92.882        0.092      353.114       36.269      857.287
07/20/2013  16:45:00     -278.282      -71.195      -22.469      128.242      116.939       56.421    16446.137    13674.703     3183.331        5.815        1.665      287.244       65.305        0.052      353.117       36.275      857.310
07/20/2013  16:46:00     -197.313       35.930       -9.619       83.588       61.465       43.195     6986.961     3777.897     1865.849        2.647        0.632      200.558       42.445        0.045      353.148       36.332      857.314
07/20/2013  16:47:00     -242.192      -12.613      -15.189       93.835       60.116       43.767     8804.980     3613.948     1915.585        3.669        0.717      242.520       46.363        0.037      353.071       36.194      857.306
07/20/2013  16:48:00     -343.847      -14.629      -15.949      150.422      147.128       65.189    22626.884    21646.572     4249.598        8.360        2.426      344.158       63.786        0.034      352.984       36.041      857.298
07/20/2013  16:49:00     -428.273     -156.350      -15.090      155.628      131.186       72.280    24220.021    17209.683     5224.378       12.736        2.333      455.920       78.896        0.030      353.069       36.190      857.288
07/20/2013  16:50:00     -394.662     -179.729      -22.815      266.167      162.454       89.964    70844.819    26391.223     8093.587       14.693        5.266      433.660       94.234        0.047      352.995       36.061      857.267
07/20/2013  16:51:00     -311.863      -72.363      -21.366      135.259      139.891       80.956    18294.963    19569.627     6553.947        7.368        2.221      320.148       63.049        0.039      352.957       35.996      857.310
07/20/2013  16:52:00     -255.579      -11.438      -29.500      102.947      132.881       66.184    10598.116    17657.267     4380.270        4.947        1.632      255.835       55.551        0.047      352.899       35.894      857.310
07/20/2013  16:53:00     -256.384       -0.637      -10.313      107.035       80.189       50.903    11456.542     6430.291     2591.114        4.315        1.024      256.385       52.277        0.042      352.868       35.839      857.317
07/20/2013  16:54:00     -359.871       -7.366      -35.644      106.196       99.240       54.218    11277.667     9848.652     2939.592        7.744        1.203      359.946       53.502        0.022      352.898       35.893      857.317
07/20/2013  16:55:00     -272.998      -82.628       -2.156      161.763      100.878       70.173    26167.332    10176.415     4924.277        6.131        2.063      285.229       81.753        0.082      352.894       35.887      857.312
07/20/2013  16:56:00     -350.387      -12.646      -24.580      149.368      105.125       71.091    22310.782    11051.290     5053.874        8.097        1.921      350.615       69.761        0.040      352.898       35.891      857.330
07/20/2013  16:57:00     -324.158      -77.340      -27.077      167.608      162.672       87.813    28092.510    26462.196     7711.091        8.702        3.113      333.256       58.555        0.031      352.859       35.823      857.333
07/20/2013  16:58:00     -293.993       70.518      -63.335      137.251      218.230       96.597    18837.732    47624.453     9331.011        8.559        3.790      302.332       51.875        0.029      352.760       35.651      857.336
07/20/2013  16:59:00     -438.357      -49.689      -37.262      201.695      159.949       79.491    40681.019    25583.623     6318.892       13.428        3.629      441.165       81.554        0.034      352.745       35.623      857.344
07/20/2013  17:00:00     -232.660      -78.095      -11.722      143.981      111.358       70.936    20730.531    12400.639     5031.970        4.926        1.908      245.417       59.517        0.059      352.757       35.645      857.362
07/20/2013  17:01:00     -314.288      -47.008      -13.702      187.073      142.109       67.028    34996.412    20194.850     4492.774        8.042        2.984      317.784       67.490        0.045      352.714       35.570      857.394
07/20/2013  17:02:00     -336.150      -44.045      -66.497      177.944      126.691       73.819    31663.992    16050.694     5449.300        8.625        2.658      339.023       55.428        0.027      352.736       35.607      857.377
07/20/2013  17:03:00     -247.649      -10.362      -25.762      133.767      112.088       72.420    17893.553    12563.743     5244.619        4.889        1.785      247.866       67.540        0.074      352.737       35.610      857.398
07/20/2013  17:04:00     -205.528       66.662      -57.128      130.404      153.671       75.505    17005.308    23614.856     5700.948        4.813        2.316      216.068       37.295        0.030      352.741       35.617      857.395
07/20/2013  17:05:00     -132.254      -33.313       23.438      181.192      120.196       80.826    32830.566    14446.966     6532.906        3.647        2.691      136.385      101.412        0.553      352.710       35.565      857.379
07/20/2013  17:06:00     -223.994       -6.832      -24.163       93.601       81.677       56.347     8761.080     6671.120     3174.990        3.470        0.930      224.099       41.635        0.035      352.758       35.648      857.396
07/20/2013  17:07:00     -251.020     -100.111       -9.336      161.048       78.918       60.395    25936.298     6228.079     3647.575        5.446        1.791      270.247       52.600        0.038      352.780       35.685      857.385
07/20/2013  17:08:00     -144.137      -67.425       -3.789      132.397       86.642       45.764    17528.835     7506.771     2094.377        2.623        1.356      159.128       48.291        0.092      352.805       35.732      857.374
07/20/2013  17:09:00     -322.374        8.616      -22.971      159.105      128.676       61.344    25314.385    16557.470     3763.033        7.507        2.282      322.489       65.784        0.042      352.828       35.771      857.378
07/20/2013  17:10:00     -531.885     -146.455      -64.434      209.619      189.888       80.896    43939.939    36057.428     6544.124       19.750        4.327      551.680       67.920        0.015      352.872       35.846      857.332
07/20/2013  17:11:00     -663.208     -232.362      -17.805      283.851      215.868      114.206    80571.377    46598.890    13042.926       31.716        7.011      702.736      127.453        0.033      352.845       35.800      857.268
07/20/2013  17:12:00     -554.709     -128.572       -9.686      319.319      226.364      115.575   101964.891    51240.811    13357.516       24.541        8.328      569.414      127.439        0.050      352.858       35.820      857.308
07/20/2013  17:13:00     -498.321      -20.311      -34.118      301.012      183.646       96.717    90608.477    33725.726     9354.129       19.177        6.684      498.734      117.132        0.055      352.841       35.790      857.330
07/20/2013  17:14:00     -808.843     -137.827      -31.159      383.906      235.592      152.773   147384.180    55503.637    23339.651       45.017       11.311      820.502      179.766        0.048      352.800       35.720      857.419
07/20/2013  17:15:00     -790.426      -87.074      -66.987      340.708      286.650      124.530   116082.175    82168.331    15507.664       42.526       10.688      795.207      151.712        0.036      352.740       35.614      857.679
07/20/2013  17:16:00     -582.182      -77.109        6.981      501.084      297.452      165.453   251084.679    88477.697    27374.540       35.586       18.347      587.266      206.943        0.124      352.430       35.073      857.627
07/20/2013  17:17:00     -890.070     -165.163      -51.953      366.940      300.699      123.204   134645.001    90419.959    15179.160       53.118       12.012      905.264      150.698        0.028      352.046       34.401      857.948
07/20/2013  17:18:00     -815.072     -159.095      -25.200      428.767      330.401      160.048   183841.500   109165.057    25615.478       50.439       15.931      830.454      184.813        0.050      352.129       34.545      857.860
07/20/2013  17:19:00     -482.909      470.091      -98.575      311.585      319.025      121.779    97085.458   101777.224    14830.081       33.876       10.685      673.934      119.617        0.032      352.197       34.664      858.030
07/20/2013  17:20:00     -257.100      428.905      -76.281      233.058      196.876      101.441    54316.167    38759.982    10290.352       17.960        5.168      500.059       90.233        0.033      352.198       34.667      858.002
07/20/2013  17:21:00     -174.263      334.932      -56.645      182.042      166.655       74.170    33139.400    27773.954     5501.181       10.607        3.321      377.554       83.125        0.048      352.313       34.868      857.943
07/20/2013  17:22:00     -133.282      481.424      -52.087      108.125      150.102       71.728    11690.949    22530.484     5144.937       14.580        1.968      499.533       69.334        0.019      352.261       34.778      857.939
07/20/2013  17:23:00      -57.849      571.165      -66.734      122.936      139.241       70.050    15113.190    19388.093     4907.029       18.671        1.970      574.087       69.450        0.015      352.218       34.701      857.900
07/20/2013  17:24:00      -96.172      262.295      -28.484       72.351      144.269       61.081     5234.686    20813.469     3730.949        5.431        1.489      279.370       68.298        0.060      352.188       34.649      857.877
07/20/2013  17:25:00       17.043      171.832       -2.910      171.098      151.141       78.970    29274.442    22843.742     6236.222        4.408        2.918      172.675       84.597        0.240      352.245       34.750      857.839
07/20/2013  17:26:00      109.754      211.928        7.654      148.933      186.527       95.892    22181.039    34792.323     9195.189        6.158        3.308      238.662      115.056        0.232      352.286       34.822      857.763
07/20/2013  17:27:00       77.509      247.170       -9.227      113.663      147.573      104.256    12919.305    21777.680    10869.318        5.637        2.278      259.038      100.921        0.152      352.377       34.982      857.740
07/20/2013  17:28:00       14.164      403.362      -37.061      108.725      220.000       90.035    11821.077    48400.054     8106.218       11.629        3.416      403.610      109.284        0.073      352.407       35.033      857.710
07/20/2013  17:29:00       74.515      208.331       -0.503      110.630      112.650       78.545    12239.000    12689.911     6169.311        4.002        1.555      221.256       68.434        0.096      352.404       35.028      857.684
07/20/2013  17:30:00       98.223      225.544      -11.857      114.765      130.675       69.686    13170.891    17075.921     4856.199        4.787        1.755      246.004       76.629        0.097      352.456       35.119      857.640
07/20/2013  17:31:00      -13.123      335.967      -37.572       84.502      127.361       53.321     7140.562    16220.910     2843.092        7.033        1.310      336.223       63.760        0.036      352.483       35.165      857.574
07/20/2013  17:32:00      111.184      156.399       27.960      104.597      122.817       91.637    10940.434    15084.102     8397.351        3.601        1.721      191.892       89.792        0.219      352.503       35.200      857.522
07/20/2013  17:33:00       49.336      156.274        2.916       87.293      119.648       72.179     7620.103    14315.762     5209.847        2.700        1.357      163.877       68.993        0.177      352.477       35.158      857.483
07/20/2013  17:34:00       60.636      269.956      -35.269       80.033      106.963       61.877     6405.249    11441.040     3828.792        4.973        1.084      276.682       56.574        0.042      352.493       35.183      857.468
07/20/2013  17:35:00       42.586      305.896      -26.727       88.680      193.915       70.234     7864.223    37602.950     4932.764        7.324        2.520      308.846       84.586        0.075      352.503       35.203      857.430
07/20/2013  17:36:00       12.794      281.803      -16.203      106.786      238.480       67.497    11403.248    56872.746     4555.829        7.632        3.642      282.093       96.743        0.118      352.597       35.368      857.384
07/20/2013  17:37:00      -32.364      294.940      -24.743       94.746      108.573       51.790     8976.780    11788.072     2682.204        5.604        1.172      296.710       49.222        0.028      352.487       35.174      857.351
07/20/2013  17:38:00       29.245       94.931       12.982       55.051       80.118       53.039     3030.563     6418.845     2813.134        1.115        0.613       99.334       53.788        0.293      352.518       35.231      857.323
07/20/2013  17:39:00      -96.000       63.551      -22.625       72.299       52.347       40.875     5227.152     2740.256     1670.795        1.170        0.482      115.129       37.507        0.106      352.439       35.094      857.324
07/20/2013  17:40:00      -88.478      112.407       -5.434       60.428       76.488       31.649     3651.527     5850.343     1001.673        1.550        0.525      143.051       28.406        0.039      352.529       35.250      857.325
07/20/2013  17:41:00     -198.409       37.209      -35.849       64.567       77.910       40.746     4168.937     6069.920     1660.271        2.697        0.595      201.868       31.785        0.025      352.511       35.217      857.325
07/20/2013  17:42:00      -89.905       48.427      -23.171       96.711       49.326       29.325     9352.923     2433.065      859.943        1.180        0.632      102.118       29.424        0.083      352.532       35.255      857.299
07/20/2013  17:43:00     -168.507        8.154      -33.956       43.230       54.651       31.229     1868.874     2986.767      975.280        1.772        0.292      168.704       21.324        0.016      352.489       35.181      857.283
07/20/2013  17:44:00     -175.669      -17.176       -6.523       95.788       77.366       42.339     9175.392     5985.445     1792.584        2.407        0.848      176.507       34.975        0.039      352.432       35.078      857.255
07/20/2013  17:45:00     -171.833      -22.687      -16.564       65.630       71.820       35.224     4307.252     5158.179     1240.702        2.051        0.535      173.324       25.885        0.022      352.391       35.008      857.256
07/20/2013  17:46:00      -72.819      -19.672       -8.890       42.266       42.944       24.470     1786.428     1844.199      598.792        0.500        0.211       75.430       18.472        0.060      352.387       35.003      857.242
07/20/2013  17:47:00     -126.527      -32.901       -9.904       88.014       77.505       34.345     7746.432     6007.061     1179.571        1.606        0.747      130.734       19.311        0.022      352.378       34.986      857.200
07/20/2013  17:48:00     -266.738      -20.328      -11.516       68.591       64.289       40.243     4704.770     4133.058     1619.494        4.107        0.523      267.512       36.839        0.019      352.396       35.012      857.216
07/20/2013  17:49:00     -262.786     -100.102      -13.256       80.920       86.499       53.823     6548.050     7482.146     2896.868        4.809        0.846      281.206       31.397        0.012      352.375       34.975      857.258
07/20/2013  17:50:00     -194.316      -43.392       -5.101      102.450       72.120       53.514    10495.990     5201.334     2863.773        2.911        0.928      199.102       54.316        0.074      352.347       34.929      857.289
07/20/2013  17:51:00     -204.953      -93.040        1.235      134.302       96.116       56.951    18037.124     9238.250     3243.369        4.059        1.526      225.083       66.102        0.086      352.404       35.029      857.187
07/20/2013  17:52:00     -738.177       46.426      -60.913      316.830      287.989      107.390   100381.215    82937.631    11532.701       37.277        9.743      739.635      139.740        0.036      352.330       34.897      857.172
07/20/2013  17:53:00     -723.049     -173.818      -34.117      310.790      250.755      107.094    96590.211    62878.005    11469.172       36.252        8.547      743.648      116.563        0.025      352.374       34.974      857.015
07/20/2013  17:54:00     -722.859      -53.305      -57.166      308.514      234.003      123.561    95180.745    54757.304    15267.385       34.689        8.260      724.821      133.510        0.034      352.488       35.171      857.085
07/20/2013  17:55:00     -645.948     -117.357      -47.501      280.983      238.044      106.085    78951.302    56664.992    11254.077       29.004        7.344      656.523      116.090        0.031      352.463       35.131      856.993
07/20/2013  17:56:00     -588.738     -112.923      -45.452      355.177      189.283      105.012   126150.934    35827.990    11027.429       26.718        8.650      599.470      102.491        0.029      352.432       35.077      857.005
07/20/2013  17:57:00     -679.740     -109.520      -54.978      280.172      257.281      101.232    78496.231    66193.574    10247.910       31.597        7.747      688.506       92.646        0.018      352.347       34.928      856.966
07/20/2013  17:58:00     -409.329      -58.165      -37.820      262.110      214.182      103.335    68701.782    45874.135    10678.047       14.878        6.263      413.441      107.583        0.068      352.394       35.010      856.909
07/20/2013  17:59:00     -407.786      -96.385      -25.975      355.458      166.365      107.948   126350.325    27677.203    11652.788       17.093        8.284      419.022      143.855        0.118      352.421       35.056      856.822
07/20/2013  18:00:00     -706.729      -73.331      -50.754      271.483      251.476      113.701    73703.061    63240.394    12927.994       32.862        7.494      710.524      125.833        0.031      352.448       35.103      856.754
07/20/2013  18:01:00     -713.024     -215.171      -44.969      357.225      293.310      138.383   127609.990    86030.898    19149.947       39.471       11.640      744.784      157.012        0.044      352.522       35.234      856.596
07/20/2013  18:02:00     -744.807     -141.812       -7.278      345.444      255.362      137.894   119331.651    65209.966    19014.774       38.919       10.178      758.188      160.753        0.045      352.444       35.098      856.736
07/20/2013  18:03:00     -625.021     -141.834      -37.030      358.004      243.851      164.661   128166.930    59463.322    27113.153       31.340       10.737      640.912      186.882        0.085      352.317       34.876      856.850
07/20/2013  18:04:00     -757.817       33.783      -84.193      305.951      306.810      127.973    93606.310    94132.514    16377.125       39.328       10.206      758.570      130.727        0.030      352.152       34.586      856.895
07/20/2013  18:05:00     -960.036     -117.031      -81.286      374.907      261.779      140.701   140555.367    68528.420    19796.808       58.538       11.444      967.143      174.890        0.033      352.291       34.831      856.825
07/20/2013  18:06:00     -648.857     -147.774      -31.637      361.572      284.812      136.149   130734.444    81118.099    18536.644       33.708       11.519      665.472      150.813        0.051      352.347       34.927      856.851
07/20/2013  18:07:00     -742.598     -161.936      -42.797      398.582      221.438      161.284   158867.464    49034.916    26012.633       40.666       11.696      760.050      204.734        0.073      352.418       35.052      856.985
07/20/2013  18:08:00     -527.346      -50.682      -30.571      247.234      197.251      106.942    61124.585    38907.892    11436.508       19.651        5.573      529.776      107.639        0.041      352.368       34.964      856.949
07/20/2013  18:09:00     -294.551      204.246      -58.807      141.151      169.620      103.315    19923.595    28770.822    10673.934        9.564        2.968      358.436       82.896        0.053      352.243       34.745      857.015
07/20/2013  18:10:00     -244.182      383.583      -50.025      159.901      192.729       84.070    25568.375    37144.283     7067.701       13.951        3.489      454.710      100.258        0.049      352.366       34.960      857.076
07/20/2013  18:11:00     -230.057      383.076      -47.530      142.833      257.435       92.029    20401.267    66273.033     8469.280       14.852        4.757      446.849      104.021        0.054      352.447       35.103      857.042
07/20/2013  18:12:00      -56.105      703.035      -77.514      120.933      194.592       90.859    14624.707    37865.943     8255.377       28.207        3.037      705.270       93.338        0.018      352.716       35.573      857.048
07/20/2013  18:13:00     -107.524      496.660      -58.583      104.066      132.821       68.737    10829.664    17641.541     4724.839       14.742        1.660      508.166       63.652        0.016      352.592       35.356      857.083
07/20/2013  18:14:00     -229.265      316.592      -57.133      117.441      106.831       60.933    13792.448    11412.942     3712.865        9.248        1.446      390.887       63.255        0.026      352.405       35.028      857.082
07/20/2013  18:15:00     -252.671       69.053      -21.320      128.852      200.433       85.174    16602.928    40173.272     7254.691        6.654        3.202      261.937       61.406        0.055      352.370       34.967      857.113
07/20/2013  18:16:00     -264.419      -74.101      -10.790      150.094      143.437       77.559    22528.081    20574.097     6015.350        6.231        2.456      274.606       84.559        0.095      352.344       34.923      857.065
07/20/2013  18:17:00     -282.187      -42.625      -17.629      160.772      179.563       72.024    25847.495    32242.722     5187.488        7.250        3.164      285.388       47.750        0.028      352.289       34.826      857.070
07/20/2013  18:18:00     -497.513     -171.697      -29.748      252.332      185.607       94.018    63671.227    34449.898     8839.310       19.240        5.348      526.307      101.866        0.037      352.325       34.888      857.063
07/20/2013  18:19:00     -346.234      -77.017      -26.695      167.327      136.528       80.089    27998.375    18640.005     6414.274        8.978        2.653      354.696       71.277        0.040      352.318       34.878      857.088
07/20/2013  18:20:00     -432.792      -79.290      -24.150      167.991      183.691       96.437    28221.130    33742.525     9300.056       13.271        3.563      439.995       98.014        0.050      352.363       34.955      857.077
07/20/2013  18:21:00     -405.586     -113.287      -20.134      186.369      168.988       85.140    34733.359    28557.090     7248.860       12.413        3.527      421.111       79.658        0.036      352.471       35.145      857.080
07/20/2013  18:22:00     -255.367       20.578      -25.346      166.961      153.662       97.167    27875.902    23612.066     9441.403        6.359        3.046      256.195       77.049        0.090      352.506       35.206      857.055
07/20/2013  18:23:00     -225.190      -18.588      -13.098      130.363      143.459       75.599    16994.457    20580.346     5715.217        4.725        2.165      225.956       67.723        0.090      352.459       35.124      857.036
07/20/2013  18:24:00     -313.604      -59.308      -17.826      234.086      196.763       83.640    54796.408    38715.861     6995.625       10.132        5.025      319.163      102.471        0.103      352.438       35.086      857.005
07/20/2013  18:25:00     -368.472      -50.141      -28.995      147.531      140.017       68.046    21765.404    19604.869     4630.278        9.255        2.300      371.868       52.167        0.020      352.446       35.101      857.004
07/20/2013  18:26:00     -515.472      -85.292      -50.824      138.609      167.254       73.526    19212.410    27974.034     5406.045       16.407        2.630      522.481       64.892        0.015      352.508       35.209      856.981
07/20/2013  18:27:00     -305.556        4.396      -21.365      147.670      202.055       66.332    21806.299    40826.039     4399.913        8.042        3.352      305.587       68.625        0.050      352.517       35.225      856.940
07/20/2013  18:28:00     -373.091      -45.531      -36.779      205.785      120.056       81.025    42347.282    14413.457     6565.037       10.296        3.166      375.859       84.918        0.051      352.517       35.223      856.927
07/20/2013  18:29:00     -258.663       -7.654      -28.017       98.774      127.468       59.989     9756.322    16248.218     3598.644        4.867        1.480      258.777       42.317        0.027      352.521       35.233      856.920
07/20/2013  18:30:00     -266.501      -35.090      -28.483      124.916      120.647       57.626    15603.955    14555.716     3320.745        5.327        1.674      268.801       53.556        0.040      352.572       35.321      856.895
07/20/2013  18:31:00     -255.006      -59.578       -8.709      141.095      110.034       61.203    19907.906    12107.401     3745.828        5.220        1.788      261.873       47.317        0.033      352.605       35.379      856.865
07/20/2013  18:32:00     -262.018      -33.254      -21.345       84.554       72.943       50.372     7149.343     5320.690     2537.305        4.261        0.750      264.120       40.045        0.023      352.601       35.370      856.892
07/20/2013  18:33:00     -222.030      -22.436       -2.263      133.265       69.677       58.161    17759.574     4854.849     3382.650        3.790        1.300      223.161       61.616        0.076      352.624       35.413      856.914
07/20/2013  18:34:00     -190.224      -43.262       -9.080      102.934       79.103       44.621    10595.449     6257.246     1991.051        2.849        0.942      195.081       47.501        0.059      352.655       35.465      856.895
07/20/2013  18:35:00     -178.081     -164.626      -11.138      115.385       78.182       47.291    13313.688     6112.448     2236.416        4.030        1.083      242.517       58.611        0.058      352.612       35.394      856.879
07/20/2013  18:36:00      -91.886      -81.201       14.305       65.409       47.297       41.839     4278.392     2237.023     1750.495        1.175        0.413      122.624       40.240        0.108      352.603       35.379      856.861
07/20/2013  18:37:00     -147.476      -67.937        5.333       98.841       69.770       50.534     9769.638     4867.855     2553.675        2.179        0.860      162.372       50.389        0.096      352.588       35.351      856.850
07/20/2013  18:38:00     -202.192      -30.883       -3.907      127.190       98.900       47.891    16177.214     9781.306     2293.506        3.505        1.413      204.537       45.587        0.050      352.614       35.397      856.816
07/20/2013  18:39:00     -161.103      -32.783       14.856      164.423       93.678       64.654    27034.847     8775.496     4180.084        3.361        2.000      164.405       89.276        0.295      352.638       35.438      856.792
07/20/2013  18:40:00     -110.842     -152.690        6.963      104.035       88.159       52.361    10823.248     7772.060     2741.647        2.849        1.067      188.680       57.817        0.094      352.654       35.466      856.785
07/20/2013  18:41:00     -119.672     -104.169        0.399       72.572       98.661       41.077     5266.644     9734.069     1687.348        2.093        0.834      158.659       35.037        0.049      352.626       35.419      856.779
07/20/2013  18:42:00      -87.982     -150.705        0.749       74.988       60.801       32.967     5623.265     3696.763     1086.855        2.043        0.520      174.508       31.175        0.032      352.668       35.493      856.802
07/20/2013  18:43:00     -104.405      -72.695        4.501       49.137       40.963       29.731     2414.475     1677.949      883.929        1.059        0.249      127.220       29.192        0.053      352.722       35.589      856.801
07/20/2013  18:44:00      -24.872      -20.152        4.867       22.473       35.974       16.301      505.044     1294.112      265.722        0.156        0.103       32.011       14.484        0.205      352.739       35.619      856.801
07/20/2013  18:45:00     -111.420     -138.252       -6.944       54.953       77.822       35.716     3019.788     6056.192     1275.657        2.096        0.518      177.561       33.550        0.036      352.826       35.768      856.792
07/20/2013  18:46:00      -75.529      -51.951        8.170       69.240       49.959       30.894     4794.207     2495.909      954.432        0.836        0.412       91.671       40.855        0.199      352.780       35.690      856.782
07/20/2013  18:47:00      -11.463     -101.010        6.367       36.914       57.123       26.285     1362.669     3263.032      690.891        0.784        0.266      101.659       25.287        0.062      352.541       35.271      856.801
07/20/2013  18:48:00      -80.950      -72.852       -2.588       35.805       43.503       22.368     1282.034     1892.527      500.344        0.777        0.184      108.905       20.575        0.036      352.575       35.331      856.808
07/20/2013  18:49:00      -58.762      -67.606        5.281       49.127       43.099       25.820     2413.494     1857.547      666.667        0.649        0.247       89.574       25.576        0.082      352.629       35.426      856.812
07/20/2013  18:50:00      -95.080     -239.362      -12.020       59.523      117.290       38.986     3542.999    13757.058     1519.917        4.265        0.941      257.554       33.391        0.017      352.743       35.621      856.821
07/20/2013  18:51:00     -155.961     -142.721       -8.530       90.765       61.696       33.940     8238.204     3806.407     1151.902        2.898        0.660      211.407       37.674        0.032      352.724       35.589      856.822
07/20/2013  18:52:00     -236.231     -213.505       -7.435       93.529      131.432       46.369     8747.686    17274.354     2150.092        6.480        1.409      318.417       47.964        0.023      352.615       35.396      856.838
07/20/2013  18:53:00     -226.537     -227.390       -7.014      151.722      122.328       84.970    23019.633    14964.170     7219.821        7.413        2.260      320.975       83.642        0.068      352.549       35.279      856.807
07/20/2013  18:54:00     -351.019     -225.298      -14.828      125.638      127.595       68.141    15784.959    16280.469     4643.160       10.544        1.835      417.101       65.654        0.025      352.540       35.264      856.842
07/20/2013  18:55:00     -281.980     -191.699       -1.979      181.968      115.147       74.781    33112.328    13258.842     5592.257        8.410        2.598      340.971       84.963        0.062      352.519       35.229      856.863
07/20/2013  18:56:00     -263.523     -113.085       -7.057      107.394       89.315       47.283    11533.527     7977.167     2235.650        5.201        1.087      286.763       53.612        0.035      352.518       35.227      856.884
07/20/2013  18:57:00     -171.297      -92.053      -11.386       74.423       58.706       36.914     5538.774     3446.345     1362.639        2.414        0.517      194.464       36.049        0.034      352.460       35.128      856.892
07/20/2013  18:58:00     -171.267      -59.733      -13.531       46.269       41.512       25.561     2140.836     1723.222      653.341        1.880        0.226      181.385       18.697        0.011      352.440       35.094      856.903
07/20/2013  18:59:00     -113.299      -35.771       -2.444       43.743       40.791       34.827     1913.437     1663.866     1212.951        0.946        0.240      118.811       30.028        0.064      352.430       35.076      856.911
07/20/2013  19:00:00     -170.301      -89.246       -7.893      109.479       77.004       46.403    11985.712     5929.641     2153.260        2.855        1.003      192.269       57.002        0.088      352.471       35.145      856.909
07/20/2013  19:01:00     -206.075        0.748      -18.495       87.773       92.631       43.377     7704.128     8580.456     1881.543        3.048        0.908      206.077       42.809        0.043      352.457       35.122      856.915
07/20/2013  19:02:00     -155.717      -29.250       -3.012      102.020       69.448       28.482    10407.990     4822.998      811.214        2.057        0.802      158.440       26.749        0.029      352.495       35.190      856.926
07/20/2013  19:03:00      -50.731       19.377       19.985       58.068       47.801       29.279     3371.837     2284.952      857.281        0.493        0.326       54.306       27.700        0.260      352.414       35.050      856.926
07/20/2013  19:04:00     -100.402      -29.460      -13.605       46.135       66.214       22.394     2128.449     4384.273      501.498        0.907        0.351      104.635       19.765        0.036      352.515       35.227      856.934
07/20/2013  19:05:00      -69.551      -17.584       -3.850       40.987       30.545       29.037     1679.963      933.008      843.168        0.431        0.173       71.740       16.753        0.055      352.189       34.655      856.949
07/20/2013  19:06:00      -82.622      -37.712      -11.305       51.557       44.982       28.626     2658.117     2023.424      819.454        0.694        0.275       90.822       20.785        0.052      352.421       35.062      856.969
07/20/2013  19:07:00      -60.225      -33.648       -0.422       55.470       44.475       27.975     3076.892     1978.003      782.602        0.530        0.292       68.987       30.368        0.194      352.498       35.197      856.990
07/20/2013  19:08:00     -138.020     -117.291        0.182      108.346       73.976       45.648    11738.772     5472.493     2083.696        2.605        0.965      181.126       47.708        0.069      352.474       35.152      856.995
07/20/2013  19:09:00     -186.590     -181.618        3.554      120.189      103.140       72.872    14445.291    10637.761     5310.340        4.910        1.520      260.386       79.897        0.094      352.450       35.108      856.994
07/20/2013  19:10:00     -188.188      -72.866       -2.946      105.087       82.286       42.407    11043.245     6770.997     1798.354        3.017        0.981      201.802       47.612        0.056      352.431       35.075      857.008
07/20/2013  19:11:00     -259.039     -169.470       -2.441       99.492       61.172       53.866     9898.580     3741.973     2901.520        5.618        0.827      309.550       52.898        0.029      352.387       34.996      857.022
07/20/2013  19:12:00     -156.420      -60.091       -5.516       68.426       49.100       29.572     4682.130     2410.859      874.476        1.804        0.398      167.566       24.660        0.022      352.339       34.918      857.048
07/20/2013  19:13:00     -154.284      -30.335       -3.998       81.724       59.100       39.951     6678.755     3492.764     1596.114        1.825        0.588      157.238       44.152        0.079      352.321       34.885      857.068
07/20/2013  19:14:00     -213.721      -38.346       -9.600       87.008       55.327       36.403     7570.409     3061.109     1325.195        2.960        0.598      217.134       40.593        0.035      352.298       34.843      857.087
07/20/2013  19:15:00     -181.536      -72.032       -1.642       69.012       55.669       35.960     4762.625     3099.045     1293.108        2.365        0.458      195.305       29.756        0.023      352.251       34.762      857.105
07/20/2013  19:16:00     -129.837      -58.031        5.101       64.573       57.451       30.957     4169.669     3300.671      958.349        1.434        0.421      142.216       32.529        0.052      352.198       34.671      857.123
07/20/2013  19:17:00     -118.952      -78.076        0.267       65.883      100.230       37.056     4340.539    10046.136     1373.179        1.800        0.788      142.286       39.440        0.077      352.215       34.700      857.136
07/20/2013  19:18:00     -187.345     -117.301       -9.206       76.713       78.166       40.988     5884.848     6109.953     1680.021        3.131        0.684      221.037       42.323        0.037      352.162       34.608      857.147
07/20/2013  19:19:00     -231.832     -151.665      -18.014       91.283       89.513       45.864     8332.578     8012.654     2103.522        4.776        0.922      277.035       43.636        0.025      352.213       34.692      857.179
07/20/2013  19:20:00     -221.671     -119.852      -12.184       92.887       66.871       44.823     8627.911     4471.740     2009.099        3.938        0.755      251.997       51.322        0.041      352.146       34.575      857.231
07/20/2013  19:21:00     -199.890       41.258      -16.119       90.841       73.286       33.088     8252.073     5370.862     1094.840        2.831        0.736      204.103       42.366        0.043      352.181       34.639      857.299
07/20/2013  19:22:00     -132.017      128.357      -28.250       63.542       51.442       34.769     4037.560     2646.278     1208.899        2.130        0.395      184.130       41.631        0.051      352.122       34.537      857.352
07/20/2013  19:23:00     -109.838      137.965      -23.112       63.889       63.311       37.253     4081.830     4008.332     1387.772        2.055        0.474      176.348       41.824        0.056      352.039       34.393      857.378
07/20/2013  19:24:00      -91.435      110.840      -19.060       46.116       71.367       28.055     2126.682     5093.299      787.109        1.451        0.400      143.687       32.113        0.050      352.049       34.408      857.379
07/20/2013  19:25:00      -93.790      -18.697      -12.526       52.360       68.271       30.888     2741.571     4660.976      954.056        0.883        0.418       95.636       22.748        0.057      352.085       34.473      857.385
07/20/2013  19:26:00      -88.315      -63.625        8.200       85.722       59.437       37.859     7348.307     3532.729     1433.324        1.211        0.616      108.847       38.787        0.127      352.098       34.497      857.381
07/20/2013  19:27:00      -46.981       -1.321        7.231       55.563       43.310       29.655     3087.206     1875.750      879.391        0.405        0.292       47.000       31.540        0.450      352.029       34.376      857.373
07/20/2013  19:28:00     -120.281        4.256       -9.454      109.789       72.559       45.345    12053.715     5264.768     2056.213        1.697        0.969      120.356       58.635        0.237      351.994       34.314      857.381
07/20/2013  19:29:00     -160.053       27.822      -19.078       63.116       72.874       36.033     3983.686     5310.640     1298.384        1.867        0.530      162.453       39.109        0.058      351.992       34.310      857.379
07/20/2013  19:30:00     -154.532       -5.266      -10.563       72.103       51.384       34.558     5198.893     2640.283     1194.231        1.652        0.452      154.621       36.968        0.057      351.881       34.116      857.388
07/20/2013  19:31:00     -132.694       29.277      -12.956       43.731       36.240       24.878     1912.411     1313.321      618.916        1.124        0.192      135.885       24.154        0.032      351.825       34.019      857.408
07/20/2013  19:32:00      -51.731       28.002       -1.236       55.836       34.834       24.957     3117.689     1213.383      622.850        0.421        0.248       58.823       28.300        0.231      351.734       33.861      857.431
07/20/2013  19:33:00     -141.093      221.080      -32.328       95.776      104.016       63.240     9173.061    10819.408     3999.253        4.691        1.200      262.267       55.012        0.044      351.930       34.197      857.443
07/20/2013  19:34:00     -112.775      164.145      -12.766       97.821      100.253       64.451     9569.009    10050.587     4153.915        3.179        1.189      199.153       63.960        0.103      351.988       34.300      857.453
07/20/2013  19:35:00     -101.259      263.999      -26.119       69.820      120.819       45.150     4874.896    14597.185     2038.556        5.107        1.076      282.753       44.294        0.025      351.950       34.234      857.456
07/20/2013  19:36:00     -159.575      231.756      -39.093       85.092       86.428       45.233     7240.699     7469.763     2046.044        4.873        0.838      281.381       53.636        0.036      352.028       34.368      857.455
07/20/2013  19:37:00      -92.302      194.170      -19.400       57.235       61.246       38.711     3275.870     3751.097     1498.529        2.756        0.426      214.993       40.654        0.036      351.913       34.170      857.455
07/20/2013  19:38:00      -78.447      107.829      -15.623       38.819       42.784       24.476     1506.894     1830.493      599.083        1.098        0.197      133.346       15.962        0.014      351.751       33.889      857.455
07/20/2013  19:39:00     -108.966      139.535      -17.427       49.150       62.661       24.355     2415.762     3926.358      593.144        1.929        0.347      177.042       26.931        0.023      351.800       33.973      857.452
07/20/2013  19:40:00      -64.279       80.303      -13.726       42.550       31.553       25.340     1810.468      995.600      642.095        0.711        0.172      102.861       21.680        0.044      351.726       33.847      857.453
07/20/2013  19:41:00     -104.635      110.889       -6.337       77.835       64.363       49.028     6058.237     4142.592     2403.736        1.794        0.630      152.463       44.710        0.086      351.738       33.867      857.459
07/20/2013  19:42:00     -107.152      117.986       -8.820       93.141       84.468       44.090     8675.288     7134.798     1943.928        2.161        0.888      159.381       54.647        0.118      351.782       33.942      857.460
07/20/2013  19:43:00     -171.488      178.054      -27.239      111.902      102.618       53.566    12522.034    10530.556     2869.278        4.388        1.296      247.207       64.553        0.068      351.818       34.005      857.458
07/20/2013  19:44:00     -140.105      211.815      -29.248       83.671      100.392       54.881     7000.801    10078.648     3011.949        4.272        1.005      253.959       57.630        0.051      351.875       34.103      857.457
07/20/2013  19:45:00      -98.598      138.214      -15.660       58.743       68.001       39.965     3450.762     4624.122     1597.171        1.937        0.484      169.778       41.501        0.060      351.722       33.838      857.452
07/20/2013  19:46:00     -123.236      154.793      -27.319       71.956       59.850       33.534     5177.706     3581.964     1124.541        2.489        0.494      197.858       35.424        0.032      351.899       34.145      857.446
07/20/2013  19:47:00     -114.174      190.068      -20.655       94.613      139.008       51.135     8951.635    19323.118     2614.779        4.023        1.544      221.724       48.712        0.048      351.790       33.957      857.448
07/20/2013  19:48:00     -178.473      161.244      -26.874       78.660       81.188       55.456     6187.389     6591.411     3075.347        3.721        0.793      240.525       54.470        0.051      351.892       34.133      857.444
07/20/2013  19:49:00     -131.095      222.805      -23.822       84.849       85.930       54.550     7199.416     7384.047     2975.737        4.247        0.878      258.510       40.665        0.025      351.893       34.134      857.450
07/20/2013  19:50:00      -98.216      130.113      -14.947       65.441       72.005       41.083     4282.515     5184.687     1687.788        1.897        0.558      163.021       32.083        0.039      351.736       33.863      857.461
07/20/2013  19:51:00     -116.512       78.383        4.046       95.208       86.264       55.222     9064.529     7441.544     3049.499        1.964        0.978      140.424       54.040        0.148      351.785       33.948      857.476
07/20/2013  19:52:00     -168.840       24.198      -13.106       85.690       90.668       48.848     7342.833     8220.692     2386.087        2.360        0.897      170.565       46.918        0.076      351.833       34.030      857.484
07/20/2013  19:53:00     -188.216       68.935      -20.890       88.934       98.357       43.089     7909.317     9674.024     1856.653        3.002        0.972      200.443       40.742        0.041      351.797       33.967      857.483
07/20/2013  19:54:00     -180.007       27.080      -12.268       87.450      107.950       51.699     7647.548    11653.157     2672.837        2.763        1.099      182.032       44.189        0.059      351.683       33.769      857.484
07/20/2013  19:55:00     -147.630       -6.457      -31.825       62.544       92.690       36.529     3911.754     8591.435     1334.383        1.834        0.692      147.771       32.532        0.048      351.678       33.760      857.471
07/20/2013  19:56:00     -190.486      -48.142      -15.400       82.587       59.115       38.428     6820.564     3494.528     1476.736        2.531        0.590      196.476       23.552        0.014      351.592       33.611      857.478
07/20/2013  19:57:00     -149.391      -36.047      -18.076       39.748       55.252       33.113     1579.923     3052.832     1096.440        1.484        0.286      153.678       25.893        0.028      351.532       33.508      857.492
07/20/2013  19:58:00     -125.706      -31.656       -3.578       37.937       41.299       30.428     1439.251     1705.569      925.852        1.044        0.204      129.631        9.165        0.005      351.418       33.310      857.494
07/20/2013  19:59:00     -161.815       13.377      -17.080       66.507       69.556       33.282     4423.140     4837.970     1107.682        1.851        0.518      162.367       29.428        0.033      351.398       33.272      857.499
07/20/2013  20:00:00     -169.423       -2.157      -18.879       51.903       43.423       29.624     2693.901     1885.587      877.607        1.726        0.273      169.437       23.624        0.019      351.431       33.330      857.490
07/20/2013  20:01:00     -115.422        3.958       -7.402       76.825       49.782       41.353     5902.072     2478.290     1710.111        1.174        0.505      115.490       41.550        0.129      351.302       33.106      857.484
07/20/2013  20:02:00     -149.023       33.705      -25.813       78.897       58.680       31.910     6224.788     3443.285     1018.278        1.735        0.534      152.787       40.633        0.071      351.378       33.237      857.474
07/20/2013  20:03:00     -155.898        8.924       -9.482      100.683       75.546       48.618    10136.975     5707.220     2363.714        2.134        0.910      156.153       57.744        0.137      351.459       33.379      857.465
07/20/2013  20:04:00      -75.419       47.695       -5.035       64.203       69.013       45.938     4121.987     4762.767     2110.266        0.949        0.550       89.234       48.724        0.298      351.430       33.329      857.448
07/20/2013  20:05:00     -130.455       44.698      -10.254       72.739       41.800       23.018     5290.928     1747.225      529.834        1.334        0.378      137.900       19.001        0.019      351.500       33.453      857.435
07/20/2013  20:06:00     -146.151       76.005      -30.214       61.775       49.887       38.478     3816.109     2488.754     1480.552        1.792        0.389      164.732       27.240        0.027      351.586       33.601      857.428
07/20/2013  20:07:00     -109.961      115.526      -21.246       65.734       61.701       40.900     4320.968     3807.028     1672.809        1.784        0.490      159.492       35.119        0.048      351.546       33.532      857.414
07/20/2013  20:08:00      -92.971       97.890      -21.779       41.019       80.964       36.855     1682.559     6555.127     1358.273        1.415        0.480      135.004       26.975        0.040      351.482       33.420      857.403
07/20/2013  20:09:00     -112.203       82.734       -8.921       79.482       74.621       45.454     6317.347     5568.263     2066.031        1.673        0.698      139.408       55.038        0.156      351.516       33.478      857.407
07/20/2013  20:10:00     -114.168       31.060       -4.415       74.873       67.053       37.186     5605.980     4496.144     1382.773        1.275        0.574      118.318       38.718        0.107      351.575       33.584      857.406
07/20/2013  20:11:00     -106.983      116.435      -23.997       56.727       73.845       36.069     3217.963     5453.068     1300.983        1.777        0.499      158.122       27.474        0.030      351.558       33.552      857.395
07/20/2013  20:12:00      -88.767       91.119      -11.302       52.035       91.356       35.913     2707.615     8345.925     1289.773        1.432        0.617      127.210       40.374        0.101      351.590       33.610      857.399
07/20/2013  20:13:00     -120.100      100.539      -11.877       64.325       44.270       33.160     4137.661     1959.830     1099.615        1.593        0.360      156.627       29.586        0.036      351.504       33.459      857.401
07/20/2013  20:14:00     -147.238      146.393      -29.160       48.728      103.727       34.854     2374.457    10759.310     1214.821        2.915        0.717      207.629       25.350        0.015      351.624       33.667      857.405
07/20/2013  20:15:00     -111.398      101.853      -17.037       52.435       53.126       30.212     2749.429     2822.336      912.776        1.478        0.324      150.942       26.655        0.031      351.540       33.523      857.404
07/20/2013  20:16:00     -107.307      125.416      -23.937       49.939       51.877       33.439     2493.947     2691.240     1118.137        1.706        0.315      165.057       29.651        0.032      351.517       33.480      857.391
07/20/2013  20:17:00     -117.098       76.915      -11.470       53.713       74.049       34.598     2885.130     5483.300     1197.055        1.466        0.478      140.100       34.658        0.061      351.493       33.440      857.388
07/20/2013  20:18:00      -85.715       -5.503        4.593       51.991       70.531       39.458     2703.111     4974.653     1556.895        0.831        0.462       85.892       35.126        0.167      351.494       33.442      857.392
07/20/2013  20:19:00     -106.884       32.967       -8.240       41.949       59.978       26.315     1759.689     3597.328      692.464        0.931        0.302      111.853       17.768        0.025      351.313       33.125      857.391
07/20/2013  20:20:00     -187.321      102.936      -25.985       71.580      112.823       52.470     5123.705    12728.991     2753.084        3.348        1.030      213.741       58.896        0.076      351.530       33.503      857.389
07/20/2013  20:21:00     -145.095       34.381       -8.108       67.658       76.739       39.283     4577.540     5888.838     1543.126        1.715        0.600      149.113       37.168        0.062      351.347       33.183      857.390
07/20/2013  20:22:00     -162.690       46.934      -22.859       81.604       94.761       46.545     6659.190     8979.596     2166.405        2.350        0.890      169.325       48.676        0.083      351.338       33.167      857.406
07/20/2013  20:23:00     -180.088       76.514      -20.718       90.141       94.564       52.407     8125.354     8942.427     2746.465        2.926        0.991      195.668       40.129        0.042      351.485       33.425      857.403
07/20/2013  20:24:00     -118.801       38.000      -10.163       66.503       53.533       40.952     4422.599     2865.793     1677.075        1.231        0.448      124.730       36.902        0.088      351.305       33.112      857.416
07/20/2013  20:25:00     -198.259      110.543      -44.828       79.254       99.197       42.868     6281.209     9840.071     1837.680        3.574        0.898      226.994       34.111        0.023      351.443       33.350      857.423
07/20/2013  20:26:00     -104.437       71.115      -21.922       54.979       64.908       29.479     3022.713     4213.072      868.995        1.227        0.405      126.351       24.892        0.039      351.348       33.187      857.428
07/20/2013  20:27:00     -102.590      148.225       -6.761       75.200      104.777       53.190     5655.041    10978.211     2829.181        2.600        0.973      180.265       53.676        0.089      351.359       33.205      857.424
07/20/2013  20:28:00     -175.861       80.565      -39.350       94.470       65.800       38.110     8924.537     4329.642     1452.398        2.683        0.735      193.437       38.521        0.040      351.467       33.394      857.414
07/20/2013  20:29:00     -216.707       50.691      -28.740       88.578       96.804       47.876     7846.120     9371.078     2292.139        3.493        0.975      222.557       48.904        0.048      351.458       33.376      857.398
07/20/2013  20:30:00      -92.484       35.208      -19.175       62.589       83.047       52.785     3917.337     6896.780     2786.280        1.188        0.680       98.959       29.613        0.090      351.360       33.207      857.403
07/20/2013  20:31:00     -131.818       62.728      -15.937       74.521       84.915       45.964     5553.409     7210.561     2112.715        1.822        0.744      145.982       41.573        0.081      351.321       33.139      857.402
07/20/2013  20:32:00     -139.374       48.467       -6.784      108.602       66.655       54.074    11794.375     4442.872     2923.985        2.049        0.958      147.561       55.822        0.143      351.124       32.796      857.395
07/20/2013  20:33:00     -191.084       77.101      -36.513       78.783      114.087       49.170     6206.734    13015.893     2417.663        3.271        1.082      206.052       45.501        0.049      351.318       33.133      857.400
07/20/2013  20:34:00     -138.979       77.884      -24.067       71.007      101.267       42.799     5041.997    10255.098     1831.728        2.154        0.856      159.314       31.316        0.039      351.250       33.016      857.401
07/20/2013  20:35:00     -191.532       72.765      -22.245       96.196       73.514       42.854     9253.576     5404.250     1836.507        2.948        0.825      204.889       42.592        0.043      351.230       32.979      857.416
07/20/2013  20:36:00     -109.535      -34.180       -9.374       51.426       44.677       30.470     2644.589     1996.069      928.391        0.941        0.278      114.744       19.556        0.029      351.216       32.957      857.414
07/20/2013  20:37:00     -107.732      -35.563       -5.516       54.018       53.487       31.281     2917.891     2860.827      978.510        0.983        0.338      113.450       19.659        0.030      351.010       32.598      857.441
07/20/2013  20:38:00     -115.004      -35.331       -7.223       43.919       56.050       25.444     1928.849     3141.612      647.383        1.012        0.286      120.308        6.622        0.003      351.109       32.770      857.460
07/20/2013  20:39:00      -77.346      -37.617       -0.065       85.120       42.733       32.662     7245.331     1826.127     1066.797        0.877        0.507       86.008       27.409        0.102      350.997       32.575      857.481
07/20/2013  20:40:00      -37.023      -33.291        2.741       81.322       41.246       40.441     6613.237     1701.213     1635.496        0.622        0.497       49.790       48.290        0.941      350.953       32.499      857.497
07/20/2013  20:41:00     -107.051      -83.899        0.886       65.819       48.001       33.141     4332.183     2304.083     1098.321        1.312        0.387      136.011       31.964        0.055      350.886       32.383      857.513
07/20/2013  20:42:00     -109.080     -111.318        7.376       97.030       68.684       53.582     9414.844     4717.529     2870.985        2.067        0.850      155.853       62.313        0.160      350.906       32.415      857.529
07/20/2013  20:43:00     -128.320     -109.405        1.292       86.257       62.899       35.848     7440.344     3956.300     1285.098        2.056        0.634      168.628       38.349        0.052      350.998       32.576      857.524
07/20/2013  20:44:00      -77.516      -86.400        7.135       51.052       43.927       23.554     2606.293     1929.545      554.810        0.931        0.255      116.076       19.250        0.028      350.828       32.282      857.521
07/20/2013  20:45:00     -181.919     -138.706        6.761       83.821       85.746       49.947     7025.958     7352.291     2494.672        3.462        0.844      228.766       47.805        0.044      350.895       32.395      857.521
07/20/2013  20:46:00     -190.264     -139.782       -2.095      100.396       69.385       50.829    10079.405     4814.336     2583.538        3.661        0.874      236.092       54.485        0.053      350.868       32.350      857.523
07/20/2013  20:47:00     -183.524     -141.758        7.774      102.871       69.464       47.873    10582.445     4825.217     2291.847        3.576        0.885      231.898       55.775        0.058      350.812       32.250      857.533
07/20/2013  20:48:00     -181.147      -69.246        0.320       98.200       76.349       48.135     9643.156     5829.120     2316.968        2.770        0.889      193.931       49.988        0.066      350.823       32.272      857.528
07/20/2013  20:49:00     -209.915     -116.712       -6.803       91.103       89.860       44.948     8299.696     8074.787     2020.335        3.806        0.920      240.179       46.361        0.037      350.846       32.310      857.528
07/20/2013  20:50:00     -195.560     -110.701       -4.968       77.166       72.529       39.634     5954.531     5260.430     1570.844        3.165        0.639      224.719       42.460        0.036      350.803       32.232      857.526
07/20/2013  20:51:00     -189.251      -98.209       -8.275      109.947       57.721       46.999    12088.242     3331.751     2208.903        3.158        0.881      213.216       50.278        0.056      350.775       32.186      857.530
07/20/2013  20:52:00     -245.597     -131.911       -1.108      128.142       88.773       45.278    16420.395     7880.666     2050.089        5.203        1.318      278.781       49.507        0.032      350.760       32.161      857.531
07/20/2013  20:53:00     -212.963     -138.148       -9.413       79.624       67.084       41.895     6339.902     4500.328     1755.176        3.856        0.630      253.847       36.694        0.021      350.768       32.176      857.525
07/20/2013  20:54:00     -240.990      -89.143      -18.570       72.722       79.835       38.821     5288.504     6373.667     1507.069        3.977        0.658      256.949       28.636        0.012      350.724       32.096      857.546
07/20/2013  20:55:00     -218.909     -107.177       -4.010      116.054       78.767       54.678    13468.572     6204.247     2989.731        4.104        1.133      243.738       60.384        0.061      350.733       32.112      857.551
07/20/2013  20:56:00     -197.486     -111.990       -4.036      123.952       82.091       52.259    15364.092     6738.984     2730.957        3.819        1.242      227.030       54.548        0.058      350.724       32.098      857.564
07/20/2013  20:57:00     -131.291      -92.729        1.290      128.910       75.776       46.026    16617.759     5741.943     2118.429        2.515        1.224      160.736       58.216        0.131      350.678       32.020      857.565
07/20/2013  20:58:00     -216.031      -87.259       -0.858      166.318       91.854       57.044    27661.678     8437.144     3254.021        4.681        1.968      232.989       66.884        0.082      350.753       32.149      857.583
07/20/2013  20:59:00     -329.346     -220.084      -18.392       90.351      109.524       52.385     8163.295    11995.558     2744.139        9.007        1.145      396.113       44.286        0.012      350.787       32.207      857.585
07/20/2013  21:00:00     -291.058     -212.336       -0.559      214.582      112.677       77.361    46045.583    12696.043     5984.663        9.725        3.236      360.279       95.764        0.071      350.888       32.383      857.607
07/20/2013  21:01:00     -239.775      -95.704       -0.535       92.592       80.633       49.594     8573.281     6501.648     2459.577        4.209        0.877      258.169       53.149        0.042      350.900       32.402      857.630
07/20/2013  21:02:00     -226.264      -49.650       -6.528       90.305       74.491       48.325     8155.019     5548.912     2335.296        3.487        0.802      231.648       47.444        0.042      350.775       32.187      857.624
07/20/2013  21:03:00     -240.327      -31.767        7.326      115.186       80.077       52.744    13267.754     6412.341     2781.978        4.064        1.123      242.417       52.224        0.046      350.686       32.032      857.646
07/20/2013  21:04:00     -179.827      -24.273        1.320      106.275       83.617       41.512    11294.395     6991.757     1723.250        2.646        1.000      181.457       43.393        0.057      350.590       31.865      857.671
07/20/2013  21:05:00     -249.327      -62.708        2.162      101.266       72.162       45.970    10254.800     5207.368     2113.198        4.183        0.879      257.092       51.468        0.040      350.617       31.910      857.691
07/20/2013  21:06:00     -209.373      -47.118       -4.573       76.727       71.178       37.473     5887.103     5066.340     1404.207        2.922        0.618      214.609       38.035        0.031      350.604       31.888      857.690
07/20/2013  21:07:00     -171.465      -34.176       -1.593       61.297       56.154       36.071     3757.272     3153.233     1301.149        1.939        0.411      174.837       32.277        0.034      350.517       31.739      857.696
07/20/2013  21:08:00     -153.330      -62.350        2.389       74.892       67.342       34.883     5608.829     4534.882     1216.797        1.938        0.568      165.522       37.184        0.050      350.462       31.643      857.698
07/20/2013  21:09:00     -252.932      -66.637       -2.109       80.395       63.716       45.217     6463.365     4059.777     2044.548        4.049        0.628      261.563       34.235        0.017      350.513       31.729      857.719
07/20/2013  21:10:00     -270.331      -60.098       -8.918       79.762       51.827       39.351     6361.902     2686.066     1548.492        4.368        0.530      276.931       37.865        0.019      350.523       31.746      857.737
07/20/2013  21:11:00     -195.758      -68.901      -11.460       91.990       61.447       42.238     8462.145     3775.737     1784.026        2.861        0.701      207.530       47.753        0.053      350.541       31.779      857.740
07/20/2013  21:12:00     -189.030      -59.390        4.115      122.249       52.016       44.755    14944.806     2705.645     2003.038        2.946        0.983      198.140       51.850        0.068      350.439       31.601      857.745
07/20/2013  21:13:00     -198.422      -59.224       -1.372       95.435       74.575       49.734     9107.846     5561.441     2473.514        3.001        0.857      207.072       45.226        0.048      350.435       31.594      857.759
07/20/2013  21:14:00     -243.644      -96.400        2.268       98.261       79.005       41.297     9655.193     6241.828     1705.453        4.313        0.880      262.021       43.999        0.028      350.447       31.614      857.770
07/20/2013  21:15:00     -216.449      -39.650        4.057      134.100       80.769       56.339    17982.894     6523.665     3174.127        3.805        1.384      220.050       66.731        0.092      350.494       31.695      857.787
07/20/2013  21:16:00     -253.434      -35.020        2.614       86.000       63.829       43.646     7395.922     4074.146     1905.006        3.942        0.669      255.843       42.344        0.027      350.530       31.759      857.785
07/20/2013  21:17:00     -196.029      -88.556        5.951       86.512       68.497       42.512     7484.247     4691.872     1807.295        3.014        0.699      215.104       39.688        0.034      350.439       31.601      857.803
07/20/2013  21:18:00     -152.290      -56.296        7.844       93.196       63.131       35.593     8685.478     3985.578     1266.861        2.018        0.697      162.362       43.790        0.073      350.354       31.454      857.814
07/20/2013  21:19:00     -184.172      -39.969       -0.689       96.543       71.119       32.409     9320.469     5057.930     1050.348        2.547        0.771      188.459       38.860        0.043      350.339       31.428      857.837
07/20/2013  21:20:00     -236.406      -70.477       -2.159      107.826       72.586       44.796    11626.511     5268.782     2006.706        3.988        0.945      246.688       51.160        0.043      350.417       31.563      857.842
07/20/2013  21:21:00     -179.002      -34.001        7.909       94.876       81.127       37.110     9001.362     6581.670     1377.145        2.511        0.848      182.202       39.463        0.047      350.336       31.423      857.856
07/20/2013  21:22:00     -189.823      -31.965       -8.698       94.013       78.981       44.606     8838.518     6238.065     1989.678        2.709        0.853      192.496       51.910        0.073      350.314       31.383      857.859
07/20/2013  21:23:00     -251.066       32.041      -18.454       86.957       62.605       35.863     7561.604     3919.438     1286.155        3.858        0.638      253.102       10.214        0.002      350.285       31.334      857.877
07/20/2013  21:24:00     -266.494       -6.653      -16.718       86.365       80.456       42.063     7458.836     6473.098     1769.272        4.352        0.785      266.577       35.730        0.018      350.271       31.308      857.881
07/20/2013  21:25:00     -318.890        9.210      -33.430       83.574       59.414       25.894     6984.642     3530.062      670.493        5.704        0.559      319.023       28.856        0.008      350.426       31.577      857.894
07/20/2013  21:26:00     -231.847      -45.436      -12.289       65.920       48.092       31.631     4345.491     2312.828     1000.533        3.181        0.383      236.257       32.687        0.019      350.259       31.287      857.907
07/20/2013  21:27:00     -156.734      -74.346       -0.728       64.933       59.602       39.636     4216.315     3552.365     1571.006        1.971        0.467      173.473       27.665        0.025      350.223       31.225      857.913
07/20/2013  21:28:00     -181.415      -73.144       -4.589       79.253       73.832       43.343     6281.036     5451.107     1878.577        2.594        0.681      195.605       32.378        0.027      350.214       31.210      857.909
07/20/2013  21:29:00     -174.369      -21.815       -7.397       39.744       55.858       33.945     1579.603     3120.090     1152.295        1.839        0.293      175.728       25.055        0.020      350.210       31.205      857.920
07/20/2013  21:30:00     -245.571      -61.572      -10.696       81.699       56.700       39.967     6674.681     3214.872     1597.354        3.785        0.574      253.173       33.505        0.018      350.226       31.230      857.934
07/20/2013  21:31:00     -228.899      -23.917       -9.378       82.568       76.504       43.758     6817.541     5852.936     1914.774        3.382        0.729      230.145       29.003        0.016      350.217       31.216      857.956
07/20/2013  21:32:00     -135.557      -30.577        4.005       65.754       63.638       37.861     4323.540     4049.829     1433.451        1.456        0.490      138.963       35.534        0.065      350.166       31.128      857.953
07/20/2013  21:33:00     -202.396      -27.345      -14.774       80.235       67.369       34.535     6437.639     4538.533     1192.652        2.705        0.608      204.235       39.888        0.038      350.120       31.048      857.977
07/20/2013  21:34:00     -219.341      -56.924      -10.027       82.340       62.227       37.053     6779.897     3872.208     1372.915        3.174        0.601      226.607       38.500        0.029      350.214       31.210      857.999
07/20/2013  21:35:00     -182.337      -50.356       -1.520       73.519       59.675       38.522     5405.018     3561.134     1483.921        2.312        0.523      189.163       35.151        0.035      350.199       31.186      858.016
07/20/2013  21:36:00     -149.913      -81.829        5.175       60.049       48.396       34.211     3605.859     2342.134     1170.422        1.816        0.356      170.792       29.107        0.029      350.246       31.267      858.014
07/20/2013  21:37:00     -175.254     -113.427        0.114       91.168       62.672       41.560     8311.655     3927.767     1727.235        2.877        0.698      208.757       37.421        0.032      350.232       31.242      858.033
07/20/2013  21:38:00     -205.646      -86.827      -10.551       93.472       66.978       33.539     8737.068     4486.107     1124.886        3.214        0.717      223.225       36.891        0.027      350.309       31.376      858.034
07/20/2013  21:39:00     -164.223      -95.342       -7.558       84.833       63.802       38.190     7196.633     4070.670     1458.482        2.442        0.636      189.892       41.123        0.047      350.322       31.398      858.042
07/20/2013  21:40:00     -132.227      -73.449        2.308      104.717       60.100       44.682    10965.692     3612.023     1996.494        1.973        0.829      151.257       52.545        0.121      350.259       31.290      858.044
07/20/2013  21:41:00     -178.674      -35.182       -4.233       78.072       55.528       34.211     6095.204     3083.322     1170.397        2.176        0.517      182.105       35.781        0.039      350.291       31.345      858.071
07/20/2013  21:42:00     -152.449      -64.183       -3.351       40.623       42.986       24.635     1650.189     1847.785      606.894        1.574        0.205      165.409       24.652        0.022      350.254       31.282      858.071
07/20/2013  21:43:00     -146.688      -75.656       -3.729       70.125       64.812       32.632     4917.539     4200.560     1064.840        1.872        0.509      165.049       32.812        0.040      350.177       31.148      858.079
07/20/2013  21:44:00     -114.500      -59.155       -1.568       61.280       36.883       25.288     3755.256     1360.383      639.495        1.118        0.288      128.879       29.877        0.054      350.164       31.126      858.095
07/20/2013  21:45:00     -120.366      -43.297        2.530       63.923       55.778       38.022     4086.131     3111.172     1445.706        1.250        0.432      127.917       35.765        0.078      350.167       31.130      858.084
07/20/2013  21:46:00     -206.601      -43.570       -8.309       76.480       83.206       38.100     5849.209     6923.194     1451.619        2.943        0.711      211.145       25.408        0.014      350.242       31.257      858.089
07/20/2013  21:47:00     -188.445     -106.786        6.433       95.799       75.092       44.433     9177.383     5638.783     1974.328        3.187        0.840      216.599       44.529        0.042      350.202       31.190      858.082
07/20/2013  21:48:00     -282.752      -64.808       -7.650      114.963       97.704       56.334    13216.417     9546.088     3173.492        5.507        1.297      290.084       50.139        0.030      350.294       31.348      858.075
07/20/2013  21:49:00     -149.783      -25.480       10.712      137.421       80.748       56.932    18884.504     6520.290     3241.258        2.592        1.432      151.934       70.136        0.213      350.178       31.150      858.074
07/20/2013  21:50:00     -258.234       -2.198       -6.703       76.432       71.497       37.832     5841.796     5111.758     1431.224        3.956        0.619      258.243       29.552        0.013      350.345       31.437      858.081
07/20/2013  21:51:00     -204.749      -79.637       -5.518      107.263       92.033       45.826    11505.396     8470.138     2099.999        3.518        1.104      219.692       42.926        0.038      350.392       31.519      858.087
07/20/2013  21:52:00     -192.075      -62.826       -1.145      121.999       75.536       49.362    14883.764     5705.721     2436.628        3.193        1.151      202.089       57.512        0.081      350.358       31.461      858.088
07/20/2013  21:53:00     -220.708      -39.027       -3.466      100.247       57.933       43.184    10049.461     3356.232     1864.867        3.276        0.764      224.132       39.795        0.032      350.475       31.663      858.090
07/20/2013  21:54:00     -155.906      -31.872       15.415      103.594       76.239       41.736    10731.774     5812.381     1741.852        2.192        0.914      159.130       42.754        0.072      350.481       31.674      858.093
07/20/2013  21:55:00     -178.801      -69.298        1.686       85.384       65.860       39.344     7290.369     4337.557     1547.926        2.497        0.659      191.761       39.635        0.043      350.435       31.593      858.112
07/20/2013  21:56:00     -213.595      -26.665      -12.195       72.900       54.459       33.234     5314.454     2965.812     1104.484        2.793        0.469      215.253       32.842        0.023      350.388       31.512      858.112
07/20/2013  21:57:00     -165.428      -72.413      -13.421       53.604       47.493       31.769     2873.349     2255.624     1009.255        1.946        0.307      180.583       27.185        0.023      350.411       31.553      858.125
07/20/2013  21:58:00     -113.189      -11.392       -9.146       28.423       38.877       19.242      807.850     1511.424      370.258        0.786        0.134      113.760       13.726        0.015      350.394       31.527      858.138
07/20/2013  21:59:00      -49.931       -8.454        2.013       44.128       43.591       21.186     1947.292     1900.175      448.828        0.343        0.215       50.642       18.356        0.131      350.349       31.448      858.152
07/20/2013  22:00:00      -35.819      -42.092        0.185       27.774       38.846       22.825      771.403     1508.975      520.996        0.293        0.140       55.269       10.439        0.036      350.295       31.356      858.178
07/20/2013  22:01:00      -57.420      -12.534        3.453       57.868       34.045       27.173     3348.655     1159.047      738.381        0.436        0.262       58.772       34.092        0.336      350.363       31.472      858.192
07/20/2013  22:02:00      -30.518      -21.738       -4.023       39.178       24.069       14.612     1534.890      579.293      213.503        0.187        0.116       37.469        8.730        0.054      350.286       31.336      858.201
07/20/2013  22:03:00      -71.076      -14.662       -2.614       52.108       28.262       24.683     2715.235      798.763      609.242        0.470        0.206       72.573       26.025        0.129      350.314       31.389      858.218
07/20/2013  22:04:00      -94.211      -50.065       -6.835       57.607       35.047       22.149     3318.524     1228.288      490.558        0.823        0.252      106.688       24.220        0.052      350.310       31.380      858.232
07/20/2013  22:05:00      -20.532      -19.570       21.787       51.636       41.415       28.726     2666.297     1715.171      825.207        0.324        0.260       28.365       33.909        1.429      350.243       31.264      858.232
07/20/2013  22:06:00      -63.023      -52.018        0.083       65.795       41.322       27.031     4328.950     1707.543      730.657        0.672        0.338       81.717       25.093        0.094      350.272       31.312      858.232
07/20/2013  22:07:00      -41.766       18.884        7.097       43.053       16.645       22.569     1853.582      277.059      509.369        0.240        0.132       45.837       25.739        0.315      350.174       31.143      858.208
07/20/2013  22:08:00       -4.459       10.253        7.081       21.121       18.005       13.804      446.105      324.191      190.559        0.057        0.048       11.181       10.571        0.894      350.114       31.040      858.223
07/20/2013  22:09:00        4.250       52.592       -1.719       19.736       25.309       17.936      389.495      640.560      321.715        0.207        0.068       52.763       10.056        0.036      350.197       31.184      858.225
07/20/2013  22:10:00       40.851       29.201        4.505       35.529       22.921       11.625     1262.318      525.393      135.130        0.223        0.096       50.215       17.618        0.123      350.082       30.984      858.238
07/20/2013  22:11:00      -21.640       78.559       -4.207       39.325       43.518       22.348     1546.475     1893.831      499.431        0.530        0.197       81.485       15.781        0.038      350.179       31.153      858.267
07/20/2013  22:12:00      -34.030       95.882       -9.483       28.883       26.634       16.424      834.233      709.361      269.744        0.613        0.091      101.742       10.134        0.010      350.259       31.292      858.284
07/20/2013  22:13:00      -67.579       78.483       -5.147       37.865       41.712       23.693     1433.756     1739.896      561.370        0.724        0.187      103.569       19.794        0.037      350.249       31.273      858.296
07/20/2013  22:14:00      -91.326       13.394        2.921       49.419       31.662       25.466     2442.223     1002.458      648.524        0.631        0.205       92.303       21.363        0.054      350.268       31.306      858.301
07/20/2013  22:15:00      -20.745       66.275        1.565       45.565       32.823       22.845     2076.145     1077.341      521.875        0.425        0.184       69.446       25.872        0.139      350.203       31.195      858.308
07/20/2013  22:16:00       -5.490       13.956        8.256       14.484       27.739       13.304      209.795      769.429      177.002        0.072        0.058       14.997       12.969        0.748      350.099       31.014      858.313
07/20/2013  22:17:00      -19.475        5.663       -3.276       20.082       19.614       10.037      403.298      384.720      100.734        0.066        0.044       20.282       10.666        0.277      350.133       31.074      858.322
07/20/2013  22:18:00      -20.915       -8.367       -8.521       15.169       11.380        8.632      230.093      129.500       74.515        0.051        0.022       22.526        6.719        0.089      350.193       31.176      858.323
07/20/2013  22:19:00      -13.264       -7.562       -7.583       18.995       35.411       19.926      360.803     1253.953      397.062        0.115        0.101       15.268       15.044        0.971      350.273       31.314      858.326
07/20/2013  22:20:00     -109.886       26.481       -4.205       95.767       38.631       24.979     9171.304     1492.333      623.969        1.204        0.564      113.032       32.113        0.081      350.265       31.301      858.332
07/20/2013  22:21:00     -153.099       48.455       -7.002       64.871       74.798       33.827     4208.236     5594.770     1144.249        1.839        0.547      160.584       37.072        0.053      350.418       31.566      858.335
07/20/2013  22:22:00     -107.115       38.224      -17.727       62.248       89.099       48.090     3874.845     7938.698     2312.626        1.368        0.706      113.731       29.479        0.067      350.390       31.517      858.332
07/20/2013  22:23:00     -225.576       29.230      -18.629       84.042       56.327       29.535     7062.997     3172.776      872.323        3.159        0.555      227.462       29.637        0.017      350.317       31.391      858.351
07/20/2013  22:24:00     -134.443        1.171      -15.799       58.186       36.263       24.049     3385.569     1315.007      578.373        1.180        0.264      134.448       20.948        0.024      350.134       31.074      858.348
07/20/2013  22:25:00      -81.305      -46.022      -17.098       40.996       37.968       21.536     1680.643     1441.556      463.800        0.630        0.179       93.427       20.800        0.050      350.237       31.254      858.345
07/20/2013  22:26:00     -105.710       -1.113       -0.803       45.373       42.008       27.380     2058.709     1764.712      749.691        0.787        0.229      105.716       20.477        0.038      350.170       31.136      858.324
07/20/2013  22:27:00      -75.614      -26.317       -1.344       53.044       39.931       22.611     2813.662     1594.455      511.244        0.566        0.246       80.063       21.583        0.073      350.196       31.183      858.323
07/20/2013  22:28:00     -139.301      -73.027       -6.749       72.514       56.230       34.463     5258.287     3161.759     1187.711        1.719        0.480      157.283       31.812        0.041      350.187       31.166      858.327
07/20/2013  22:29:00     -166.346      -63.626       -3.884       83.821       68.063       27.858     7025.976     4632.537      776.092        2.208        0.622      178.099       25.312        0.020      350.134       31.074      858.323
07/20/2013  22:30:00     -121.721      -49.275       -1.689       56.633       35.996       25.553     3207.288     1295.739      652.977        1.120        0.258      131.317       29.734        0.051      350.048       30.925      858.312
07/20/2013  22:31:00     -129.643      -72.821        0.877       47.233       55.347       27.137     2230.947     3063.318      736.430        1.407        0.302      148.695       20.922        0.020      350.112       31.034      858.301
07/20/2013  22:32:00      -73.145      -48.463        3.735       63.116       35.773       25.137     3983.677     1279.684      631.865        0.680        0.295       87.743       25.142        0.082      350.024       30.883      858.298
07/20/2013  22:33:00      -78.164      -52.153        2.470       51.235       37.901       24.177     2625.034     1436.516      584.534        0.674        0.232       93.966       24.226        0.066      350.176       31.148      858.297
07/20/2013  22:34:00      -68.076       -1.425       12.244       59.469       40.261       23.821     3536.515     1620.979      567.427        0.525        0.286       68.090       27.280        0.161      349.954       30.761      858.297
07/20/2013  22:35:00     -157.394      -22.051        1.229       90.091       56.104       42.113     8116.467     3147.676     1773.477        1.915        0.652      158.931       40.771        0.066      350.123       31.051      858.291
07/20/2013  22:36:00     -266.797     -151.458      -12.954       90.421       73.599       43.644     8175.957     5416.861     1904.788        5.489        0.775      306.790       45.063        0.022      350.376       31.492      858.277
07/20/2013  22:37:00     -161.026      -31.156        1.416       71.828       74.223       39.720     5159.216     5509.024     1577.691        1.957        0.612      164.012       38.252        0.054      350.183       31.159      858.287
07/20/2013  22:38:00      -45.978      -38.517       18.708       78.652       42.632       37.208     6186.184     1817.517     1384.414        0.667        0.469       59.979       47.332        0.623      350.052       30.932      858.291
07/20/2013  22:39:00      -97.582        9.056        3.459       64.897       42.678       32.710     4211.646     1821.415     1069.942        0.836        0.355       98.001       31.151        0.101      350.203       31.192      858.283
07/20/2013  22:40:00     -137.371      -92.051        2.559       98.476       83.202       56.040     9697.449     6922.576     3140.476        2.355        0.988      165.361       55.556        0.113      350.198       31.183      858.280
07/20/2013  22:41:00     -116.513     -106.356        6.875       89.595       84.925       54.779     8027.258     7212.294     3000.706        2.158        0.912      157.756       45.747        0.084      350.264       31.298      858.283
07/20/2013  22:42:00     -147.347      -12.714        3.173       73.436       85.132       49.213     5392.804     7247.530     2421.881        1.847        0.753      147.895       40.970        0.077      350.304       31.369      858.292
07/20/2013  22:43:00     -147.172      -72.920      -10.868      102.652       72.290       43.700    10537.413     5225.902     1909.653        2.238        0.884      164.247       42.223        0.066      350.362       31.469      858.308
07/20/2013  22:44:00     -139.487      -78.866       -1.356       89.645       70.997       40.544     8036.167     5040.544     1643.811        2.020        0.736      160.238       36.766        0.053      350.272       31.309      858.317
07/20/2013  22:45:00     -100.358       -4.719       -2.236       54.551       36.912       32.760     2975.775     1362.512     1073.226        0.775        0.271      100.469       32.266        0.103      350.179       31.151      858.322
07/20/2013  22:46:00      -75.106        8.049      -12.222       23.171       29.815       22.011      536.912      888.945      484.483        0.388        0.096       75.537       14.230        0.035      350.144       31.091      858.330
07/20/2013  22:47:00      -63.351       40.723       -2.959       45.345       30.101       21.950     2056.141      906.098      481.785        0.456        0.172       75.311       18.800        0.062      350.032       30.897      858.345
07/20/2013  22:48:00      -19.829       82.185      -24.188       42.272       40.675       15.938     1786.885     1654.493      254.008        0.571        0.185       84.543       14.909        0.031      349.962       30.774      858.340
07/20/2013  22:49:00      -67.909       47.192      -14.229       25.366       59.206       22.243      643.419     3505.359      494.762        0.584        0.232       82.696       12.565        0.023      349.801       30.496      858.337
07/20/2013  22:50:00      -68.505       43.395      -10.234       22.583       26.458       21.526      509.986      700.039      463.383        0.418        0.084       81.093       16.786        0.043      350.021       30.878      858.322
07/20/2013  22:51:00      -86.122      106.358      -19.247       27.063       30.999       16.506      732.390      960.951      272.460        1.053        0.098      136.854       15.218        0.012      350.208       31.202      858.318
07/20/2013  22:52:00      -60.779       51.551       -8.345       18.356       22.028       13.346      336.925      485.254      178.122        0.371        0.050       79.696        9.155        0.013      350.072       30.966      858.306
07/20/2013  22:53:00      -85.492       15.663       -9.562       21.041       32.841       15.246      442.724     1078.508      232.428        0.470        0.088       86.915        6.059        0.005      349.923       30.707      858.296
07/20/2013  22:54:00      -73.588       -1.315       -2.947       42.706       27.807       17.703     1823.814      773.228      313.400        0.417        0.146       73.600       23.602        0.103      349.769       30.439      858.285
07/20/2013  22:55:00      -86.890      -11.978      -10.779       18.524       21.597       16.032      343.145      466.440      257.025        0.444        0.053       87.712       13.927        0.025      349.771       30.445      858.270
07/20/2013  22:56:00     -178.690       -8.627      -16.078       34.065       40.113       30.849     1160.397     1609.041      951.654        1.799        0.186      178.898       24.277        0.018      349.992       30.826      858.261
07/20/2013  22:57:00     -111.378       -5.382       -0.371       53.000       50.461       23.727     2809.035     2546.316      562.971        0.918        0.296      111.508       21.242        0.036      349.898       30.666      858.256
07/20/2013  22:58:00     -117.569      -44.964       -0.165       51.874       46.285       30.772     2690.961     2142.327      946.906        1.081        0.289      125.874       25.319        0.040      349.878       30.630      858.253
07/20/2013  22:59:00     -112.007       10.009      -11.945       26.970       45.357       21.946      727.404     2057.220      481.637        0.803        0.163      112.453       17.875        0.025      349.478       29.935      858.253
07/20/2013  23:00:00     -157.792       -2.689      -17.232       53.515       38.239       21.428     2863.833     1462.224      459.154        1.499        0.239      157.815       18.836        0.014      349.772       30.446      858.264
07/20/2013  23:01:00     -157.763      -35.506      -18.136       57.016       48.959       32.161     3250.853     2396.979     1034.321        1.658        0.334      161.709       30.688        0.036      349.806       30.504      858.287
07/20/2013  23:02:00     -154.208       30.171      -12.872       58.629       44.614       28.265     3437.315     1990.396      798.932        1.554        0.311      157.132       28.114        0.032      349.848       30.575      858.340
07/20/2013  23:03:00      -88.371       78.569      -12.384       39.931       58.077       22.892     1594.480     3372.931      524.061        0.981        0.275      118.248       16.763        0.020      349.825       30.538      858.378
07/20/2013  23:04:00      -64.401      118.858      -18.775       44.863       40.501       23.262     2012.693     1640.306      541.116        1.141        0.210      135.184       19.528        0.021      349.785       30.469      858.428
07/20/2013  23:05:00      -30.213      230.172      -31.816       42.574       63.486       23.721     1812.528     4030.465      562.708        3.065        0.320      232.146       21.918        0.009      349.816       30.519      858.506
07/20/2013  23:06:00      -61.701      164.661      -10.358       84.303       71.458       44.782     7107.072     5106.215     2005.429        2.262        0.711      175.841       44.095        0.063      349.721       30.355      858.566
07/20/2013  23:07:00     -100.854      192.436      -27.908      113.512       85.378       39.213    12884.988     7289.337     1537.676        3.484        1.086      217.263       35.079        0.026      349.810       30.510      858.604
07/20/2013  23:08:00      -26.166      306.798      -43.015       76.762      100.889       35.709     5892.356    10178.646     1275.158        5.700        0.867      307.912       37.076        0.014      349.930       30.715      858.612
07/20/2013  23:09:00      -63.047      177.374      -15.710       60.364       92.386       38.465     3643.756     8535.220     1479.579        2.467        0.683      188.246       43.617        0.054      349.880       30.629      858.613
07/20/2013  23:10:00      -67.485       41.034       -9.268       32.602       26.660       16.818     1062.859      710.767      282.850        0.419        0.103       78.981       13.578        0.030      349.710       30.338      858.631
07/20/2013  23:11:00       34.625      138.357      -10.377       39.534       81.542       35.111     1562.968     6649.105     1232.765        1.495        0.472      142.624       31.075        0.047      349.820       30.526      858.644
07/20/2013  23:12:00      -20.757      204.765      -20.553       44.617       60.182       35.984     1990.719     3621.874     1294.837        2.484        0.345      205.814       31.158        0.023      349.970       30.787      858.661
07/20/2013  23:13:00      -55.130      244.508      -14.102      106.756      102.439       55.773    11396.739    10493.846     3110.587        4.401        1.250      250.646       48.099        0.037      349.852       30.582      858.672
07/20/2013  23:14:00     -162.021      233.183      -41.930       86.552       48.226       42.007     7491.335     2325.788     1764.599        4.698        0.579      283.946       40.667        0.021      349.982       30.806      858.719
07/20/2013  23:15:00      -98.222      235.465      -24.847       64.426       53.638       38.723     4150.726     2877.011     1499.433        3.712        0.426      255.130       30.864        0.015      349.899       30.661      858.733
07/20/2013  23:16:00     -120.951       78.035      -14.972       62.517       53.750       33.104     3908.321     2889.105     1095.907        1.442        0.395      143.940       34.971        0.059      349.853       30.585      858.741
07/20/2013  23:17:00     -100.754       43.751      -21.623       51.869       54.595       31.970     2690.403     2980.577     1022.071        0.961        0.335      109.844       29.329        0.071      349.822       30.533      858.745
07/20/2013  23:18:00      -66.854       19.999      -10.852       45.449       38.650       23.962     2065.588     1493.853      574.162        0.456        0.207       69.782       24.681        0.125      349.777       30.454      858.771
07/20/2013  23:19:00     -114.973       45.027      -14.096       50.476       49.553       21.077     2547.816     2455.527      444.231        1.045        0.272      123.476       21.488        0.030      349.822       30.533      858.780
07/20/2013  23:20:00      -83.925       32.862      -21.687       68.710       25.549       13.874     4721.001      652.744      192.499        0.708        0.278       90.129        6.076        0.005      349.990       30.823      858.775
07/20/2013  23:21:00        2.880       24.571       12.029       17.878       24.653       16.149      319.613      607.754      260.801        0.097        0.059       24.740        5.442        0.048      349.773       30.449      858.774
07/20/2013  23:22:00       22.119       26.588       -4.804       10.849       14.122        4.881      117.708      199.434       23.820        0.078        0.017       34.586        5.642        0.027      349.751       30.409      858.792
07/20/2013  23:23:00       13.904       -9.356       -1.309        8.959       12.563        6.404       80.265      157.839       41.011        0.028        0.014       16.759        5.251        0.098      349.878       30.629      858.796
07/20/2013  23:24:00       12.311       -8.306        6.223       11.537        9.865        4.965      133.109       97.311       24.648        0.026        0.013       14.851        4.097        0.076      349.740       30.391      858.801
07/20/2013  23:25:00       41.647      -17.243        1.498        9.206       11.366        7.817       84.752      129.182       61.099        0.115        0.014       45.075        3.250        0.005      349.981       30.809      858.799
07/20/2013  23:26:00        5.059       17.666       29.925       15.718       20.870       12.401      247.053      435.551      153.788        0.103        0.042       18.377       12.291        0.447      349.732       30.376      858.805
07/20/2013  23:27:00        3.758       39.329       45.406       11.460       17.944       12.076      131.325      321.994      145.820        0.211        0.030       39.508        7.884        0.040      349.478       29.935      858.817
07/20/2013  23:28:00       49.903       44.394       43.573       59.508       30.451       29.951     3541.258      927.240      897.053        0.586        0.268       66.791       28.240        0.179      349.460       29.904      858.815
07/20/2013  23:29:00       97.864       37.600       26.678       53.215       38.421       27.331     2831.789     1476.160      746.985        0.838        0.253      104.838       18.556        0.031      349.679       30.283      858.813
07/20/2013  23:30:00       95.171       71.817        5.386       27.907       22.407       22.147      778.797      502.095      490.484        0.801        0.089      119.227       16.561        0.019      349.658       30.248      858.816
07/20/2013  23:31:00       60.185       65.174       -6.433       25.387       34.716       17.344      644.517     1205.196      300.797        0.503        0.108       88.712       17.907        0.041      349.570       30.096      858.823
07/20/2013  23:32:00       39.590      118.305      -21.366       33.238       59.774       27.408     1104.792     3572.924      751.184        1.072        0.271      124.754       31.699        0.065      349.527       30.020      858.820
07/20/2013  23:33:00       17.688      196.750      -30.550       35.322       42.361       24.900     1247.662     1794.495      620.022        2.181        0.183      197.544       25.943        0.017      349.764       30.430      858.819
07/20/2013  23:34:00       18.597      124.962      -24.129       20.176       31.986       16.827      407.091     1023.092      283.155        0.913        0.086      126.339       17.677        0.020      349.704       30.328      858.819
07/20/2013  23:35:00       18.610      189.438      -27.852       30.776       45.570       26.747      947.158     2076.637      715.402        2.037        0.187      190.350       22.380        0.014      349.539       30.040      858.805
07/20/2013  23:36:00        7.812      189.347      -33.371       36.201       38.967       17.872     1310.530     1518.459      319.399        2.009        0.157      189.508       14.349        0.006      349.337       29.690      858.808
07/20/2013  23:37:00       -0.060      203.161      -29.537       37.304       46.837       21.477     1391.560     2193.716      461.260        2.310        0.202      203.161       21.839        0.012      349.541       30.043      858.807
07/20/2013  23:38:00      -44.303      241.366      -30.887       41.066       73.685       26.333     1686.434     5429.448      693.433        3.449        0.390      245.398       31.682        0.017      349.428       29.846      858.811
07/20/2013  23:39:00      -26.434      246.394      -29.724       35.470       42.475       21.518     1258.088     1804.124      463.011        3.291        0.176      247.808       19.473        0.006      349.546       30.049      858.821
07/20/2013  23:40:00      -44.859      191.640      -24.292       31.883       41.899       20.237     1016.550     1755.493      409.551        2.125        0.159      196.820       17.093        0.008      349.480       29.939      858.836
07/20/2013  23:41:00      -54.459      128.705      -14.381       49.223       41.291       20.677     2422.915     1704.926      427.544        1.215        0.228      139.752       16.940        0.015      349.229       29.505      858.826
07/20/2013  23:42:00      -38.584      207.130      -17.600       32.544       65.748       21.105     1059.134     4322.828      445.415        2.526        0.291      210.693       24.349        0.013      349.442       29.872      858.827
07/20/2013  23:43:00      -56.180      138.339      -14.989       27.299       39.688       25.510      745.254     1575.176      650.740        1.274        0.149      149.311       23.468        0.025      349.248       29.535      858.838
07/20/2013  23:44:00      -91.063      129.986      -17.707       47.679       57.173       25.993     2273.311     3268.797      675.657        1.586        0.311      158.710       29.023        0.033      349.266       29.566      858.846
07/20/2013  23:45:00      -38.476      222.232      -28.765       35.076       48.108       19.276     1230.340     2314.393      371.556        2.780        0.196      225.538       20.720        0.008      349.439       29.863      858.829
07/20/2013  23:46:00      -22.148      228.894      -28.893       29.909       40.667       23.400      894.549     1653.837      547.578        2.841        0.155      229.963       24.408        0.011      349.371       29.745      858.847
07/20/2013  23:47:00       17.761      214.540      -23.238       46.276       58.028       31.718     2141.458     3367.295     1006.059        2.670        0.326      215.274       24.460        0.013      349.176       29.408      858.861
07/20/2013  23:48:00      -17.082      253.689      -31.110       35.771       53.653       21.862     1279.563     2878.682      477.954        3.513        0.232      254.263       19.664        0.006      349.279       29.586      858.869
07/20/2013  23:49:00      -30.620      241.384      -34.372       39.999       41.911       24.915     1599.885     1756.534      620.756        3.218        0.199      243.319       22.989        0.009      349.257       29.547      858.869
07/20/2013  23:50:00       -2.951      229.881      -33.823       47.370       38.810       26.928     2243.896     1506.191      725.120        2.924        0.224      229.900       20.435        0.008      349.101       29.278      858.876
07/20/2013  23:51:00      -44.962      217.430      -22.802       41.152       95.685       34.701     1693.501     9155.627     1204.181        3.093        0.603      222.031       46.876        0.045      349.141       29.347      858.893
07/20/2013  23:52:00      -74.315      182.588      -22.034       50.420       62.590       26.477     2542.226     3917.467      701.036        2.325        0.358      197.132       20.659        0.011      349.080       29.242      858.894
07/20/2013  23:53:00      -80.673      229.133      -33.127       39.021       74.369       30.527     1522.659     5530.780      931.874        3.404        0.399      242.920       27.977        0.013      349.148       29.358      858.895
07/20/2013  23:54:00      -48.250       78.451      -13.131       35.400       44.386       24.211     1253.184     1970.121      586.178        0.623        0.190       92.102       28.999        0.099      349.086       29.255      858.884
07/20/2013  23:55:00      -63.012      134.823      -18.097       48.319       55.597       21.875     2334.685     3091.039      478.510        1.419        0.295      148.821       15.194        0.010      349.029       29.156      858.894
07/20/2013  23:56:00      -76.250      185.861      -19.011       49.461       76.217       27.639     2446.344     5809.019      763.915        2.487        0.451      200.894       34.612        0.030      349.036       29.167      858.888
07/20/2013  23:57:00     -115.233      126.015      -29.467       43.645       56.431       26.841     1904.900     3184.420      720.423        1.792        0.290      170.758       23.425        0.019      348.952       29.022      858.889
07/20/2013  23:58:00     -162.782      118.285      -28.818       41.175       51.648       30.616     1695.384     2667.548      937.314        2.331        0.265      201.220       32.614        0.026      348.985       29.078      858.902
07/20/2013  23:59:00     -137.200      106.320      -20.453       48.986       55.243       30.222     2399.650     3051.798      913.349        1.845        0.318      173.573       32.335        0.035      348.918       28.963      858.887
